<?xml version="1.0" encoding="UTF-8" standalone="no" ?>
<gpx xmlns="http://www.topografix.com/GPX/1/1" xmlns:xsi="http://www.w3.org/2001/XMLSchema-instance" xsi:schemaLocation="http://www.topografix.com/GPX/1/1 http://www.topografix.com/GPX/1/1/gpx.xsd" version="1.1" creator="VisuGPX - https://www.visugpx.com">
  <metadata>
    <name>montee de st Nizier</name>
    <desc><![CDATA[Grenoble St Nizier, ]]></desc>
  </metadata>
  <trk>
    <name><![CDATA[montee de st Nizier_1]]></name>
    <trkseg>
      <trkpt lat="45.18095" lon="5.70516">
        <ele>385</ele>
        <time>2015-08-23T06:54:32.000Z</time>
      </trkpt>
      <trkpt lat="45.18121" lon="5.70541">
        <ele>370</ele>
        <time>2015-08-23T06:54:33.000Z</time>
      </trkpt>
      <trkpt lat="45.18087" lon="5.70538">
        <ele>310</ele>
        <time>2015-08-23T06:54:57.000Z</time>
      </trkpt>
      <trkpt lat="45.18076" lon="5.70532">
        <ele>305</ele>
        <time>2015-08-23T06:55:01.000Z</time>
      </trkpt>
      <trkpt lat="45.18076" lon="5.70532">
        <ele>305</ele>
        <time>2015-08-23T06:55:03.000Z</time>
      </trkpt>
      <trkpt lat="45.18063" lon="5.70533">
        <ele>299</ele>
        <time>2015-08-23T06:55:07.000Z</time>
      </trkpt>
      <trkpt lat="45.18053" lon="5.70538">
        <ele>301</ele>
        <time>2015-08-23T06:55:11.000Z</time>
      </trkpt>
      <trkpt lat="45.18053" lon="5.70538">
        <ele>301</ele>
        <time>2015-08-23T06:55:15.000Z</time>
      </trkpt>
      <trkpt lat="45.18053" lon="5.70538">
        <ele>301</ele>
        <time>2015-08-23T06:55:19.000Z</time>
      </trkpt>
      <trkpt lat="45.18053" lon="5.70538">
        <ele>301</ele>
        <time>2015-08-23T06:55:21.000Z</time>
      </trkpt>
      <trkpt lat="45.1803" lon="5.70495">
        <ele>298</ele>
        <time>2015-08-23T06:55:31.000Z</time>
      </trkpt>
      <trkpt lat="45.18027" lon="5.70481">
        <ele>298</ele>
        <time>2015-08-23T06:55:35.000Z</time>
      </trkpt>
      <trkpt lat="45.18027" lon="5.70467">
        <ele>298</ele>
        <time>2015-08-23T06:55:39.000Z</time>
      </trkpt>
      <trkpt lat="45.18027" lon="5.70453">
        <ele>298</ele>
        <time>2015-08-23T06:55:43.000Z</time>
      </trkpt>
      <trkpt lat="45.18027" lon="5.70437">
        <ele>294</ele>
        <time>2015-08-23T06:55:47.000Z</time>
      </trkpt>
      <trkpt lat="45.18027" lon="5.70437">
        <ele>294</ele>
        <time>2015-08-23T06:55:49.000Z</time>
      </trkpt>
      <trkpt lat="45.18027" lon="5.70437">
        <ele>294</ele>
        <time>2015-08-23T06:55:51.000Z</time>
      </trkpt>
      <trkpt lat="45.18027" lon="5.70437">
        <ele>294</ele>
        <time>2015-08-23T06:55:53.000Z</time>
      </trkpt>
      <trkpt lat="45.18014" lon="5.70407">
        <ele>287</ele>
        <time>2015-08-23T06:56:02.000Z</time>
      </trkpt>
      <trkpt lat="45.18014" lon="5.70393">
        <ele>287</ele>
        <time>2015-08-23T06:56:06.000Z</time>
      </trkpt>
      <trkpt lat="45.18014" lon="5.70393">
        <ele>287</ele>
        <time>2015-08-23T06:56:10.000Z</time>
      </trkpt>
      <trkpt lat="45.18014" lon="5.70393">
        <ele>287</ele>
        <time>2015-08-23T06:56:12.000Z</time>
      </trkpt>
      <trkpt lat="45.18014" lon="5.70393">
        <ele>287</ele>
        <time>2015-08-23T06:56:14.000Z</time>
      </trkpt>
      <trkpt lat="45.18012" lon="5.7037">
        <ele>288</ele>
        <time>2015-08-23T06:56:22.000Z</time>
      </trkpt>
      <trkpt lat="45.18011" lon="5.70355">
        <ele>288</ele>
        <time>2015-08-23T06:56:24.000Z</time>
      </trkpt>
      <trkpt lat="45.1801" lon="5.70344">
        <ele>290</ele>
        <time>2015-08-23T06:56:26.000Z</time>
      </trkpt>
      <trkpt lat="45.1801" lon="5.70336">
        <ele>290</ele>
        <time>2015-08-23T06:56:28.000Z</time>
      </trkpt>
      <trkpt lat="45.1801" lon="5.70336">
        <ele>290</ele>
        <time>2015-08-23T06:56:30.000Z</time>
      </trkpt>
      <trkpt lat="45.18009" lon="5.70322">
        <ele>289</ele>
        <time>2015-08-23T06:56:34.000Z</time>
      </trkpt>
      <trkpt lat="45.18008" lon="5.70311">
        <ele>289</ele>
        <time>2015-08-23T06:56:36.000Z</time>
      </trkpt>
      <trkpt lat="45.18008" lon="5.70302">
        <ele>289</ele>
        <time>2015-08-23T06:56:38.000Z</time>
      </trkpt>
      <trkpt lat="45.18008" lon="5.70294">
        <ele>287</ele>
        <time>2015-08-23T06:56:41.000Z</time>
      </trkpt>
      <trkpt lat="45.18008" lon="5.70286">
        <ele>288</ele>
        <time>2015-08-23T06:56:42.000Z</time>
      </trkpt>
      <trkpt lat="45.18009" lon="5.70271">
        <ele>288</ele>
        <time>2015-08-23T06:56:44.000Z</time>
      </trkpt>
      <trkpt lat="45.1801" lon="5.70258">
        <ele>286</ele>
        <time>2015-08-23T06:56:48.000Z</time>
      </trkpt>
      <trkpt lat="45.1801" lon="5.70245">
        <ele>285</ele>
        <time>2015-08-23T06:56:52.000Z</time>
      </trkpt>
      <trkpt lat="45.18011" lon="5.70232">
        <ele>286</ele>
        <time>2015-08-23T06:56:56.000Z</time>
      </trkpt>
      <trkpt lat="45.18012" lon="5.70219">
        <ele>286</ele>
        <time>2015-08-23T06:57:00.000Z</time>
      </trkpt>
      <trkpt lat="45.18013" lon="5.702">
        <ele>286</ele>
        <time>2015-08-23T06:57:06.000Z</time>
      </trkpt>
      <trkpt lat="45.18014" lon="5.70181">
        <ele>285</ele>
        <time>2015-08-23T06:57:12.000Z</time>
      </trkpt>
      <trkpt lat="45.18014" lon="5.70162">
        <ele>287</ele>
        <time>2015-08-23T06:57:18.000Z</time>
      </trkpt>
      <trkpt lat="45.18014" lon="5.70162">
        <ele>287</ele>
        <time>2015-08-23T06:57:22.000Z</time>
      </trkpt>
      <trkpt lat="45.18014" lon="5.70162">
        <ele>287</ele>
        <time>2015-08-23T06:57:24.000Z</time>
      </trkpt>
      <trkpt lat="45.18014" lon="5.70132">
        <ele>287</ele>
        <time>2015-08-23T06:57:28.000Z</time>
      </trkpt>
      <trkpt lat="45.18014" lon="5.70118">
        <ele>287</ele>
        <time>2015-08-23T06:57:32.000Z</time>
      </trkpt>
      <trkpt lat="45.18014" lon="5.70105">
        <ele>288</ele>
        <time>2015-08-23T06:57:36.000Z</time>
      </trkpt>
      <trkpt lat="45.18015" lon="5.70091">
        <ele>288</ele>
        <time>2015-08-23T06:57:40.000Z</time>
      </trkpt>
      <trkpt lat="45.18015" lon="5.70072">
        <ele>290</ele>
        <time>2015-08-23T06:57:46.000Z</time>
      </trkpt>
      <trkpt lat="45.18015" lon="5.70054">
        <ele>288</ele>
        <time>2015-08-23T06:57:52.000Z</time>
      </trkpt>
      <trkpt lat="45.18015" lon="5.70039">
        <ele>287</ele>
        <time>2015-08-23T06:57:58.000Z</time>
      </trkpt>
      <trkpt lat="45.18016" lon="5.70021">
        <ele>285</ele>
        <time>2015-08-23T06:58:04.000Z</time>
      </trkpt>
      <trkpt lat="45.18016" lon="5.70008">
        <ele>285</ele>
        <time>2015-08-23T06:58:09.000Z</time>
      </trkpt>
      <trkpt lat="45.18016" lon="5.69995">
        <ele>284</ele>
        <time>2015-08-23T06:58:12.000Z</time>
      </trkpt>
      <trkpt lat="45.18016" lon="5.69981">
        <ele>283</ele>
        <time>2015-08-23T06:58:16.000Z</time>
      </trkpt>
      <trkpt lat="45.18016" lon="5.69967">
        <ele>283</ele>
        <time>2015-08-23T06:58:21.000Z</time>
      </trkpt>
      <trkpt lat="45.18017" lon="5.6996">
        <ele>282</ele>
        <time>2015-08-23T06:58:24.000Z</time>
      </trkpt>
      <trkpt lat="45.18017" lon="5.69953">
        <ele>282</ele>
        <time>2015-08-23T06:58:26.000Z</time>
      </trkpt>
      <trkpt lat="45.18017" lon="5.69946">
        <ele>281</ele>
        <time>2015-08-23T06:58:28.000Z</time>
      </trkpt>
      <trkpt lat="45.18016" lon="5.69939">
        <ele>281</ele>
        <time>2015-08-23T06:58:30.000Z</time>
      </trkpt>
      <trkpt lat="45.18016" lon="5.69933">
        <ele>281</ele>
        <time>2015-08-23T06:58:32.000Z</time>
      </trkpt>
      <trkpt lat="45.18018" lon="5.69919">
        <ele>280</ele>
        <time>2015-08-23T06:58:34.000Z</time>
      </trkpt>
      <trkpt lat="45.18019" lon="5.69904">
        <ele>279</ele>
        <time>2015-08-23T06:58:38.000Z</time>
      </trkpt>
      <trkpt lat="45.18021" lon="5.69888">
        <ele>278</ele>
        <time>2015-08-23T06:58:42.000Z</time>
      </trkpt>
      <trkpt lat="45.18021" lon="5.69873">
        <ele>277</ele>
        <time>2015-08-23T06:58:46.000Z</time>
      </trkpt>
      <trkpt lat="45.18024" lon="5.69858">
        <ele>274</ele>
        <time>2015-08-23T06:58:50.000Z</time>
      </trkpt>
      <trkpt lat="45.18023" lon="5.69843">
        <ele>274</ele>
        <time>2015-08-23T06:58:54.000Z</time>
      </trkpt>
      <trkpt lat="45.18023" lon="5.69843">
        <ele>274</ele>
        <time>2015-08-23T06:58:56.000Z</time>
      </trkpt>
      <trkpt lat="45.18023" lon="5.69843">
        <ele>274</ele>
        <time>2015-08-23T06:58:58.000Z</time>
      </trkpt>
      <trkpt lat="45.18023" lon="5.69843">
        <ele>274</ele>
        <time>2015-08-23T06:59:00.000Z</time>
      </trkpt>
      <trkpt lat="45.18031" lon="5.69788">
        <ele>269</ele>
        <time>2015-08-23T06:59:10.000Z</time>
      </trkpt>
      <trkpt lat="45.18031" lon="5.69788">
        <ele>269</ele>
        <time>2015-08-23T06:59:12.000Z</time>
      </trkpt>
      <trkpt lat="45.18031" lon="5.69788">
        <ele>269</ele>
        <time>2015-08-23T06:59:14.000Z</time>
      </trkpt>
      <trkpt lat="45.18031" lon="5.69788">
        <ele>269</ele>
        <time>2015-08-23T06:59:16.000Z</time>
      </trkpt>
      <trkpt lat="45.18034" lon="5.6978">
        <ele>271</ele>
        <time>2015-08-23T06:59:52.000Z</time>
      </trkpt>
      <trkpt lat="45.18036" lon="5.69773">
        <ele>272</ele>
        <time>2015-08-23T06:59:56.000Z</time>
      </trkpt>
      <trkpt lat="45.18038" lon="5.69766">
        <ele>273</ele>
        <time>2015-08-23T07:00:01.000Z</time>
      </trkpt>
      <trkpt lat="45.18039" lon="5.69758">
        <ele>272</ele>
        <time>2015-08-23T07:00:04.000Z</time>
      </trkpt>
      <trkpt lat="45.1804" lon="5.69752">
        <ele>272</ele>
        <time>2015-08-23T07:00:06.000Z</time>
      </trkpt>
      <trkpt lat="45.18042" lon="5.69744">
        <ele>274</ele>
        <time>2015-08-23T07:00:10.000Z</time>
      </trkpt>
      <trkpt lat="45.18044" lon="5.69737">
        <ele>274</ele>
        <time>2015-08-23T07:00:14.000Z</time>
      </trkpt>
      <trkpt lat="45.18044" lon="5.69737">
        <ele>274</ele>
        <time>2015-08-23T07:00:16.000Z</time>
      </trkpt>
      <trkpt lat="45.18044" lon="5.69737">
        <ele>274</ele>
        <time>2015-08-23T07:00:18.000Z</time>
      </trkpt>
      <trkpt lat="45.18044" lon="5.69737">
        <ele>274</ele>
        <time>2015-08-23T07:00:24.000Z</time>
      </trkpt>
      <trkpt lat="45.18044" lon="5.69737">
        <ele>274</ele>
        <time>2015-08-23T07:00:26.000Z</time>
      </trkpt>
      <trkpt lat="45.18044" lon="5.69737">
        <ele>274</ele>
        <time>2015-08-23T07:00:28.000Z</time>
      </trkpt>
      <trkpt lat="45.18044" lon="5.69737">
        <ele>274</ele>
        <time>2015-08-23T07:00:30.000Z</time>
      </trkpt>
      <trkpt lat="45.18043" lon="5.69719">
        <ele>271</ele>
        <time>2015-08-23T07:00:56.000Z</time>
      </trkpt>
      <trkpt lat="45.1804" lon="5.69708">
        <ele>271</ele>
        <time>2015-08-23T07:00:58.000Z</time>
      </trkpt>
      <trkpt lat="45.18036" lon="5.69701">
        <ele>272</ele>
        <time>2015-08-23T07:01:01.000Z</time>
      </trkpt>
      <trkpt lat="45.18031" lon="5.69696">
        <ele>271</ele>
        <time>2015-08-23T07:01:02.000Z</time>
      </trkpt>
      <trkpt lat="45.18026" lon="5.69693">
        <ele>272</ele>
        <time>2015-08-23T07:01:04.000Z</time>
      </trkpt>
      <trkpt lat="45.18016" lon="5.6969">
        <ele>272</ele>
        <time>2015-08-23T07:01:06.000Z</time>
      </trkpt>
      <trkpt lat="45.18016" lon="5.6969">
        <ele>272</ele>
        <time>2015-08-23T07:01:08.000Z</time>
      </trkpt>
      <trkpt lat="45.18016" lon="5.6969">
        <ele>272</ele>
        <time>2015-08-23T07:01:10.000Z</time>
      </trkpt>
      <trkpt lat="45.18016" lon="5.6969">
        <ele>272</ele>
        <time>2015-08-23T07:01:12.000Z</time>
      </trkpt>
      <trkpt lat="45.18011" lon="5.69652">
        <ele>275</ele>
        <time>2015-08-23T07:01:18.000Z</time>
      </trkpt>
      <trkpt lat="45.18009" lon="5.69638">
        <ele>273</ele>
        <time>2015-08-23T07:01:22.000Z</time>
      </trkpt>
      <trkpt lat="45.18009" lon="5.69625">
        <ele>272</ele>
        <time>2015-08-23T07:01:26.000Z</time>
      </trkpt>
      <trkpt lat="45.18008" lon="5.6961">
        <ele>274</ele>
        <time>2015-08-23T07:01:30.000Z</time>
      </trkpt>
      <trkpt lat="45.18008" lon="5.69594">
        <ele>276</ele>
        <time>2015-08-23T07:01:34.000Z</time>
      </trkpt>
      <trkpt lat="45.18008" lon="5.69594">
        <ele>276</ele>
        <time>2015-08-23T07:01:36.000Z</time>
      </trkpt>
      <trkpt lat="45.18008" lon="5.69578">
        <ele>274</ele>
        <time>2015-08-23T07:01:38.000Z</time>
      </trkpt>
      <trkpt lat="45.18008" lon="5.69578">
        <ele>274</ele>
        <time>2015-08-23T07:01:44.000Z</time>
      </trkpt>
      <trkpt lat="45.18008" lon="5.69578">
        <ele>274</ele>
        <time>2015-08-23T07:01:46.000Z</time>
      </trkpt>
      <trkpt lat="45.18007" lon="5.69536">
        <ele>273</ele>
        <time>2015-08-23T07:01:50.000Z</time>
      </trkpt>
      <trkpt lat="45.18007" lon="5.69521">
        <ele>271</ele>
        <time>2015-08-23T07:01:54.000Z</time>
      </trkpt>
      <trkpt lat="45.18007" lon="5.69521">
        <ele>271</ele>
        <time>2015-08-23T07:01:56.000Z</time>
      </trkpt>
      <trkpt lat="45.18007" lon="5.69521">
        <ele>271</ele>
        <time>2015-08-23T07:01:58.000Z</time>
      </trkpt>
      <trkpt lat="45.1801" lon="5.69466">
        <ele>268</ele>
        <time>2015-08-23T07:02:08.000Z</time>
      </trkpt>
      <trkpt lat="45.18009" lon="5.69448">
        <ele>266</ele>
        <time>2015-08-23T07:02:14.000Z</time>
      </trkpt>
      <trkpt lat="45.1801" lon="5.69434">
        <ele>267</ele>
        <time>2015-08-23T07:02:17.000Z</time>
      </trkpt>
      <trkpt lat="45.1801" lon="5.6942">
        <ele>268</ele>
        <time>2015-08-23T07:02:21.000Z</time>
      </trkpt>
      <trkpt lat="45.1801" lon="5.6942">
        <ele>268</ele>
        <time>2015-08-23T07:02:25.000Z</time>
      </trkpt>
      <trkpt lat="45.1801" lon="5.6942">
        <ele>268</ele>
        <time>2015-08-23T07:02:27.000Z</time>
      </trkpt>
      <trkpt lat="45.1801" lon="5.6942">
        <ele>268</ele>
        <time>2015-08-23T07:02:29.000Z</time>
      </trkpt>
      <trkpt lat="45.1801" lon="5.6942">
        <ele>268</ele>
        <time>2015-08-23T07:02:31.000Z</time>
      </trkpt>
      <trkpt lat="45.17997" lon="5.69412">
        <ele>271</ele>
        <time>2015-08-23T07:02:35.000Z</time>
      </trkpt>
      <trkpt lat="45.17987" lon="5.69407">
        <ele>271</ele>
        <time>2015-08-23T07:02:37.000Z</time>
      </trkpt>
      <trkpt lat="45.17981" lon="5.69404">
        <ele>273</ele>
        <time>2015-08-23T07:02:39.000Z</time>
      </trkpt>
      <trkpt lat="45.17975" lon="5.69402">
        <ele>272</ele>
        <time>2015-08-23T07:02:41.000Z</time>
      </trkpt>
      <trkpt lat="45.1797" lon="5.69399">
        <ele>273</ele>
        <time>2015-08-23T07:02:43.000Z</time>
      </trkpt>
      <trkpt lat="45.17962" lon="5.6939">
        <ele>273</ele>
        <time>2015-08-23T07:02:45.000Z</time>
      </trkpt>
      <trkpt lat="45.17957" lon="5.69378">
        <ele>274</ele>
        <time>2015-08-23T07:02:49.000Z</time>
      </trkpt>
      <trkpt lat="45.17951" lon="5.69366">
        <ele>274</ele>
        <time>2015-08-23T07:02:53.000Z</time>
      </trkpt>
      <trkpt lat="45.17951" lon="5.69366">
        <ele>274</ele>
        <time>2015-08-23T07:02:55.000Z</time>
      </trkpt>
      <trkpt lat="45.17944" lon="5.69358">
        <ele>272</ele>
        <time>2015-08-23T07:02:57.000Z</time>
      </trkpt>
      <trkpt lat="45.17934" lon="5.69355">
        <ele>276</ele>
        <time>2015-08-23T07:03:01.000Z</time>
      </trkpt>
      <trkpt lat="45.17934" lon="5.69355">
        <ele>276</ele>
        <time>2015-08-23T07:03:03.000Z</time>
      </trkpt>
      <trkpt lat="45.17934" lon="5.69355">
        <ele>276</ele>
        <time>2015-08-23T07:03:05.000Z</time>
      </trkpt>
      <trkpt lat="45.17934" lon="5.69355">
        <ele>276</ele>
        <time>2015-08-23T07:03:07.000Z</time>
      </trkpt>
      <trkpt lat="45.17934" lon="5.69355">
        <ele>276</ele>
        <time>2015-08-23T07:03:17.000Z</time>
      </trkpt>
      <trkpt lat="45.17934" lon="5.69355">
        <ele>276</ele>
        <time>2015-08-23T07:03:21.000Z</time>
      </trkpt>
      <trkpt lat="45.17934" lon="5.69355">
        <ele>276</ele>
        <time>2015-08-23T07:03:23.000Z</time>
      </trkpt>
      <trkpt lat="45.17934" lon="5.69355">
        <ele>276</ele>
        <time>2015-08-23T07:03:25.000Z</time>
      </trkpt>
      <trkpt lat="45.17889" lon="5.69303">
        <ele>279</ele>
        <time>2015-08-23T07:03:29.000Z</time>
      </trkpt>
      <trkpt lat="45.17885" lon="5.69288">
        <ele>280</ele>
        <time>2015-08-23T07:03:33.000Z</time>
      </trkpt>
      <trkpt lat="45.17878" lon="5.69273">
        <ele>283</ele>
        <time>2015-08-23T07:03:39.000Z</time>
      </trkpt>
      <trkpt lat="45.17878" lon="5.69273">
        <ele>283</ele>
        <time>2015-08-23T07:03:41.000Z</time>
      </trkpt>
      <trkpt lat="45.17878" lon="5.69273">
        <ele>283</ele>
        <time>2015-08-23T07:03:43.000Z</time>
      </trkpt>
      <trkpt lat="45.17878" lon="5.69273">
        <ele>283</ele>
        <time>2015-08-23T07:03:45.000Z</time>
      </trkpt>
      <trkpt lat="45.17878" lon="5.69273">
        <ele>283</ele>
        <time>2015-08-23T07:03:47.000Z</time>
      </trkpt>
      <trkpt lat="45.17858" lon="5.69233">
        <ele>280</ele>
        <time>2015-08-23T07:03:53.000Z</time>
      </trkpt>
      <trkpt lat="45.17858" lon="5.69233">
        <ele>280</ele>
        <time>2015-08-23T07:03:55.000Z</time>
      </trkpt>
      <trkpt lat="45.17858" lon="5.69233">
        <ele>280</ele>
        <time>2015-08-23T07:03:57.000Z</time>
      </trkpt>
      <trkpt lat="45.17847" lon="5.69209">
        <ele>280</ele>
        <time>2015-08-23T07:04:01.000Z</time>
      </trkpt>
      <trkpt lat="45.17843" lon="5.69202">
        <ele>279</ele>
        <time>2015-08-23T07:04:05.000Z</time>
      </trkpt>
      <trkpt lat="45.1784" lon="5.69196">
        <ele>278</ele>
        <time>2015-08-23T07:04:07.000Z</time>
      </trkpt>
      <trkpt lat="45.17836" lon="5.69189">
        <ele>279</ele>
        <time>2015-08-23T07:04:09.000Z</time>
      </trkpt>
      <trkpt lat="45.17833" lon="5.69183">
        <ele>280</ele>
        <time>2015-08-23T07:04:11.000Z</time>
      </trkpt>
      <trkpt lat="45.1783" lon="5.69176">
        <ele>279</ele>
        <time>2015-08-23T07:04:13.000Z</time>
      </trkpt>
      <trkpt lat="45.17824" lon="5.69162">
        <ele>279</ele>
        <time>2015-08-23T07:04:15.000Z</time>
      </trkpt>
      <trkpt lat="45.1782" lon="5.69148">
        <ele>279</ele>
        <time>2015-08-23T07:04:19.000Z</time>
      </trkpt>
      <trkpt lat="45.17816" lon="5.69136">
        <ele>281</ele>
        <time>2015-08-23T07:04:23.000Z</time>
      </trkpt>
      <trkpt lat="45.1781" lon="5.69121">
        <ele>276</ele>
        <time>2015-08-23T07:04:27.000Z</time>
      </trkpt>
      <trkpt lat="45.17805" lon="5.69107">
        <ele>276</ele>
        <time>2015-08-23T07:04:31.000Z</time>
      </trkpt>
      <trkpt lat="45.17797" lon="5.69096">
        <ele>275</ele>
        <time>2015-08-23T07:04:35.000Z</time>
      </trkpt>
      <trkpt lat="45.1779" lon="5.69087">
        <ele>274</ele>
        <time>2015-08-23T07:04:39.000Z</time>
      </trkpt>
      <trkpt lat="45.17783" lon="5.69078">
        <ele>274</ele>
        <time>2015-08-23T07:04:43.000Z</time>
      </trkpt>
      <trkpt lat="45.17775" lon="5.69068">
        <ele>273</ele>
        <time>2015-08-23T07:04:47.000Z</time>
      </trkpt>
      <trkpt lat="45.17765" lon="5.69068">
        <ele>271</ele>
        <time>2015-08-23T07:04:51.000Z</time>
      </trkpt>
      <trkpt lat="45.17756" lon="5.69075">
        <ele>273</ele>
        <time>2015-08-23T07:04:55.000Z</time>
      </trkpt>
      <trkpt lat="45.17756" lon="5.69075">
        <ele>273</ele>
        <time>2015-08-23T07:04:57.000Z</time>
      </trkpt>
      <trkpt lat="45.17756" lon="5.69075">
        <ele>273</ele>
        <time>2015-08-23T07:04:59.000Z</time>
      </trkpt>
      <trkpt lat="45.17756" lon="5.69075">
        <ele>273</ele>
        <time>2015-08-23T07:05:01.000Z</time>
      </trkpt>
      <trkpt lat="45.17756" lon="5.69075">
        <ele>273</ele>
        <time>2015-08-23T07:05:03.000Z</time>
      </trkpt>
      <trkpt lat="45.17756" lon="5.69075">
        <ele>273</ele>
        <time>2015-08-23T07:05:05.000Z</time>
      </trkpt>
      <trkpt lat="45.17739" lon="5.69042">
        <ele>278</ele>
        <time>2015-08-23T07:05:11.000Z</time>
      </trkpt>
      <trkpt lat="45.17733" lon="5.69024">
        <ele>278</ele>
        <time>2015-08-23T07:05:17.000Z</time>
      </trkpt>
      <trkpt lat="45.17729" lon="5.6901">
        <ele>279</ele>
        <time>2015-08-23T07:05:21.000Z</time>
      </trkpt>
      <trkpt lat="45.17717" lon="5.69001">
        <ele>275</ele>
        <time>2015-08-23T07:05:27.000Z</time>
      </trkpt>
      <trkpt lat="45.17705" lon="5.69006">
        <ele>274</ele>
        <time>2015-08-23T07:05:33.000Z</time>
      </trkpt>
      <trkpt lat="45.17697" lon="5.69011">
        <ele>275</ele>
        <time>2015-08-23T07:05:37.000Z</time>
      </trkpt>
      <trkpt lat="45.17688" lon="5.69018">
        <ele>275</ele>
        <time>2015-08-23T07:05:41.000Z</time>
      </trkpt>
      <trkpt lat="45.17678" lon="5.69025">
        <ele>273</ele>
        <time>2015-08-23T07:05:45.000Z</time>
      </trkpt>
      <trkpt lat="45.17667" lon="5.69033">
        <ele>273</ele>
        <time>2015-08-23T07:05:49.000Z</time>
      </trkpt>
      <trkpt lat="45.17657" lon="5.69043">
        <ele>273</ele>
        <time>2015-08-23T07:05:53.000Z</time>
      </trkpt>
      <trkpt lat="45.17652" lon="5.69048">
        <ele>273</ele>
        <time>2015-08-23T07:05:57.000Z</time>
      </trkpt>
      <trkpt lat="45.17652" lon="5.69048">
        <ele>273</ele>
        <time>2015-08-23T07:05:59.000Z</time>
      </trkpt>
      <trkpt lat="45.17652" lon="5.69048">
        <ele>273</ele>
        <time>2015-08-23T07:06:05.000Z</time>
      </trkpt>
      <trkpt lat="45.17652" lon="5.69048">
        <ele>273</ele>
        <time>2015-08-23T07:06:07.000Z</time>
      </trkpt>
      <trkpt lat="45.17652" lon="5.69048">
        <ele>273</ele>
        <time>2015-08-23T07:06:09.000Z</time>
      </trkpt>
      <trkpt lat="45.17652" lon="5.69048">
        <ele>273</ele>
        <time>2015-08-23T07:06:11.000Z</time>
      </trkpt>
      <trkpt lat="45.17652" lon="5.69048">
        <ele>273</ele>
        <time>2015-08-23T07:06:13.000Z</time>
      </trkpt>
      <trkpt lat="45.17629" lon="5.69056">
        <ele>271</ele>
        <time>2015-08-23T07:06:19.000Z</time>
      </trkpt>
      <trkpt lat="45.17615" lon="5.6906">
        <ele>272</ele>
        <time>2015-08-23T07:06:21.000Z</time>
      </trkpt>
      <trkpt lat="45.17606" lon="5.69062">
        <ele>271</ele>
        <time>2015-08-23T07:06:23.000Z</time>
      </trkpt>
      <trkpt lat="45.17599" lon="5.69063">
        <ele>273</ele>
        <time>2015-08-23T07:06:25.000Z</time>
      </trkpt>
      <trkpt lat="45.17593" lon="5.69065">
        <ele>273</ele>
        <time>2015-08-23T07:06:27.000Z</time>
      </trkpt>
      <trkpt lat="45.17583" lon="5.69068">
        <ele>275</ele>
        <time>2015-08-23T07:06:29.000Z</time>
      </trkpt>
      <trkpt lat="45.17574" lon="5.69072">
        <ele>274</ele>
        <time>2015-08-23T07:06:33.000Z</time>
      </trkpt>
      <trkpt lat="45.17567" lon="5.69079">
        <ele>272</ele>
        <time>2015-08-23T07:06:37.000Z</time>
      </trkpt>
      <trkpt lat="45.17558" lon="5.69087">
        <ele>270</ele>
        <time>2015-08-23T07:06:41.000Z</time>
      </trkpt>
      <trkpt lat="45.17548" lon="5.69094">
        <ele>273</ele>
        <time>2015-08-23T07:06:45.000Z</time>
      </trkpt>
      <trkpt lat="45.17537" lon="5.69095">
        <ele>273</ele>
        <time>2015-08-23T07:06:49.000Z</time>
      </trkpt>
      <trkpt lat="45.17526" lon="5.69087">
        <ele>275</ele>
        <time>2015-08-23T07:06:55.000Z</time>
      </trkpt>
      <trkpt lat="45.17526" lon="5.69087">
        <ele>275</ele>
        <time>2015-08-23T07:06:57.000Z</time>
      </trkpt>
      <trkpt lat="45.17526" lon="5.69087">
        <ele>275</ele>
        <time>2015-08-23T07:06:59.000Z</time>
      </trkpt>
      <trkpt lat="45.17493" lon="5.69077">
        <ele>276</ele>
        <time>2015-08-23T07:07:09.000Z</time>
      </trkpt>
      <trkpt lat="45.17493" lon="5.69077">
        <ele>276</ele>
        <time>2015-08-23T07:07:15.000Z</time>
      </trkpt>
      <trkpt lat="45.17493" lon="5.69077">
        <ele>276</ele>
        <time>2015-08-23T07:07:17.000Z</time>
      </trkpt>
      <trkpt lat="45.17493" lon="5.69077">
        <ele>276</ele>
        <time>2015-08-23T07:07:19.000Z</time>
      </trkpt>
      <trkpt lat="45.17493" lon="5.69077">
        <ele>276</ele>
        <time>2015-08-23T07:07:21.000Z</time>
      </trkpt>
      <trkpt lat="45.17493" lon="5.69077">
        <ele>276</ele>
        <time>2015-08-23T07:07:23.000Z</time>
      </trkpt>
      <trkpt lat="45.17493" lon="5.69077">
        <ele>276</ele>
        <time>2015-08-23T07:07:25.000Z</time>
      </trkpt>
      <trkpt lat="45.17493" lon="5.69077">
        <ele>276</ele>
        <time>2015-08-23T07:07:27.000Z</time>
      </trkpt>
      <trkpt lat="45.17451" lon="5.6908">
        <ele>275</ele>
        <time>2015-08-23T07:07:31.000Z</time>
      </trkpt>
      <trkpt lat="45.17442" lon="5.6908">
        <ele>275</ele>
        <time>2015-08-23T07:07:35.000Z</time>
      </trkpt>
      <trkpt lat="45.17442" lon="5.6908">
        <ele>275</ele>
        <time>2015-08-23T07:07:37.000Z</time>
      </trkpt>
      <trkpt lat="45.17442" lon="5.6908">
        <ele>275</ele>
        <time>2015-08-23T07:07:39.000Z</time>
      </trkpt>
      <trkpt lat="45.17423" lon="5.69075">
        <ele>276</ele>
        <time>2015-08-23T07:07:43.000Z</time>
      </trkpt>
      <trkpt lat="45.17413" lon="5.69068">
        <ele>280</ele>
        <time>2015-08-23T07:07:47.000Z</time>
      </trkpt>
      <trkpt lat="45.17402" lon="5.69065">
        <ele>282</ele>
        <time>2015-08-23T07:07:51.000Z</time>
      </trkpt>
      <trkpt lat="45.17396" lon="5.69065">
        <ele>281</ele>
        <time>2015-08-23T07:07:55.000Z</time>
      </trkpt>
      <trkpt lat="45.1739" lon="5.69066">
        <ele>280</ele>
        <time>2015-08-23T07:07:57.000Z</time>
      </trkpt>
      <trkpt lat="45.17385" lon="5.69066">
        <ele>279</ele>
        <time>2015-08-23T07:07:59.000Z</time>
      </trkpt>
      <trkpt lat="45.17385" lon="5.69066">
        <ele>279</ele>
        <time>2015-08-23T07:08:01.000Z</time>
      </trkpt>
      <trkpt lat="45.17385" lon="5.69066">
        <ele>279</ele>
        <time>2015-08-23T07:08:03.000Z</time>
      </trkpt>
      <trkpt lat="45.17385" lon="5.69066">
        <ele>279</ele>
        <time>2015-08-23T07:08:05.000Z</time>
      </trkpt>
      <trkpt lat="45.17385" lon="5.69066">
        <ele>279</ele>
        <time>2015-08-23T07:08:07.000Z</time>
      </trkpt>
      <trkpt lat="45.17385" lon="5.69066">
        <ele>279</ele>
        <time>2015-08-23T07:08:09.000Z</time>
      </trkpt>
      <trkpt lat="45.17385" lon="5.69066">
        <ele>279</ele>
        <time>2015-08-23T07:08:11.000Z</time>
      </trkpt>
      <trkpt lat="45.17385" lon="5.69066">
        <ele>279</ele>
        <time>2015-08-23T07:08:13.000Z</time>
      </trkpt>
      <trkpt lat="45.17385" lon="5.69066">
        <ele>279</ele>
        <time>2015-08-23T07:08:22.000Z</time>
      </trkpt>
      <trkpt lat="45.17385" lon="5.69066">
        <ele>279</ele>
        <time>2015-08-23T07:08:24.000Z</time>
      </trkpt>
      <trkpt lat="45.17385" lon="5.69066">
        <ele>279</ele>
        <time>2015-08-23T07:08:26.000Z</time>
      </trkpt>
      <trkpt lat="45.17355" lon="5.69051">
        <ele>282</ele>
        <time>2015-08-23T07:08:30.000Z</time>
      </trkpt>
      <trkpt lat="45.17338" lon="5.69042">
        <ele>279</ele>
        <time>2015-08-23T07:08:32.000Z</time>
      </trkpt>
      <trkpt lat="45.17327" lon="5.69037">
        <ele>280</ele>
        <time>2015-08-23T07:08:34.000Z</time>
      </trkpt>
      <trkpt lat="45.1732" lon="5.69033">
        <ele>279</ele>
        <time>2015-08-23T07:08:36.000Z</time>
      </trkpt>
      <trkpt lat="45.1732" lon="5.69033">
        <ele>279</ele>
        <time>2015-08-23T07:08:38.000Z</time>
      </trkpt>
      <trkpt lat="45.1732" lon="5.69033">
        <ele>279</ele>
        <time>2015-08-23T07:08:40.000Z</time>
      </trkpt>
      <trkpt lat="45.1732" lon="5.69033">
        <ele>279</ele>
        <time>2015-08-23T07:08:42.000Z</time>
      </trkpt>
      <trkpt lat="45.17305" lon="5.69025">
        <ele>278</ele>
        <time>2015-08-23T07:08:47.000Z</time>
      </trkpt>
      <trkpt lat="45.17296" lon="5.69019">
        <ele>279</ele>
        <time>2015-08-23T07:08:49.000Z</time>
      </trkpt>
      <trkpt lat="45.17289" lon="5.69015">
        <ele>277</ele>
        <time>2015-08-23T07:08:51.000Z</time>
      </trkpt>
      <trkpt lat="45.17284" lon="5.69012">
        <ele>278</ele>
        <time>2015-08-23T07:08:53.000Z</time>
      </trkpt>
      <trkpt lat="45.17278" lon="5.69009">
        <ele>280</ele>
        <time>2015-08-23T07:08:55.000Z</time>
      </trkpt>
      <trkpt lat="45.17269" lon="5.69003">
        <ele>279</ele>
        <time>2015-08-23T07:08:57.000Z</time>
      </trkpt>
      <trkpt lat="45.17256" lon="5.68994">
        <ele>277</ele>
        <time>2015-08-23T07:09:03.000Z</time>
      </trkpt>
      <trkpt lat="45.17256" lon="5.68994">
        <ele>277</ele>
        <time>2015-08-23T07:09:05.000Z</time>
      </trkpt>
      <trkpt lat="45.17256" lon="5.68994">
        <ele>277</ele>
        <time>2015-08-23T07:09:07.000Z</time>
      </trkpt>
      <trkpt lat="45.17256" lon="5.68994">
        <ele>277</ele>
        <time>2015-08-23T07:09:09.000Z</time>
      </trkpt>
      <trkpt lat="45.17256" lon="5.68994">
        <ele>277</ele>
        <time>2015-08-23T07:09:11.000Z</time>
      </trkpt>
      <trkpt lat="45.1723" lon="5.68978">
        <ele>276</ele>
        <time>2015-08-23T07:09:15.000Z</time>
      </trkpt>
      <trkpt lat="45.17218" lon="5.68977">
        <ele>278</ele>
        <time>2015-08-23T07:09:19.000Z</time>
      </trkpt>
      <trkpt lat="45.17208" lon="5.68972">
        <ele>280</ele>
        <time>2015-08-23T07:09:23.000Z</time>
      </trkpt>
      <trkpt lat="45.17198" lon="5.6897">
        <ele>281</ele>
        <time>2015-08-23T07:09:27.000Z</time>
      </trkpt>
      <trkpt lat="45.17198" lon="5.6897">
        <ele>281</ele>
        <time>2015-08-23T07:09:31.000Z</time>
      </trkpt>
      <trkpt lat="45.17198" lon="5.6897">
        <ele>281</ele>
        <time>2015-08-23T07:09:33.000Z</time>
      </trkpt>
      <trkpt lat="45.17198" lon="5.6897">
        <ele>281</ele>
        <time>2015-08-23T07:09:35.000Z</time>
      </trkpt>
      <trkpt lat="45.17178" lon="5.68959">
        <ele>280</ele>
        <time>2015-08-23T07:09:39.000Z</time>
      </trkpt>
      <trkpt lat="45.1717" lon="5.68954">
        <ele>283</ele>
        <time>2015-08-23T07:09:43.000Z</time>
      </trkpt>
      <trkpt lat="45.1716" lon="5.68951">
        <ele>287</ele>
        <time>2015-08-23T07:09:49.000Z</time>
      </trkpt>
      <trkpt lat="45.1716" lon="5.68951">
        <ele>287</ele>
        <time>2015-08-23T07:09:55.000Z</time>
      </trkpt>
      <trkpt lat="45.1716" lon="5.68951">
        <ele>287</ele>
        <time>2015-08-23T07:09:57.000Z</time>
      </trkpt>
      <trkpt lat="45.1716" lon="5.68951">
        <ele>287</ele>
        <time>2015-08-23T07:09:59.000Z</time>
      </trkpt>
      <trkpt lat="45.1716" lon="5.68951">
        <ele>287</ele>
        <time>2015-08-23T07:10:01.000Z</time>
      </trkpt>
      <trkpt lat="45.1713" lon="5.68934">
        <ele>278</ele>
        <time>2015-08-23T07:10:07.000Z</time>
      </trkpt>
      <trkpt lat="45.17122" lon="5.68925">
        <ele>280</ele>
        <time>2015-08-23T07:10:11.000Z</time>
      </trkpt>
      <trkpt lat="45.17114" lon="5.68917">
        <ele>280</ele>
        <time>2015-08-23T07:10:15.000Z</time>
      </trkpt>
      <trkpt lat="45.17104" lon="5.68909">
        <ele>282</ele>
        <time>2015-08-23T07:10:19.000Z</time>
      </trkpt>
      <trkpt lat="45.17098" lon="5.68904">
        <ele>284</ele>
        <time>2015-08-23T07:10:23.000Z</time>
      </trkpt>
      <trkpt lat="45.17094" lon="5.689">
        <ele>285</ele>
        <time>2015-08-23T07:10:25.000Z</time>
      </trkpt>
      <trkpt lat="45.1709" lon="5.68896">
        <ele>285</ele>
        <time>2015-08-23T07:10:27.000Z</time>
      </trkpt>
      <trkpt lat="45.1709" lon="5.68896">
        <ele>285</ele>
        <time>2015-08-23T07:10:29.000Z</time>
      </trkpt>
      <trkpt lat="45.1709" lon="5.68896">
        <ele>285</ele>
        <time>2015-08-23T07:10:31.000Z</time>
      </trkpt>
      <trkpt lat="45.1709" lon="5.68896">
        <ele>285</ele>
        <time>2015-08-23T07:10:39.000Z</time>
      </trkpt>
      <trkpt lat="45.1709" lon="5.68896">
        <ele>285</ele>
        <time>2015-08-23T07:10:41.000Z</time>
      </trkpt>
      <trkpt lat="45.1709" lon="5.68896">
        <ele>285</ele>
        <time>2015-08-23T07:10:43.000Z</time>
      </trkpt>
      <trkpt lat="45.17071" lon="5.6888">
        <ele>294</ele>
        <time>2015-08-23T07:10:47.000Z</time>
      </trkpt>
      <trkpt lat="45.17061" lon="5.68869">
        <ele>294</ele>
        <time>2015-08-23T07:10:49.000Z</time>
      </trkpt>
      <trkpt lat="45.17056" lon="5.68861">
        <ele>294</ele>
        <time>2015-08-23T07:10:51.000Z</time>
      </trkpt>
      <trkpt lat="45.17056" lon="5.68861">
        <ele>294</ele>
        <time>2015-08-23T07:10:53.000Z</time>
      </trkpt>
      <trkpt lat="45.17056" lon="5.68861">
        <ele>294</ele>
        <time>2015-08-23T07:10:55.000Z</time>
      </trkpt>
      <trkpt lat="45.17056" lon="5.68861">
        <ele>294</ele>
        <time>2015-08-23T07:10:57.000Z</time>
      </trkpt>
      <trkpt lat="45.17056" lon="5.68861">
        <ele>294</ele>
        <time>2015-08-23T07:10:59.000Z</time>
      </trkpt>
      <trkpt lat="45.17056" lon="5.68861">
        <ele>294</ele>
        <time>2015-08-23T07:11:01.000Z</time>
      </trkpt>
      <trkpt lat="45.17043" lon="5.68843">
        <ele>280</ele>
        <time>2015-08-23T07:11:07.000Z</time>
      </trkpt>
      <trkpt lat="45.17035" lon="5.68837">
        <ele>281</ele>
        <time>2015-08-23T07:11:09.000Z</time>
      </trkpt>
      <trkpt lat="45.17028" lon="5.68835">
        <ele>280</ele>
        <time>2015-08-23T07:11:11.000Z</time>
      </trkpt>
      <trkpt lat="45.17023" lon="5.68836">
        <ele>281</ele>
        <time>2015-08-23T07:11:13.000Z</time>
      </trkpt>
      <trkpt lat="45.17017" lon="5.68836">
        <ele>281</ele>
        <time>2015-08-23T07:11:15.000Z</time>
      </trkpt>
      <trkpt lat="45.17007" lon="5.68838">
        <ele>284</ele>
        <time>2015-08-23T07:11:17.000Z</time>
      </trkpt>
      <trkpt lat="45.17007" lon="5.68838">
        <ele>284</ele>
        <time>2015-08-23T07:11:19.000Z</time>
      </trkpt>
      <trkpt lat="45.17007" lon="5.68838">
        <ele>284</ele>
        <time>2015-08-23T07:11:23.000Z</time>
      </trkpt>
      <trkpt lat="45.17007" lon="5.68838">
        <ele>284</ele>
        <time>2015-08-23T07:11:25.000Z</time>
      </trkpt>
      <trkpt lat="45.16994" lon="5.68838">
        <ele>286</ele>
        <time>2015-08-23T07:11:29.000Z</time>
      </trkpt>
      <trkpt lat="45.16983" lon="5.68839">
        <ele>289</ele>
        <time>2015-08-23T07:11:35.000Z</time>
      </trkpt>
      <trkpt lat="45.16976" lon="5.68848">
        <ele>290</ele>
        <time>2015-08-23T07:11:39.000Z</time>
      </trkpt>
      <trkpt lat="45.1697" lon="5.68857">
        <ele>290</ele>
        <time>2015-08-23T07:11:43.000Z</time>
      </trkpt>
      <trkpt lat="45.16963" lon="5.68865">
        <ele>292</ele>
        <time>2015-08-23T07:11:47.000Z</time>
      </trkpt>
      <trkpt lat="45.16955" lon="5.68874">
        <ele>292</ele>
        <time>2015-08-23T07:11:51.000Z</time>
      </trkpt>
      <trkpt lat="45.16947" lon="5.68882">
        <ele>292</ele>
        <time>2015-08-23T07:11:55.000Z</time>
      </trkpt>
      <trkpt lat="45.1694" lon="5.68892">
        <ele>293</ele>
        <time>2015-08-23T07:11:59.000Z</time>
      </trkpt>
      <trkpt lat="45.1694" lon="5.68892">
        <ele>293</ele>
        <time>2015-08-23T07:12:01.000Z</time>
      </trkpt>
      <trkpt lat="45.1694" lon="5.68892">
        <ele>293</ele>
        <time>2015-08-23T07:12:03.000Z</time>
      </trkpt>
      <trkpt lat="45.1694" lon="5.68892">
        <ele>293</ele>
        <time>2015-08-23T07:12:05.000Z</time>
      </trkpt>
      <trkpt lat="45.16909" lon="5.68926">
        <ele>288</ele>
        <time>2015-08-23T07:12:15.000Z</time>
      </trkpt>
      <trkpt lat="45.16899" lon="5.68938">
        <ele>289</ele>
        <time>2015-08-23T07:12:21.000Z</time>
      </trkpt>
      <trkpt lat="45.16893" lon="5.68947">
        <ele>289</ele>
        <time>2015-08-23T07:12:25.000Z</time>
      </trkpt>
      <trkpt lat="45.16885" lon="5.68955">
        <ele>290</ele>
        <time>2015-08-23T07:12:29.000Z</time>
      </trkpt>
      <trkpt lat="45.16877" lon="5.68963">
        <ele>291</ele>
        <time>2015-08-23T07:12:33.000Z</time>
      </trkpt>
      <trkpt lat="45.16868" lon="5.68971">
        <ele>290</ele>
        <time>2015-08-23T07:12:37.000Z</time>
      </trkpt>
      <trkpt lat="45.16859" lon="5.68977">
        <ele>289</ele>
        <time>2015-08-23T07:12:41.000Z</time>
      </trkpt>
      <trkpt lat="45.1685" lon="5.68986">
        <ele>286</ele>
        <time>2015-08-23T07:12:45.000Z</time>
      </trkpt>
      <trkpt lat="45.16841" lon="5.68994">
        <ele>287</ele>
        <time>2015-08-23T07:12:49.000Z</time>
      </trkpt>
      <trkpt lat="45.16841" lon="5.68994">
        <ele>287</ele>
        <time>2015-08-23T07:12:51.000Z</time>
      </trkpt>
      <trkpt lat="45.16841" lon="5.68994">
        <ele>287</ele>
        <time>2015-08-23T07:12:53.000Z</time>
      </trkpt>
      <trkpt lat="45.16841" lon="5.68994">
        <ele>287</ele>
        <time>2015-08-23T07:12:55.000Z</time>
      </trkpt>
      <trkpt lat="45.16841" lon="5.68994">
        <ele>287</ele>
        <time>2015-08-23T07:12:57.000Z</time>
      </trkpt>
      <trkpt lat="45.16841" lon="5.68994">
        <ele>287</ele>
        <time>2015-08-23T07:12:59.000Z</time>
      </trkpt>
      <trkpt lat="45.16841" lon="5.68994">
        <ele>287</ele>
        <time>2015-08-23T07:13:01.000Z</time>
      </trkpt>
      <trkpt lat="45.16841" lon="5.68994">
        <ele>287</ele>
        <time>2015-08-23T07:13:03.000Z</time>
      </trkpt>
      <trkpt lat="45.16827" lon="5.69015">
        <ele>284</ele>
        <time>2015-08-23T07:13:07.000Z</time>
      </trkpt>
      <trkpt lat="45.16817" lon="5.69027">
        <ele>282</ele>
        <time>2015-08-23T07:13:09.000Z</time>
      </trkpt>
      <trkpt lat="45.1681" lon="5.69035">
        <ele>282</ele>
        <time>2015-08-23T07:13:11.000Z</time>
      </trkpt>
      <trkpt lat="45.16803" lon="5.6904">
        <ele>282</ele>
        <time>2015-08-23T07:13:13.000Z</time>
      </trkpt>
      <trkpt lat="45.16798" lon="5.69044">
        <ele>282</ele>
        <time>2015-08-23T07:13:15.000Z</time>
      </trkpt>
      <trkpt lat="45.16786" lon="5.69051">
        <ele>281</ele>
        <time>2015-08-23T07:13:17.000Z</time>
      </trkpt>
      <trkpt lat="45.16786" lon="5.69051">
        <ele>281</ele>
        <time>2015-08-23T07:13:19.000Z</time>
      </trkpt>
      <trkpt lat="45.16774" lon="5.69052">
        <ele>281</ele>
        <time>2015-08-23T07:13:21.000Z</time>
      </trkpt>
      <trkpt lat="45.16753" lon="5.69043">
        <ele>284</ele>
        <time>2015-08-23T07:13:29.000Z</time>
      </trkpt>
      <trkpt lat="45.16744" lon="5.69038">
        <ele>285</ele>
        <time>2015-08-23T07:13:33.000Z</time>
      </trkpt>
      <trkpt lat="45.16736" lon="5.69031">
        <ele>284</ele>
        <time>2015-08-23T07:13:37.000Z</time>
      </trkpt>
      <trkpt lat="45.16736" lon="5.69031">
        <ele>284</ele>
        <time>2015-08-23T07:13:43.000Z</time>
      </trkpt>
      <trkpt lat="45.16736" lon="5.69031">
        <ele>284</ele>
        <time>2015-08-23T07:13:45.000Z</time>
      </trkpt>
      <trkpt lat="45.16719" lon="5.69001">
        <ele>287</ele>
        <time>2015-08-23T07:13:49.000Z</time>
      </trkpt>
      <trkpt lat="45.16719" lon="5.69001">
        <ele>287</ele>
        <time>2015-08-23T07:13:53.000Z</time>
      </trkpt>
      <trkpt lat="45.16719" lon="5.69001">
        <ele>287</ele>
        <time>2015-08-23T07:13:55.000Z</time>
      </trkpt>
      <trkpt lat="45.16719" lon="5.69001">
        <ele>287</ele>
        <time>2015-08-23T07:13:57.000Z</time>
      </trkpt>
      <trkpt lat="45.16719" lon="5.69001">
        <ele>287</ele>
        <time>2015-08-23T07:13:59.000Z</time>
      </trkpt>
      <trkpt lat="45.16719" lon="5.69001">
        <ele>287</ele>
        <time>2015-08-23T07:14:01.000Z</time>
      </trkpt>
      <trkpt lat="45.16719" lon="5.69001">
        <ele>287</ele>
        <time>2015-08-23T07:14:03.000Z</time>
      </trkpt>
      <trkpt lat="45.16719" lon="5.69001">
        <ele>287</ele>
        <time>2015-08-23T07:14:05.000Z</time>
      </trkpt>
      <trkpt lat="45.16719" lon="5.69001">
        <ele>287</ele>
        <time>2015-08-23T07:14:07.000Z</time>
      </trkpt>
      <trkpt lat="45.16709" lon="5.68986">
        <ele>287</ele>
        <time>2015-08-23T07:14:47.000Z</time>
      </trkpt>
      <trkpt lat="45.16703" lon="5.68977">
        <ele>289</ele>
        <time>2015-08-23T07:14:50.000Z</time>
      </trkpt>
      <trkpt lat="45.16699" lon="5.68971">
        <ele>289</ele>
        <time>2015-08-23T07:14:51.000Z</time>
      </trkpt>
      <trkpt lat="45.16695" lon="5.68966">
        <ele>290</ele>
        <time>2015-08-23T07:14:55.000Z</time>
      </trkpt>
      <trkpt lat="45.16695" lon="5.68966">
        <ele>290</ele>
        <time>2015-08-23T07:14:59.000Z</time>
      </trkpt>
      <trkpt lat="45.16695" lon="5.68966">
        <ele>290</ele>
        <time>2015-08-23T07:15:01.000Z</time>
      </trkpt>
      <trkpt lat="45.16688" lon="5.68961">
        <ele>294</ele>
        <time>2015-08-23T07:15:05.000Z</time>
      </trkpt>
      <trkpt lat="45.16683" lon="5.68958">
        <ele>293</ele>
        <time>2015-08-23T07:15:07.000Z</time>
      </trkpt>
      <trkpt lat="45.16677" lon="5.68957">
        <ele>292</ele>
        <time>2015-08-23T07:15:11.000Z</time>
      </trkpt>
      <trkpt lat="45.16672" lon="5.68956">
        <ele>290</ele>
        <time>2015-08-23T07:15:13.000Z</time>
      </trkpt>
      <trkpt lat="45.16663" lon="5.6895">
        <ele>293</ele>
        <time>2015-08-23T07:15:21.000Z</time>
      </trkpt>
      <trkpt lat="45.16658" lon="5.68946">
        <ele>293</ele>
        <time>2015-08-23T07:15:23.000Z</time>
      </trkpt>
      <trkpt lat="45.16653" lon="5.68943">
        <ele>293</ele>
        <time>2015-08-23T07:15:25.000Z</time>
      </trkpt>
      <trkpt lat="45.16653" lon="5.68943">
        <ele>293</ele>
        <time>2015-08-23T07:15:27.000Z</time>
      </trkpt>
      <trkpt lat="45.16653" lon="5.68943">
        <ele>293</ele>
        <time>2015-08-23T07:15:29.000Z</time>
      </trkpt>
      <trkpt lat="45.16653" lon="5.68943">
        <ele>293</ele>
        <time>2015-08-23T07:15:31.000Z</time>
      </trkpt>
      <trkpt lat="45.16644" lon="5.68936">
        <ele>295</ele>
        <time>2015-08-23T07:15:35.000Z</time>
      </trkpt>
      <trkpt lat="45.16637" lon="5.68932">
        <ele>294</ele>
        <time>2015-08-23T07:15:37.000Z</time>
      </trkpt>
      <trkpt lat="45.16631" lon="5.68928">
        <ele>294</ele>
        <time>2015-08-23T07:15:39.000Z</time>
      </trkpt>
      <trkpt lat="45.16627" lon="5.68925">
        <ele>295</ele>
        <time>2015-08-23T07:15:41.000Z</time>
      </trkpt>
      <trkpt lat="45.16621" lon="5.68921">
        <ele>295</ele>
        <time>2015-08-23T07:15:45.000Z</time>
      </trkpt>
      <trkpt lat="45.16617" lon="5.68917">
        <ele>296</ele>
        <time>2015-08-23T07:15:47.000Z</time>
      </trkpt>
      <trkpt lat="45.16611" lon="5.68914">
        <ele>298</ele>
        <time>2015-08-23T07:15:51.000Z</time>
      </trkpt>
      <trkpt lat="45.16607" lon="5.6891">
        <ele>298</ele>
        <time>2015-08-23T07:15:53.000Z</time>
      </trkpt>
      <trkpt lat="45.16602" lon="5.68908">
        <ele>298</ele>
        <time>2015-08-23T07:15:55.000Z</time>
      </trkpt>
      <trkpt lat="45.16596" lon="5.68905">
        <ele>298</ele>
        <time>2015-08-23T07:15:59.000Z</time>
      </trkpt>
      <trkpt lat="45.16592" lon="5.68903">
        <ele>299</ele>
        <time>2015-08-23T07:16:01.000Z</time>
      </trkpt>
      <trkpt lat="45.16586" lon="5.68903">
        <ele>300</ele>
        <time>2015-08-23T07:16:05.000Z</time>
      </trkpt>
      <trkpt lat="45.1658" lon="5.68902">
        <ele>300</ele>
        <time>2015-08-23T07:16:08.000Z</time>
      </trkpt>
      <trkpt lat="45.16575" lon="5.68902">
        <ele>299</ele>
        <time>2015-08-23T07:16:10.000Z</time>
      </trkpt>
      <trkpt lat="45.16571" lon="5.68902">
        <ele>299</ele>
        <time>2015-08-23T07:16:12.000Z</time>
      </trkpt>
      <trkpt lat="45.16565" lon="5.68903">
        <ele>298</ele>
        <time>2015-08-23T07:16:17.000Z</time>
      </trkpt>
      <trkpt lat="45.1656" lon="5.68904">
        <ele>300</ele>
        <time>2015-08-23T07:16:18.000Z</time>
      </trkpt>
      <trkpt lat="45.16553" lon="5.68904">
        <ele>298</ele>
        <time>2015-08-23T07:16:22.000Z</time>
      </trkpt>
      <trkpt lat="45.16549" lon="5.68904">
        <ele>299</ele>
        <time>2015-08-23T07:16:24.000Z</time>
      </trkpt>
      <trkpt lat="45.16543" lon="5.689">
        <ele>298</ele>
        <time>2015-08-23T07:16:28.000Z</time>
      </trkpt>
      <trkpt lat="45.16538" lon="5.68896">
        <ele>298</ele>
        <time>2015-08-23T07:16:30.000Z</time>
      </trkpt>
      <trkpt lat="45.16533" lon="5.68893">
        <ele>300</ele>
        <time>2015-08-23T07:16:34.000Z</time>
      </trkpt>
      <trkpt lat="45.16529" lon="5.6889">
        <ele>299</ele>
        <time>2015-08-23T07:16:35.000Z</time>
      </trkpt>
      <trkpt lat="45.16524" lon="5.68885">
        <ele>297</ele>
        <time>2015-08-23T07:16:39.000Z</time>
      </trkpt>
      <trkpt lat="45.1652" lon="5.6888">
        <ele>298</ele>
        <time>2015-08-23T07:16:41.000Z</time>
      </trkpt>
      <trkpt lat="45.1652" lon="5.6888">
        <ele>298</ele>
        <time>2015-08-23T07:16:43.000Z</time>
      </trkpt>
      <trkpt lat="45.1652" lon="5.6888">
        <ele>298</ele>
        <time>2015-08-23T07:16:45.000Z</time>
      </trkpt>
      <trkpt lat="45.1652" lon="5.6888">
        <ele>298</ele>
        <time>2015-08-23T07:16:47.000Z</time>
      </trkpt>
      <trkpt lat="45.1652" lon="5.6888">
        <ele>298</ele>
        <time>2015-08-23T07:16:49.000Z</time>
      </trkpt>
      <trkpt lat="45.1652" lon="5.6888">
        <ele>298</ele>
        <time>2015-08-23T07:16:51.000Z</time>
      </trkpt>
      <trkpt lat="45.16509" lon="5.68864">
        <ele>301</ele>
        <time>2015-08-23T07:16:57.000Z</time>
      </trkpt>
      <trkpt lat="45.16502" lon="5.68853">
        <ele>301</ele>
        <time>2015-08-23T07:16:59.000Z</time>
      </trkpt>
      <trkpt lat="45.16497" lon="5.68845">
        <ele>301</ele>
        <time>2015-08-23T07:17:01.000Z</time>
      </trkpt>
      <trkpt lat="45.16492" lon="5.68839">
        <ele>299</ele>
        <time>2015-08-23T07:17:03.000Z</time>
      </trkpt>
      <trkpt lat="45.16489" lon="5.68834">
        <ele>300</ele>
        <time>2015-08-23T07:17:05.000Z</time>
      </trkpt>
      <trkpt lat="45.16478" lon="5.68825">
        <ele>300</ele>
        <time>2015-08-23T07:17:09.000Z</time>
      </trkpt>
      <trkpt lat="45.16465" lon="5.68821">
        <ele>301</ele>
        <time>2015-08-23T07:17:15.000Z</time>
      </trkpt>
      <trkpt lat="45.16456" lon="5.68816">
        <ele>302</ele>
        <time>2015-08-23T07:17:19.000Z</time>
      </trkpt>
      <trkpt lat="45.16444" lon="5.68809">
        <ele>303</ele>
        <time>2015-08-23T07:17:25.000Z</time>
      </trkpt>
      <trkpt lat="45.16444" lon="5.68809">
        <ele>303</ele>
        <time>2015-08-23T07:17:27.000Z</time>
      </trkpt>
      <trkpt lat="45.16444" lon="5.68809">
        <ele>303</ele>
        <time>2015-08-23T07:17:29.000Z</time>
      </trkpt>
      <trkpt lat="45.16444" lon="5.68809">
        <ele>303</ele>
        <time>2015-08-23T07:17:31.000Z</time>
      </trkpt>
      <trkpt lat="45.16444" lon="5.68809">
        <ele>303</ele>
        <time>2015-08-23T07:17:33.000Z</time>
      </trkpt>
      <trkpt lat="45.16444" lon="5.68809">
        <ele>303</ele>
        <time>2015-08-23T07:17:35.000Z</time>
      </trkpt>
      <trkpt lat="45.16435" lon="5.68786">
        <ele>309</ele>
        <time>2015-08-23T07:17:45.000Z</time>
      </trkpt>
      <trkpt lat="45.16427" lon="5.68777">
        <ele>309</ele>
        <time>2015-08-23T07:17:51.000Z</time>
      </trkpt>
      <trkpt lat="45.16427" lon="5.68777">
        <ele>309</ele>
        <time>2015-08-23T07:17:57.000Z</time>
      </trkpt>
      <trkpt lat="45.16427" lon="5.68777">
        <ele>309</ele>
        <time>2015-08-23T07:17:59.000Z</time>
      </trkpt>
      <trkpt lat="45.16427" lon="5.68777">
        <ele>309</ele>
        <time>2015-08-23T07:18:01.000Z</time>
      </trkpt>
      <trkpt lat="45.1641" lon="5.68758">
        <ele>308</ele>
        <time>2015-08-23T07:18:07.000Z</time>
      </trkpt>
      <trkpt lat="45.16401" lon="5.68748">
        <ele>312</ele>
        <time>2015-08-23T07:18:13.000Z</time>
      </trkpt>
      <trkpt lat="45.16401" lon="5.68748">
        <ele>312</ele>
        <time>2015-08-23T07:18:15.000Z</time>
      </trkpt>
      <trkpt lat="45.16401" lon="5.68748">
        <ele>312</ele>
        <time>2015-08-23T07:18:17.000Z</time>
      </trkpt>
      <trkpt lat="45.16401" lon="5.68748">
        <ele>312</ele>
        <time>2015-08-23T07:18:19.000Z</time>
      </trkpt>
      <trkpt lat="45.1639" lon="5.68742">
        <ele>313</ele>
        <time>2015-08-23T07:18:25.000Z</time>
      </trkpt>
      <trkpt lat="45.16382" lon="5.68737">
        <ele>314</ele>
        <time>2015-08-23T07:18:27.000Z</time>
      </trkpt>
      <trkpt lat="45.16375" lon="5.68732">
        <ele>314</ele>
        <time>2015-08-23T07:18:29.000Z</time>
      </trkpt>
      <trkpt lat="45.16369" lon="5.68728">
        <ele>317</ele>
        <time>2015-08-23T07:18:31.000Z</time>
      </trkpt>
      <trkpt lat="45.16365" lon="5.68725">
        <ele>317</ele>
        <time>2015-08-23T07:18:33.000Z</time>
      </trkpt>
      <trkpt lat="45.16365" lon="5.68725">
        <ele>317</ele>
        <time>2015-08-23T07:18:35.000Z</time>
      </trkpt>
      <trkpt lat="45.16351" lon="5.68714">
        <ele>314</ele>
        <time>2015-08-23T07:18:39.000Z</time>
      </trkpt>
      <trkpt lat="45.16343" lon="5.68709">
        <ele>316</ele>
        <time>2015-08-23T07:18:43.000Z</time>
      </trkpt>
      <trkpt lat="45.16331" lon="5.68701">
        <ele>318</ele>
        <time>2015-08-23T07:18:49.000Z</time>
      </trkpt>
      <trkpt lat="45.16331" lon="5.68701">
        <ele>318</ele>
        <time>2015-08-23T07:18:51.000Z</time>
      </trkpt>
      <trkpt lat="45.16331" lon="5.68701">
        <ele>318</ele>
        <time>2015-08-23T07:18:53.000Z</time>
      </trkpt>
      <trkpt lat="45.16331" lon="5.68701">
        <ele>318</ele>
        <time>2015-08-23T07:18:55.000Z</time>
      </trkpt>
      <trkpt lat="45.16331" lon="5.68701">
        <ele>318</ele>
        <time>2015-08-23T07:18:57.000Z</time>
      </trkpt>
      <trkpt lat="45.16311" lon="5.6869">
        <ele>316</ele>
        <time>2015-08-23T07:19:01.000Z</time>
      </trkpt>
      <trkpt lat="45.16299" lon="5.68685">
        <ele>316</ele>
        <time>2015-08-23T07:19:07.000Z</time>
      </trkpt>
      <trkpt lat="45.16293" lon="5.68671">
        <ele>317</ele>
        <time>2015-08-23T07:19:13.000Z</time>
      </trkpt>
      <trkpt lat="45.16293" lon="5.68654">
        <ele>320</ele>
        <time>2015-08-23T07:19:19.000Z</time>
      </trkpt>
      <trkpt lat="45.16293" lon="5.68639">
        <ele>304</ele>
        <time>2015-08-23T07:19:25.000Z</time>
      </trkpt>
      <trkpt lat="45.16293" lon="5.68639">
        <ele>304</ele>
        <time>2015-08-23T07:19:27.000Z</time>
      </trkpt>
      <trkpt lat="45.16287" lon="5.68625">
        <ele>318</ele>
        <time>2015-08-23T07:19:31.000Z</time>
      </trkpt>
      <trkpt lat="45.1628" lon="5.68613">
        <ele>320</ele>
        <time>2015-08-23T07:19:37.000Z</time>
      </trkpt>
      <trkpt lat="45.1628" lon="5.68613">
        <ele>320</ele>
        <time>2015-08-23T07:19:43.000Z</time>
      </trkpt>
      <trkpt lat="45.1628" lon="5.68613">
        <ele>320</ele>
        <time>2015-08-23T07:19:45.000Z</time>
      </trkpt>
      <trkpt lat="45.1628" lon="5.68613">
        <ele>320</ele>
        <time>2015-08-23T07:19:47.000Z</time>
      </trkpt>
      <trkpt lat="45.1628" lon="5.68613">
        <ele>320</ele>
        <time>2015-08-23T07:19:49.000Z</time>
      </trkpt>
      <trkpt lat="45.16261" lon="5.68588">
        <ele>326</ele>
        <time>2015-08-23T07:19:53.000Z</time>
      </trkpt>
      <trkpt lat="45.16261" lon="5.68588">
        <ele>326</ele>
        <time>2015-08-23T07:19:59.000Z</time>
      </trkpt>
      <trkpt lat="45.16261" lon="5.68588">
        <ele>326</ele>
        <time>2015-08-23T07:20:01.000Z</time>
      </trkpt>
      <trkpt lat="45.16257" lon="5.6858">
        <ele>329</ele>
        <time>2015-08-23T07:20:11.000Z</time>
      </trkpt>
      <trkpt lat="45.16254" lon="5.68574">
        <ele>330</ele>
        <time>2015-08-23T07:20:13.000Z</time>
      </trkpt>
      <trkpt lat="45.16252" lon="5.68567">
        <ele>330</ele>
        <time>2015-08-23T07:20:17.000Z</time>
      </trkpt>
      <trkpt lat="45.1625" lon="5.68561">
        <ele>330</ele>
        <time>2015-08-23T07:20:21.000Z</time>
      </trkpt>
      <trkpt lat="45.16246" lon="5.68555">
        <ele>330</ele>
        <time>2015-08-23T07:20:25.000Z</time>
      </trkpt>
      <trkpt lat="45.16243" lon="5.68551">
        <ele>331</ele>
        <time>2015-08-23T07:20:29.000Z</time>
      </trkpt>
      <trkpt lat="45.16239" lon="5.68547">
        <ele>333</ele>
        <time>2015-08-23T07:20:33.000Z</time>
      </trkpt>
      <trkpt lat="45.16239" lon="5.68547">
        <ele>333</ele>
        <time>2015-08-23T07:20:35.000Z</time>
      </trkpt>
      <trkpt lat="45.16239" lon="5.68547">
        <ele>333</ele>
        <time>2015-08-23T07:20:37.000Z</time>
      </trkpt>
      <trkpt lat="45.16233" lon="5.68544">
        <ele>333</ele>
        <time>2015-08-23T07:20:39.000Z</time>
      </trkpt>
      <trkpt lat="45.16228" lon="5.68541">
        <ele>332</ele>
        <time>2015-08-23T07:20:43.000Z</time>
      </trkpt>
      <trkpt lat="45.16222" lon="5.68538">
        <ele>333</ele>
        <time>2015-08-23T07:20:47.000Z</time>
      </trkpt>
      <trkpt lat="45.16217" lon="5.68536">
        <ele>334</ele>
        <time>2015-08-23T07:20:49.000Z</time>
      </trkpt>
      <trkpt lat="45.16212" lon="5.68534">
        <ele>336</ele>
        <time>2015-08-23T07:20:53.000Z</time>
      </trkpt>
      <trkpt lat="45.16207" lon="5.6853">
        <ele>337</ele>
        <time>2015-08-23T07:20:57.000Z</time>
      </trkpt>
      <trkpt lat="45.16203" lon="5.68526">
        <ele>338</ele>
        <time>2015-08-23T07:21:01.000Z</time>
      </trkpt>
      <trkpt lat="45.16198" lon="5.6852">
        <ele>337</ele>
        <time>2015-08-23T07:21:05.000Z</time>
      </trkpt>
      <trkpt lat="45.16194" lon="5.68515">
        <ele>336</ele>
        <time>2015-08-23T07:21:07.000Z</time>
      </trkpt>
      <trkpt lat="45.1619" lon="5.6851">
        <ele>336</ele>
        <time>2015-08-23T07:21:11.000Z</time>
      </trkpt>
      <trkpt lat="45.16187" lon="5.68505">
        <ele>335</ele>
        <time>2015-08-23T07:21:13.000Z</time>
      </trkpt>
      <trkpt lat="45.16182" lon="5.68501">
        <ele>334</ele>
        <time>2015-08-23T07:21:17.000Z</time>
      </trkpt>
      <trkpt lat="45.16178" lon="5.68497">
        <ele>335</ele>
        <time>2015-08-23T07:21:21.000Z</time>
      </trkpt>
      <trkpt lat="45.16174" lon="5.68493">
        <ele>339</ele>
        <time>2015-08-23T07:21:25.000Z</time>
      </trkpt>
      <trkpt lat="45.16169" lon="5.68488">
        <ele>339</ele>
        <time>2015-08-23T07:21:29.000Z</time>
      </trkpt>
      <trkpt lat="45.16165" lon="5.68482">
        <ele>341</ele>
        <time>2015-08-23T07:21:33.000Z</time>
      </trkpt>
      <trkpt lat="45.16161" lon="5.68477">
        <ele>341</ele>
        <time>2015-08-23T07:21:37.000Z</time>
      </trkpt>
      <trkpt lat="45.16157" lon="5.68472">
        <ele>342</ele>
        <time>2015-08-23T07:21:41.000Z</time>
      </trkpt>
      <trkpt lat="45.16152" lon="5.68467">
        <ele>343</ele>
        <time>2015-08-23T07:21:45.000Z</time>
      </trkpt>
      <trkpt lat="45.16147" lon="5.68463">
        <ele>345</ele>
        <time>2015-08-23T07:21:49.000Z</time>
      </trkpt>
      <trkpt lat="45.16143" lon="5.6846">
        <ele>345</ele>
        <time>2015-08-23T07:21:53.000Z</time>
      </trkpt>
      <trkpt lat="45.16143" lon="5.6846">
        <ele>345</ele>
        <time>2015-08-23T07:21:57.000Z</time>
      </trkpt>
      <trkpt lat="45.16143" lon="5.6846">
        <ele>345</ele>
        <time>2015-08-23T07:21:59.000Z</time>
      </trkpt>
      <trkpt lat="45.16143" lon="5.6846">
        <ele>345</ele>
        <time>2015-08-23T07:22:01.000Z</time>
      </trkpt>
      <trkpt lat="45.16143" lon="5.6846">
        <ele>345</ele>
        <time>2015-08-23T07:22:03.000Z</time>
      </trkpt>
      <trkpt lat="45.16143" lon="5.6846">
        <ele>345</ele>
        <time>2015-08-23T07:22:05.000Z</time>
      </trkpt>
      <trkpt lat="45.16143" lon="5.6846">
        <ele>345</ele>
        <time>2015-08-23T07:22:08.000Z</time>
      </trkpt>
      <trkpt lat="45.16143" lon="5.6846">
        <ele>345</ele>
        <time>2015-08-23T07:22:10.000Z</time>
      </trkpt>
      <trkpt lat="45.16129" lon="5.6845">
        <ele>352</ele>
        <time>2015-08-23T07:22:14.000Z</time>
      </trkpt>
      <trkpt lat="45.16121" lon="5.68443">
        <ele>350</ele>
        <time>2015-08-23T07:22:16.000Z</time>
      </trkpt>
      <trkpt lat="45.16115" lon="5.68439">
        <ele>351</ele>
        <time>2015-08-23T07:22:18.000Z</time>
      </trkpt>
      <trkpt lat="45.1611" lon="5.68434">
        <ele>353</ele>
        <time>2015-08-23T07:22:20.000Z</time>
      </trkpt>
      <trkpt lat="45.1611" lon="5.68434">
        <ele>353</ele>
        <time>2015-08-23T07:22:22.000Z</time>
      </trkpt>
      <trkpt lat="45.1611" lon="5.68434">
        <ele>353</ele>
        <time>2015-08-23T07:22:24.000Z</time>
      </trkpt>
      <trkpt lat="45.16102" lon="5.68426">
        <ele>346</ele>
        <time>2015-08-23T07:22:29.000Z</time>
      </trkpt>
      <trkpt lat="45.16096" lon="5.68421">
        <ele>345</ele>
        <time>2015-08-23T07:22:30.000Z</time>
      </trkpt>
      <trkpt lat="45.16092" lon="5.68417">
        <ele>346</ele>
        <time>2015-08-23T07:22:32.000Z</time>
      </trkpt>
      <trkpt lat="45.16092" lon="5.68417">
        <ele>346</ele>
        <time>2015-08-23T07:22:34.000Z</time>
      </trkpt>
      <trkpt lat="45.16092" lon="5.68417">
        <ele>346</ele>
        <time>2015-08-23T07:22:36.000Z</time>
      </trkpt>
      <trkpt lat="45.16082" lon="5.68406">
        <ele>351</ele>
        <time>2015-08-23T07:22:46.000Z</time>
      </trkpt>
      <trkpt lat="45.16076" lon="5.684">
        <ele>353</ele>
        <time>2015-08-23T07:22:48.000Z</time>
      </trkpt>
      <trkpt lat="45.16072" lon="5.68395">
        <ele>354</ele>
        <time>2015-08-23T07:22:50.000Z</time>
      </trkpt>
      <trkpt lat="45.16068" lon="5.68392">
        <ele>356</ele>
        <time>2015-08-23T07:22:54.000Z</time>
      </trkpt>
      <trkpt lat="45.16063" lon="5.68387">
        <ele>355</ele>
        <time>2015-08-23T07:22:58.000Z</time>
      </trkpt>
      <trkpt lat="45.16059" lon="5.68382">
        <ele>354</ele>
        <time>2015-08-23T07:23:02.000Z</time>
      </trkpt>
      <trkpt lat="45.16055" lon="5.68376">
        <ele>357</ele>
        <time>2015-08-23T07:23:06.000Z</time>
      </trkpt>
      <trkpt lat="45.16051" lon="5.68369">
        <ele>358</ele>
        <time>2015-08-23T07:23:10.000Z</time>
      </trkpt>
      <trkpt lat="45.16048" lon="5.68364">
        <ele>356</ele>
        <time>2015-08-23T07:23:12.000Z</time>
      </trkpt>
      <trkpt lat="45.16044" lon="5.68359">
        <ele>358</ele>
        <time>2015-08-23T07:23:16.000Z</time>
      </trkpt>
      <trkpt lat="45.1604" lon="5.68354">
        <ele>361</ele>
        <time>2015-08-23T07:23:20.000Z</time>
      </trkpt>
      <trkpt lat="45.16035" lon="5.6835">
        <ele>360</ele>
        <time>2015-08-23T07:23:24.000Z</time>
      </trkpt>
      <trkpt lat="45.16031" lon="5.68345">
        <ele>363</ele>
        <time>2015-08-23T07:23:28.000Z</time>
      </trkpt>
      <trkpt lat="45.16027" lon="5.68341">
        <ele>364</ele>
        <time>2015-08-23T07:23:32.000Z</time>
      </trkpt>
      <trkpt lat="45.16027" lon="5.68341">
        <ele>364</ele>
        <time>2015-08-23T07:23:34.000Z</time>
      </trkpt>
      <trkpt lat="45.16027" lon="5.68341">
        <ele>364</ele>
        <time>2015-08-23T07:23:36.000Z</time>
      </trkpt>
      <trkpt lat="45.16027" lon="5.68341">
        <ele>364</ele>
        <time>2015-08-23T07:23:38.000Z</time>
      </trkpt>
      <trkpt lat="45.16015" lon="5.68336">
        <ele>365</ele>
        <time>2015-08-23T07:23:54.000Z</time>
      </trkpt>
      <trkpt lat="45.16007" lon="5.68333">
        <ele>366</ele>
        <time>2015-08-23T07:23:56.000Z</time>
      </trkpt>
      <trkpt lat="45.16001" lon="5.68331">
        <ele>368</ele>
        <time>2015-08-23T07:23:58.000Z</time>
      </trkpt>
      <trkpt lat="45.15995" lon="5.68329">
        <ele>370</ele>
        <time>2015-08-23T07:24:00.000Z</time>
      </trkpt>
      <trkpt lat="45.15991" lon="5.68327">
        <ele>369</ele>
        <time>2015-08-23T07:24:02.000Z</time>
      </trkpt>
      <trkpt lat="45.15991" lon="5.68327">
        <ele>369</ele>
        <time>2015-08-23T07:24:04.000Z</time>
      </trkpt>
      <trkpt lat="45.15991" lon="5.68327">
        <ele>369</ele>
        <time>2015-08-23T07:24:06.000Z</time>
      </trkpt>
      <trkpt lat="45.15968" lon="5.68322">
        <ele>363</ele>
        <time>2015-08-23T07:24:12.000Z</time>
      </trkpt>
      <trkpt lat="45.15958" lon="5.68323">
        <ele>360</ele>
        <time>2015-08-23T07:24:16.000Z</time>
      </trkpt>
      <trkpt lat="45.15947" lon="5.68324">
        <ele>361</ele>
        <time>2015-08-23T07:24:22.000Z</time>
      </trkpt>
      <trkpt lat="45.15947" lon="5.68324">
        <ele>361</ele>
        <time>2015-08-23T07:24:28.000Z</time>
      </trkpt>
      <trkpt lat="45.15947" lon="5.68324">
        <ele>361</ele>
        <time>2015-08-23T07:24:30.000Z</time>
      </trkpt>
      <trkpt lat="45.15947" lon="5.68324">
        <ele>361</ele>
        <time>2015-08-23T07:24:32.000Z</time>
      </trkpt>
      <trkpt lat="45.15956" lon="5.68316">
        <ele>361</ele>
        <time>2015-08-23T07:24:46.000Z</time>
      </trkpt>
      <trkpt lat="45.15969" lon="5.68315">
        <ele>360</ele>
        <time>2015-08-23T07:24:50.000Z</time>
      </trkpt>
      <trkpt lat="45.1598" lon="5.68315">
        <ele>360</ele>
        <time>2015-08-23T07:24:54.000Z</time>
      </trkpt>
      <trkpt lat="45.15992" lon="5.68316">
        <ele>358</ele>
        <time>2015-08-23T07:24:58.000Z</time>
      </trkpt>
      <trkpt lat="45.16003" lon="5.68319">
        <ele>361</ele>
        <time>2015-08-23T07:25:02.000Z</time>
      </trkpt>
      <trkpt lat="45.16013" lon="5.68323">
        <ele>359</ele>
        <time>2015-08-23T07:25:06.000Z</time>
      </trkpt>
      <trkpt lat="45.16024" lon="5.68325">
        <ele>359</ele>
        <time>2015-08-23T07:25:10.000Z</time>
      </trkpt>
      <trkpt lat="45.16024" lon="5.68325">
        <ele>359</ele>
        <time>2015-08-23T07:25:12.000Z</time>
      </trkpt>
      <trkpt lat="45.16024" lon="5.68325">
        <ele>359</ele>
        <time>2015-08-23T07:25:14.000Z</time>
      </trkpt>
      <trkpt lat="45.16024" lon="5.68325">
        <ele>359</ele>
        <time>2015-08-23T07:25:16.000Z</time>
      </trkpt>
      <trkpt lat="45.16024" lon="5.68325">
        <ele>359</ele>
        <time>2015-08-23T07:25:18.000Z</time>
      </trkpt>
      <trkpt lat="45.16042" lon="5.68327">
        <ele>361</ele>
        <time>2015-08-23T07:25:24.000Z</time>
      </trkpt>
      <trkpt lat="45.16053" lon="5.68326">
        <ele>360</ele>
        <time>2015-08-23T07:25:26.000Z</time>
      </trkpt>
      <trkpt lat="45.16061" lon="5.68323">
        <ele>359</ele>
        <time>2015-08-23T07:25:28.000Z</time>
      </trkpt>
      <trkpt lat="45.16061" lon="5.68323">
        <ele>359</ele>
        <time>2015-08-23T07:25:30.000Z</time>
      </trkpt>
      <trkpt lat="45.16061" lon="5.68323">
        <ele>359</ele>
        <time>2015-08-23T07:25:32.000Z</time>
      </trkpt>
      <trkpt lat="45.16076" lon="5.68312">
        <ele>358</ele>
        <time>2015-08-23T07:25:38.000Z</time>
      </trkpt>
      <trkpt lat="45.16086" lon="5.68304">
        <ele>360</ele>
        <time>2015-08-23T07:25:40.000Z</time>
      </trkpt>
      <trkpt lat="45.16093" lon="5.68298">
        <ele>359</ele>
        <time>2015-08-23T07:25:42.000Z</time>
      </trkpt>
      <trkpt lat="45.16099" lon="5.68293">
        <ele>359</ele>
        <time>2015-08-23T07:25:44.000Z</time>
      </trkpt>
      <trkpt lat="45.16104" lon="5.68289">
        <ele>359</ele>
        <time>2015-08-23T07:25:46.000Z</time>
      </trkpt>
      <trkpt lat="45.16104" lon="5.68289">
        <ele>359</ele>
        <time>2015-08-23T07:25:48.000Z</time>
      </trkpt>
      <trkpt lat="45.16104" lon="5.68289">
        <ele>359</ele>
        <time>2015-08-23T07:25:50.000Z</time>
      </trkpt>
      <trkpt lat="45.16104" lon="5.68289">
        <ele>359</ele>
        <time>2015-08-23T07:25:52.000Z</time>
      </trkpt>
      <trkpt lat="45.16104" lon="5.68289">
        <ele>359</ele>
        <time>2015-08-23T07:25:54.000Z</time>
      </trkpt>
      <trkpt lat="45.16104" lon="5.68289">
        <ele>359</ele>
        <time>2015-08-23T07:26:02.000Z</time>
      </trkpt>
      <trkpt lat="45.16104" lon="5.68289">
        <ele>359</ele>
        <time>2015-08-23T07:26:04.000Z</time>
      </trkpt>
      <trkpt lat="45.16104" lon="5.68289">
        <ele>359</ele>
        <time>2015-08-23T07:26:06.000Z</time>
      </trkpt>
      <trkpt lat="45.16104" lon="5.68289">
        <ele>359</ele>
        <time>2015-08-23T07:26:08.000Z</time>
      </trkpt>
      <trkpt lat="45.16104" lon="5.68289">
        <ele>359</ele>
        <time>2015-08-23T07:26:10.000Z</time>
      </trkpt>
      <trkpt lat="45.16104" lon="5.68289">
        <ele>359</ele>
        <time>2015-08-23T07:26:12.000Z</time>
      </trkpt>
      <trkpt lat="45.16124" lon="5.68217">
        <ele>357</ele>
        <time>2015-08-23T07:26:22.000Z</time>
      </trkpt>
      <trkpt lat="45.16124" lon="5.68217">
        <ele>357</ele>
        <time>2015-08-23T07:26:30.000Z</time>
      </trkpt>
      <trkpt lat="45.16124" lon="5.68217">
        <ele>357</ele>
        <time>2015-08-23T07:26:32.000Z</time>
      </trkpt>
      <trkpt lat="45.16124" lon="5.68217">
        <ele>357</ele>
        <time>2015-08-23T07:26:34.000Z</time>
      </trkpt>
      <trkpt lat="45.16124" lon="5.68217">
        <ele>357</ele>
        <time>2015-08-23T07:26:36.000Z</time>
      </trkpt>
      <trkpt lat="45.16099" lon="5.68185">
        <ele>360</ele>
        <time>2015-08-23T07:26:46.000Z</time>
      </trkpt>
      <trkpt lat="45.16095" lon="5.68179">
        <ele>361</ele>
        <time>2015-08-23T07:26:54.000Z</time>
      </trkpt>
      <trkpt lat="45.16092" lon="5.68174">
        <ele>363</ele>
        <time>2015-08-23T07:26:58.000Z</time>
      </trkpt>
      <trkpt lat="45.16088" lon="5.68169">
        <ele>365</ele>
        <time>2015-08-23T07:27:02.000Z</time>
      </trkpt>
      <trkpt lat="45.16084" lon="5.68164">
        <ele>366</ele>
        <time>2015-08-23T07:27:06.000Z</time>
      </trkpt>
      <trkpt lat="45.16081" lon="5.6816">
        <ele>367</ele>
        <time>2015-08-23T07:27:10.000Z</time>
      </trkpt>
      <trkpt lat="45.16077" lon="5.68154">
        <ele>371</ele>
        <time>2015-08-23T07:27:16.000Z</time>
      </trkpt>
      <trkpt lat="45.16072" lon="5.6815">
        <ele>374</ele>
        <time>2015-08-23T07:27:20.000Z</time>
      </trkpt>
      <trkpt lat="45.16068" lon="5.68145">
        <ele>376</ele>
        <time>2015-08-23T07:27:24.000Z</time>
      </trkpt>
      <trkpt lat="45.16064" lon="5.68139">
        <ele>377</ele>
        <time>2015-08-23T07:27:28.000Z</time>
      </trkpt>
      <trkpt lat="45.1606" lon="5.68134">
        <ele>377</ele>
        <time>2015-08-23T07:27:32.000Z</time>
      </trkpt>
      <trkpt lat="45.16056" lon="5.68129">
        <ele>375</ele>
        <time>2015-08-23T07:27:36.000Z</time>
      </trkpt>
      <trkpt lat="45.16051" lon="5.68124">
        <ele>375</ele>
        <time>2015-08-23T07:27:40.000Z</time>
      </trkpt>
      <trkpt lat="45.16048" lon="5.68118">
        <ele>376</ele>
        <time>2015-08-23T07:27:44.000Z</time>
      </trkpt>
      <trkpt lat="45.16043" lon="5.68112">
        <ele>378</ele>
        <time>2015-08-23T07:27:48.000Z</time>
      </trkpt>
      <trkpt lat="45.16039" lon="5.68107">
        <ele>379</ele>
        <time>2015-08-23T07:27:52.000Z</time>
      </trkpt>
      <trkpt lat="45.16035" lon="5.68101">
        <ele>381</ele>
        <time>2015-08-23T07:27:56.000Z</time>
      </trkpt>
      <trkpt lat="45.16032" lon="5.68096">
        <ele>380</ele>
        <time>2015-08-23T07:28:00.000Z</time>
      </trkpt>
      <trkpt lat="45.16029" lon="5.68091">
        <ele>381</ele>
        <time>2015-08-23T07:28:04.000Z</time>
      </trkpt>
      <trkpt lat="45.16026" lon="5.68085">
        <ele>381</ele>
        <time>2015-08-23T07:28:08.000Z</time>
      </trkpt>
      <trkpt lat="45.16022" lon="5.68079">
        <ele>384</ele>
        <time>2015-08-23T07:28:12.000Z</time>
      </trkpt>
      <trkpt lat="45.16019" lon="5.68074">
        <ele>385</ele>
        <time>2015-08-23T07:28:16.000Z</time>
      </trkpt>
      <trkpt lat="45.16017" lon="5.68068">
        <ele>385</ele>
        <time>2015-08-23T07:28:20.000Z</time>
      </trkpt>
      <trkpt lat="45.16014" lon="5.68063">
        <ele>384</ele>
        <time>2015-08-23T07:28:24.000Z</time>
      </trkpt>
      <trkpt lat="45.16011" lon="5.68057">
        <ele>386</ele>
        <time>2015-08-23T07:28:28.000Z</time>
      </trkpt>
      <trkpt lat="45.16008" lon="5.68052">
        <ele>390</ele>
        <time>2015-08-23T07:28:32.000Z</time>
      </trkpt>
      <trkpt lat="45.16004" lon="5.68047">
        <ele>392</ele>
        <time>2015-08-23T07:28:36.000Z</time>
      </trkpt>
      <trkpt lat="45.16001" lon="5.68041">
        <ele>393</ele>
        <time>2015-08-23T07:28:40.000Z</time>
      </trkpt>
      <trkpt lat="45.15997" lon="5.68035">
        <ele>393</ele>
        <time>2015-08-23T07:28:44.000Z</time>
      </trkpt>
      <trkpt lat="45.15994" lon="5.68031">
        <ele>395</ele>
        <time>2015-08-23T07:28:48.000Z</time>
      </trkpt>
      <trkpt lat="45.15989" lon="5.68027">
        <ele>395</ele>
        <time>2015-08-23T07:28:54.000Z</time>
      </trkpt>
      <trkpt lat="45.15984" lon="5.68025">
        <ele>397</ele>
        <time>2015-08-23T07:28:58.000Z</time>
      </trkpt>
      <trkpt lat="45.15978" lon="5.68024">
        <ele>395</ele>
        <time>2015-08-23T07:29:02.000Z</time>
      </trkpt>
      <trkpt lat="45.15973" lon="5.68021">
        <ele>396</ele>
        <time>2015-08-23T07:29:06.000Z</time>
      </trkpt>
      <trkpt lat="45.15969" lon="5.68016">
        <ele>400</ele>
        <time>2015-08-23T07:29:10.000Z</time>
      </trkpt>
      <trkpt lat="45.15965" lon="5.68011">
        <ele>399</ele>
        <time>2015-08-23T07:29:14.000Z</time>
      </trkpt>
      <trkpt lat="45.15965" lon="5.68011">
        <ele>399</ele>
        <time>2015-08-23T07:29:18.000Z</time>
      </trkpt>
      <trkpt lat="45.15965" lon="5.68011">
        <ele>399</ele>
        <time>2015-08-23T07:29:20.000Z</time>
      </trkpt>
      <trkpt lat="45.15965" lon="5.68011">
        <ele>399</ele>
        <time>2015-08-23T07:29:22.000Z</time>
      </trkpt>
      <trkpt lat="45.15965" lon="5.68011">
        <ele>399</ele>
        <time>2015-08-23T07:29:24.000Z</time>
      </trkpt>
      <trkpt lat="45.1596" lon="5.68003">
        <ele>402</ele>
        <time>2015-08-23T07:29:26.000Z</time>
      </trkpt>
      <trkpt lat="45.15957" lon="5.67996">
        <ele>399</ele>
        <time>2015-08-23T07:29:28.000Z</time>
      </trkpt>
      <trkpt lat="45.15954" lon="5.6799">
        <ele>399</ele>
        <time>2015-08-23T07:29:30.000Z</time>
      </trkpt>
      <trkpt lat="45.15951" lon="5.67984">
        <ele>400</ele>
        <time>2015-08-23T07:29:34.000Z</time>
      </trkpt>
      <trkpt lat="45.15948" lon="5.67977">
        <ele>398</ele>
        <time>2015-08-23T07:29:38.000Z</time>
      </trkpt>
      <trkpt lat="45.15948" lon="5.67977">
        <ele>398</ele>
        <time>2015-08-23T07:29:42.000Z</time>
      </trkpt>
      <trkpt lat="45.15948" lon="5.67977">
        <ele>398</ele>
        <time>2015-08-23T07:29:44.000Z</time>
      </trkpt>
      <trkpt lat="45.15948" lon="5.67977">
        <ele>398</ele>
        <time>2015-08-23T07:29:46.000Z</time>
      </trkpt>
      <trkpt lat="45.15948" lon="5.67977">
        <ele>398</ele>
        <time>2015-08-23T07:29:48.000Z</time>
      </trkpt>
      <trkpt lat="45.15948" lon="5.67955">
        <ele>402</ele>
        <time>2015-08-23T07:29:58.000Z</time>
      </trkpt>
      <trkpt lat="45.15947" lon="5.67943">
        <ele>404</ele>
        <time>2015-08-23T07:30:00.000Z</time>
      </trkpt>
      <trkpt lat="45.15947" lon="5.67936">
        <ele>406</ele>
        <time>2015-08-23T07:30:02.000Z</time>
      </trkpt>
      <trkpt lat="45.15946" lon="5.67929">
        <ele>408</ele>
        <time>2015-08-23T07:30:06.000Z</time>
      </trkpt>
      <trkpt lat="45.15946" lon="5.67921">
        <ele>409</ele>
        <time>2015-08-23T07:30:12.000Z</time>
      </trkpt>
      <trkpt lat="45.15946" lon="5.67915">
        <ele>411</ele>
        <time>2015-08-23T07:30:16.000Z</time>
      </trkpt>
      <trkpt lat="45.15947" lon="5.67908">
        <ele>411</ele>
        <time>2015-08-23T07:30:22.000Z</time>
      </trkpt>
      <trkpt lat="45.15948" lon="5.67901">
        <ele>413</ele>
        <time>2015-08-23T07:30:26.000Z</time>
      </trkpt>
      <trkpt lat="45.15948" lon="5.67894">
        <ele>415</ele>
        <time>2015-08-23T07:30:32.000Z</time>
      </trkpt>
      <trkpt lat="45.15948" lon="5.67887">
        <ele>415</ele>
        <time>2015-08-23T07:30:36.000Z</time>
      </trkpt>
      <trkpt lat="45.15948" lon="5.67887">
        <ele>415</ele>
        <time>2015-08-23T07:30:42.000Z</time>
      </trkpt>
      <trkpt lat="45.15948" lon="5.67887">
        <ele>415</ele>
        <time>2015-08-23T07:30:44.000Z</time>
      </trkpt>
      <trkpt lat="45.15947" lon="5.67874">
        <ele>418</ele>
        <time>2015-08-23T07:30:58.000Z</time>
      </trkpt>
      <trkpt lat="45.15946" lon="5.67865">
        <ele>419</ele>
        <time>2015-08-23T07:31:00.000Z</time>
      </trkpt>
      <trkpt lat="45.15947" lon="5.67858">
        <ele>420</ele>
        <time>2015-08-23T07:31:04.000Z</time>
      </trkpt>
      <trkpt lat="45.15947" lon="5.67852">
        <ele>421</ele>
        <time>2015-08-23T07:31:08.000Z</time>
      </trkpt>
      <trkpt lat="45.15949" lon="5.67845">
        <ele>421</ele>
        <time>2015-08-23T07:31:12.000Z</time>
      </trkpt>
      <trkpt lat="45.1595" lon="5.67839">
        <ele>422</ele>
        <time>2015-08-23T07:31:16.000Z</time>
      </trkpt>
      <trkpt lat="45.15951" lon="5.67832">
        <ele>423</ele>
        <time>2015-08-23T07:31:20.000Z</time>
      </trkpt>
      <trkpt lat="45.15952" lon="5.67826">
        <ele>425</ele>
        <time>2015-08-23T07:31:24.000Z</time>
      </trkpt>
      <trkpt lat="45.15952" lon="5.6782">
        <ele>425</ele>
        <time>2015-08-23T07:31:28.000Z</time>
      </trkpt>
      <trkpt lat="45.15953" lon="5.67813">
        <ele>428</ele>
        <time>2015-08-23T07:31:32.000Z</time>
      </trkpt>
      <trkpt lat="45.15954" lon="5.67806">
        <ele>428</ele>
        <time>2015-08-23T07:31:36.000Z</time>
      </trkpt>
      <trkpt lat="45.15956" lon="5.67799">
        <ele>426</ele>
        <time>2015-08-23T07:31:40.000Z</time>
      </trkpt>
      <trkpt lat="45.15957" lon="5.67792">
        <ele>427</ele>
        <time>2015-08-23T07:31:44.000Z</time>
      </trkpt>
      <trkpt lat="45.15958" lon="5.67785">
        <ele>428</ele>
        <time>2015-08-23T07:31:48.000Z</time>
      </trkpt>
      <trkpt lat="45.1596" lon="5.67778">
        <ele>429</ele>
        <time>2015-08-23T07:31:52.000Z</time>
      </trkpt>
      <trkpt lat="45.15961" lon="5.67771">
        <ele>431</ele>
        <time>2015-08-23T07:31:56.000Z</time>
      </trkpt>
      <trkpt lat="45.15962" lon="5.67764">
        <ele>431</ele>
        <time>2015-08-23T07:32:00.000Z</time>
      </trkpt>
      <trkpt lat="45.15962" lon="5.67756">
        <ele>433</ele>
        <time>2015-08-23T07:32:04.000Z</time>
      </trkpt>
      <trkpt lat="45.15963" lon="5.67748">
        <ele>435</ele>
        <time>2015-08-23T07:32:08.000Z</time>
      </trkpt>
      <trkpt lat="45.15963" lon="5.67741">
        <ele>436</ele>
        <time>2015-08-23T07:32:12.000Z</time>
      </trkpt>
      <trkpt lat="45.15963" lon="5.67733">
        <ele>436</ele>
        <time>2015-08-23T07:32:16.000Z</time>
      </trkpt>
      <trkpt lat="45.15963" lon="5.67725">
        <ele>436</ele>
        <time>2015-08-23T07:32:20.000Z</time>
      </trkpt>
      <trkpt lat="45.15964" lon="5.67717">
        <ele>435</ele>
        <time>2015-08-23T07:32:24.000Z</time>
      </trkpt>
      <trkpt lat="45.15964" lon="5.67708">
        <ele>436</ele>
        <time>2015-08-23T07:32:28.000Z</time>
      </trkpt>
      <trkpt lat="45.15965" lon="5.67701">
        <ele>437</ele>
        <time>2015-08-23T07:32:32.000Z</time>
      </trkpt>
      <trkpt lat="45.15968" lon="5.67696">
        <ele>438</ele>
        <time>2015-08-23T07:32:36.000Z</time>
      </trkpt>
      <trkpt lat="45.15968" lon="5.67696">
        <ele>438</ele>
        <time>2015-08-23T07:32:40.000Z</time>
      </trkpt>
      <trkpt lat="45.15968" lon="5.67696">
        <ele>438</ele>
        <time>2015-08-23T07:32:42.000Z</time>
      </trkpt>
      <trkpt lat="45.15968" lon="5.67696">
        <ele>438</ele>
        <time>2015-08-23T07:32:44.000Z</time>
      </trkpt>
      <trkpt lat="45.15968" lon="5.67696">
        <ele>438</ele>
        <time>2015-08-23T07:32:46.000Z</time>
      </trkpt>
      <trkpt lat="45.15968" lon="5.67696">
        <ele>438</ele>
        <time>2015-08-23T07:32:48.000Z</time>
      </trkpt>
      <trkpt lat="45.15968" lon="5.67696">
        <ele>438</ele>
        <time>2015-08-23T07:32:50.000Z</time>
      </trkpt>
      <trkpt lat="45.15983" lon="5.67688">
        <ele>441</ele>
        <time>2015-08-23T07:33:00.000Z</time>
      </trkpt>
      <trkpt lat="45.15992" lon="5.67684">
        <ele>441</ele>
        <time>2015-08-23T07:33:02.000Z</time>
      </trkpt>
      <trkpt lat="45.15997" lon="5.67682">
        <ele>443</ele>
        <time>2015-08-23T07:33:04.000Z</time>
      </trkpt>
      <trkpt lat="45.16002" lon="5.67684">
        <ele>443</ele>
        <time>2015-08-23T07:33:10.000Z</time>
      </trkpt>
      <trkpt lat="45.16002" lon="5.67684">
        <ele>443</ele>
        <time>2015-08-23T07:33:12.000Z</time>
      </trkpt>
      <trkpt lat="45.16002" lon="5.67684">
        <ele>443</ele>
        <time>2015-08-23T07:33:14.000Z</time>
      </trkpt>
      <trkpt lat="45.16002" lon="5.67684">
        <ele>443</ele>
        <time>2015-08-23T07:33:16.000Z</time>
      </trkpt>
      <trkpt lat="45.16002" lon="5.67684">
        <ele>443</ele>
        <time>2015-08-23T07:33:18.000Z</time>
      </trkpt>
      <trkpt lat="45.16018" lon="5.67709">
        <ele>449</ele>
        <time>2015-08-23T07:36:08.000Z</time>
      </trkpt>
      <trkpt lat="45.16026" lon="5.67723">
        <ele>451</ele>
        <time>2015-08-23T07:36:10.000Z</time>
      </trkpt>
      <trkpt lat="45.16032" lon="5.67729">
        <ele>450</ele>
        <time>2015-08-23T07:36:12.000Z</time>
      </trkpt>
      <trkpt lat="45.16036" lon="5.67733">
        <ele>450</ele>
        <time>2015-08-23T07:36:16.000Z</time>
      </trkpt>
      <trkpt lat="45.16036" lon="5.67733">
        <ele>450</ele>
        <time>2015-08-23T07:36:20.000Z</time>
      </trkpt>
      <trkpt lat="45.16036" lon="5.67733">
        <ele>450</ele>
        <time>2015-08-23T07:36:22.000Z</time>
      </trkpt>
      <trkpt lat="45.16036" lon="5.67733">
        <ele>450</ele>
        <time>2015-08-23T07:36:24.000Z</time>
      </trkpt>
      <trkpt lat="45.16036" lon="5.67733">
        <ele>450</ele>
        <time>2015-08-23T07:36:26.000Z</time>
      </trkpt>
      <trkpt lat="45.16036" lon="5.67733">
        <ele>450</ele>
        <time>2015-08-23T07:36:34.000Z</time>
      </trkpt>
      <trkpt lat="45.16036" lon="5.67733">
        <ele>450</ele>
        <time>2015-08-23T07:36:36.000Z</time>
      </trkpt>
      <trkpt lat="45.16052" lon="5.67739">
        <ele>459</ele>
        <time>2015-08-23T07:36:48.000Z</time>
      </trkpt>
      <trkpt lat="45.16061" lon="5.67742">
        <ele>460</ele>
        <time>2015-08-23T07:36:50.000Z</time>
      </trkpt>
      <trkpt lat="45.16066" lon="5.67744">
        <ele>462</ele>
        <time>2015-08-23T07:36:52.000Z</time>
      </trkpt>
      <trkpt lat="45.16071" lon="5.67746">
        <ele>465</ele>
        <time>2015-08-23T07:36:56.000Z</time>
      </trkpt>
      <trkpt lat="45.16076" lon="5.67748">
        <ele>464</ele>
        <time>2015-08-23T07:37:00.000Z</time>
      </trkpt>
      <trkpt lat="45.1608" lon="5.6775">
        <ele>466</ele>
        <time>2015-08-23T07:37:06.000Z</time>
      </trkpt>
      <trkpt lat="45.16086" lon="5.6775">
        <ele>468</ele>
        <time>2015-08-23T07:37:12.000Z</time>
      </trkpt>
      <trkpt lat="45.16091" lon="5.67751">
        <ele>471</ele>
        <time>2015-08-23T07:37:16.000Z</time>
      </trkpt>
      <trkpt lat="45.16096" lon="5.67752">
        <ele>470</ele>
        <time>2015-08-23T07:37:20.000Z</time>
      </trkpt>
      <trkpt lat="45.16101" lon="5.67751">
        <ele>472</ele>
        <time>2015-08-23T07:37:24.000Z</time>
      </trkpt>
      <trkpt lat="45.16106" lon="5.67751">
        <ele>474</ele>
        <time>2015-08-23T07:37:28.000Z</time>
      </trkpt>
      <trkpt lat="45.16106" lon="5.67751">
        <ele>474</ele>
        <time>2015-08-23T07:37:30.000Z</time>
      </trkpt>
      <trkpt lat="45.16106" lon="5.67751">
        <ele>474</ele>
        <time>2015-08-23T07:37:32.000Z</time>
      </trkpt>
      <trkpt lat="45.16114" lon="5.67749">
        <ele>475</ele>
        <time>2015-08-23T07:37:38.000Z</time>
      </trkpt>
      <trkpt lat="45.1612" lon="5.67749">
        <ele>476</ele>
        <time>2015-08-23T07:37:40.000Z</time>
      </trkpt>
      <trkpt lat="45.16125" lon="5.67748">
        <ele>475</ele>
        <time>2015-08-23T07:37:44.000Z</time>
      </trkpt>
      <trkpt lat="45.1613" lon="5.67747">
        <ele>477</ele>
        <time>2015-08-23T07:37:48.000Z</time>
      </trkpt>
      <trkpt lat="45.16135" lon="5.67746">
        <ele>478</ele>
        <time>2015-08-23T07:37:52.000Z</time>
      </trkpt>
      <trkpt lat="45.1614" lon="5.67743">
        <ele>478</ele>
        <time>2015-08-23T07:37:56.000Z</time>
      </trkpt>
      <trkpt lat="45.16144" lon="5.67739">
        <ele>478</ele>
        <time>2015-08-23T07:38:00.000Z</time>
      </trkpt>
      <trkpt lat="45.16148" lon="5.67734">
        <ele>478</ele>
        <time>2015-08-23T07:38:04.000Z</time>
      </trkpt>
      <trkpt lat="45.16153" lon="5.67729">
        <ele>479</ele>
        <time>2015-08-23T07:38:08.000Z</time>
      </trkpt>
      <trkpt lat="45.16156" lon="5.67724">
        <ele>482</ele>
        <time>2015-08-23T07:38:12.000Z</time>
      </trkpt>
      <trkpt lat="45.1616" lon="5.67718">
        <ele>483</ele>
        <time>2015-08-23T07:38:16.000Z</time>
      </trkpt>
      <trkpt lat="45.16164" lon="5.67713">
        <ele>488</ele>
        <time>2015-08-23T07:38:20.000Z</time>
      </trkpt>
      <trkpt lat="45.16167" lon="5.67708">
        <ele>491</ele>
        <time>2015-08-23T07:38:24.000Z</time>
      </trkpt>
      <trkpt lat="45.16167" lon="5.67708">
        <ele>491</ele>
        <time>2015-08-23T07:38:26.000Z</time>
      </trkpt>
      <trkpt lat="45.16167" lon="5.67708">
        <ele>491</ele>
        <time>2015-08-23T07:38:28.000Z</time>
      </trkpt>
      <trkpt lat="45.16175" lon="5.67694">
        <ele>491</ele>
        <time>2015-08-23T07:38:58.000Z</time>
      </trkpt>
      <trkpt lat="45.1618" lon="5.67685">
        <ele>494</ele>
        <time>2015-08-23T07:39:00.000Z</time>
      </trkpt>
      <trkpt lat="45.16184" lon="5.67679">
        <ele>495</ele>
        <time>2015-08-23T07:39:02.000Z</time>
      </trkpt>
      <trkpt lat="45.16187" lon="5.67674">
        <ele>491</ele>
        <time>2015-08-23T07:39:04.000Z</time>
      </trkpt>
      <trkpt lat="45.16187" lon="5.67674">
        <ele>491</ele>
        <time>2015-08-23T07:39:06.000Z</time>
      </trkpt>
      <trkpt lat="45.16191" lon="5.67668">
        <ele>495</ele>
        <time>2015-08-23T07:39:08.000Z</time>
      </trkpt>
      <trkpt lat="45.16197" lon="5.67659">
        <ele>501</ele>
        <time>2015-08-23T07:39:16.000Z</time>
      </trkpt>
      <trkpt lat="45.16202" lon="5.67652">
        <ele>501</ele>
        <time>2015-08-23T07:39:18.000Z</time>
      </trkpt>
      <trkpt lat="45.16205" lon="5.67648">
        <ele>503</ele>
        <time>2015-08-23T07:39:20.000Z</time>
      </trkpt>
      <trkpt lat="45.16208" lon="5.67642">
        <ele>507</ele>
        <time>2015-08-23T07:39:24.000Z</time>
      </trkpt>
      <trkpt lat="45.16212" lon="5.67637">
        <ele>508</ele>
        <time>2015-08-23T07:39:28.000Z</time>
      </trkpt>
      <trkpt lat="45.16215" lon="5.67631">
        <ele>505</ele>
        <time>2015-08-23T07:39:32.000Z</time>
      </trkpt>
      <trkpt lat="45.16218" lon="5.67625">
        <ele>509</ele>
        <time>2015-08-23T07:39:38.000Z</time>
      </trkpt>
      <trkpt lat="45.1622" lon="5.67619">
        <ele>507</ele>
        <time>2015-08-23T07:39:42.000Z</time>
      </trkpt>
      <trkpt lat="45.16223" lon="5.67612">
        <ele>509</ele>
        <time>2015-08-23T07:39:46.000Z</time>
      </trkpt>
      <trkpt lat="45.16224" lon="5.67605">
        <ele>509</ele>
        <time>2015-08-23T07:39:50.000Z</time>
      </trkpt>
      <trkpt lat="45.16226" lon="5.676">
        <ele>507</ele>
        <time>2015-08-23T07:39:54.000Z</time>
      </trkpt>
      <trkpt lat="45.16227" lon="5.67593">
        <ele>504</ele>
        <time>2015-08-23T07:39:58.000Z</time>
      </trkpt>
      <trkpt lat="45.16229" lon="5.67586">
        <ele>503</ele>
        <time>2015-08-23T07:40:02.000Z</time>
      </trkpt>
      <trkpt lat="45.16231" lon="5.67579">
        <ele>505</ele>
        <time>2015-08-23T07:40:06.000Z</time>
      </trkpt>
      <trkpt lat="45.16233" lon="5.67573">
        <ele>506</ele>
        <time>2015-08-23T07:40:08.000Z</time>
      </trkpt>
      <trkpt lat="45.16235" lon="5.67567">
        <ele>508</ele>
        <time>2015-08-23T07:40:12.000Z</time>
      </trkpt>
      <trkpt lat="45.16237" lon="5.6756">
        <ele>514</ele>
        <time>2015-08-23T07:40:16.000Z</time>
      </trkpt>
      <trkpt lat="45.16239" lon="5.67553">
        <ele>516</ele>
        <time>2015-08-23T07:40:20.000Z</time>
      </trkpt>
      <trkpt lat="45.16241" lon="5.67547">
        <ele>515</ele>
        <time>2015-08-23T07:40:24.000Z</time>
      </trkpt>
      <trkpt lat="45.16243" lon="5.6754">
        <ele>515</ele>
        <time>2015-08-23T07:40:29.000Z</time>
      </trkpt>
      <trkpt lat="45.16246" lon="5.67533">
        <ele>450</ele>
        <time>2015-08-23T07:40:32.000Z</time>
      </trkpt>
      <trkpt lat="45.1625" lon="5.67527">
        <ele>488</ele>
        <time>2015-08-23T07:40:36.000Z</time>
      </trkpt>
      <trkpt lat="45.16253" lon="5.67522">
        <ele>504</ele>
        <time>2015-08-23T07:40:40.000Z</time>
      </trkpt>
      <trkpt lat="45.16257" lon="5.67518">
        <ele>513</ele>
        <time>2015-08-23T07:40:44.000Z</time>
      </trkpt>
      <trkpt lat="45.16261" lon="5.67515">
        <ele>517</ele>
        <time>2015-08-23T07:40:48.000Z</time>
      </trkpt>
      <trkpt lat="45.16266" lon="5.6751">
        <ele>515</ele>
        <time>2015-08-23T07:40:52.000Z</time>
      </trkpt>
      <trkpt lat="45.1627" lon="5.67507">
        <ele>514</ele>
        <time>2015-08-23T07:40:54.000Z</time>
      </trkpt>
      <trkpt lat="45.16274" lon="5.67504">
        <ele>517</ele>
        <time>2015-08-23T07:40:58.000Z</time>
      </trkpt>
      <trkpt lat="45.1628" lon="5.675">
        <ele>516</ele>
        <time>2015-08-23T07:41:02.000Z</time>
      </trkpt>
      <trkpt lat="45.16285" lon="5.67497">
        <ele>516</ele>
        <time>2015-08-23T07:41:06.000Z</time>
      </trkpt>
      <trkpt lat="45.1629" lon="5.67494">
        <ele>519</ele>
        <time>2015-08-23T07:41:10.000Z</time>
      </trkpt>
      <trkpt lat="45.16296" lon="5.67491">
        <ele>521</ele>
        <time>2015-08-23T07:41:14.000Z</time>
      </trkpt>
      <trkpt lat="45.16301" lon="5.67489">
        <ele>483</ele>
        <time>2015-08-23T07:41:18.000Z</time>
      </trkpt>
      <trkpt lat="45.16306" lon="5.67486">
        <ele>508</ele>
        <time>2015-08-23T07:41:22.000Z</time>
      </trkpt>
      <trkpt lat="45.16311" lon="5.67484">
        <ele>509</ele>
        <time>2015-08-23T07:41:24.000Z</time>
      </trkpt>
      <trkpt lat="45.16315" lon="5.67481">
        <ele>509</ele>
        <time>2015-08-23T07:41:28.000Z</time>
      </trkpt>
      <trkpt lat="45.16319" lon="5.67477">
        <ele>510</ele>
        <time>2015-08-23T07:41:32.000Z</time>
      </trkpt>
      <trkpt lat="45.16323" lon="5.67472">
        <ele>514</ele>
        <time>2015-08-23T07:41:36.000Z</time>
      </trkpt>
      <trkpt lat="45.16328" lon="5.67466">
        <ele>516</ele>
        <time>2015-08-23T07:41:40.000Z</time>
      </trkpt>
      <trkpt lat="45.16331" lon="5.67462">
        <ele>516</ele>
        <time>2015-08-23T07:41:42.000Z</time>
      </trkpt>
      <trkpt lat="45.16335" lon="5.67456">
        <ele>516</ele>
        <time>2015-08-23T07:41:46.000Z</time>
      </trkpt>
      <trkpt lat="45.16338" lon="5.6745">
        <ele>517</ele>
        <time>2015-08-23T07:41:50.000Z</time>
      </trkpt>
      <trkpt lat="45.16342" lon="5.67444">
        <ele>519</ele>
        <time>2015-08-23T07:41:54.000Z</time>
      </trkpt>
      <trkpt lat="45.16345" lon="5.67437">
        <ele>517</ele>
        <time>2015-08-23T07:41:58.000Z</time>
      </trkpt>
      <trkpt lat="45.16347" lon="5.67431">
        <ele>518</ele>
        <time>2015-08-23T07:42:00.000Z</time>
      </trkpt>
      <trkpt lat="45.16348" lon="5.67424">
        <ele>520</ele>
        <time>2015-08-23T07:42:04.000Z</time>
      </trkpt>
      <trkpt lat="45.16349" lon="5.67417">
        <ele>521</ele>
        <time>2015-08-23T07:42:08.000Z</time>
      </trkpt>
      <trkpt lat="45.1635" lon="5.6741">
        <ele>522</ele>
        <time>2015-08-23T07:42:12.000Z</time>
      </trkpt>
      <trkpt lat="45.1635" lon="5.67403">
        <ele>525</ele>
        <time>2015-08-23T07:42:16.000Z</time>
      </trkpt>
      <trkpt lat="45.16351" lon="5.67395">
        <ele>527</ele>
        <time>2015-08-23T07:42:20.000Z</time>
      </trkpt>
      <trkpt lat="45.16351" lon="5.67388">
        <ele>528</ele>
        <time>2015-08-23T07:42:24.000Z</time>
      </trkpt>
      <trkpt lat="45.16353" lon="5.6738">
        <ele>530</ele>
        <time>2015-08-23T07:42:28.000Z</time>
      </trkpt>
      <trkpt lat="45.16355" lon="5.67374">
        <ele>533</ele>
        <time>2015-08-23T07:42:32.000Z</time>
      </trkpt>
      <trkpt lat="45.16356" lon="5.67367">
        <ele>534</ele>
        <time>2015-08-23T07:42:36.000Z</time>
      </trkpt>
      <trkpt lat="45.16356" lon="5.67367">
        <ele>534</ele>
        <time>2015-08-23T07:42:38.000Z</time>
      </trkpt>
      <trkpt lat="45.16356" lon="5.67367">
        <ele>534</ele>
        <time>2015-08-23T07:42:40.000Z</time>
      </trkpt>
      <trkpt lat="45.16356" lon="5.67367">
        <ele>534</ele>
        <time>2015-08-23T07:42:42.000Z</time>
      </trkpt>
      <trkpt lat="45.16356" lon="5.67367">
        <ele>534</ele>
        <time>2015-08-23T07:42:44.000Z</time>
      </trkpt>
      <trkpt lat="45.16356" lon="5.67367">
        <ele>534</ele>
        <time>2015-08-23T07:42:46.000Z</time>
      </trkpt>
      <trkpt lat="45.16356" lon="5.67367">
        <ele>534</ele>
        <time>2015-08-23T07:42:48.000Z</time>
      </trkpt>
      <trkpt lat="45.16355" lon="5.67349">
        <ele>536</ele>
        <time>2015-08-23T07:42:58.000Z</time>
      </trkpt>
      <trkpt lat="45.16354" lon="5.67338">
        <ele>537</ele>
        <time>2015-08-23T07:43:00.000Z</time>
      </trkpt>
      <trkpt lat="45.16354" lon="5.67332">
        <ele>537</ele>
        <time>2015-08-23T07:43:02.000Z</time>
      </trkpt>
      <trkpt lat="45.16354" lon="5.67332">
        <ele>537</ele>
        <time>2015-08-23T07:43:04.000Z</time>
      </trkpt>
      <trkpt lat="45.16354" lon="5.67332">
        <ele>537</ele>
        <time>2015-08-23T07:43:06.000Z</time>
      </trkpt>
      <trkpt lat="45.16354" lon="5.67332">
        <ele>537</ele>
        <time>2015-08-23T07:43:08.000Z</time>
      </trkpt>
      <trkpt lat="45.16354" lon="5.67332">
        <ele>537</ele>
        <time>2015-08-23T07:43:10.000Z</time>
      </trkpt>
      <trkpt lat="45.16354" lon="5.67332">
        <ele>537</ele>
        <time>2015-08-23T07:43:12.000Z</time>
      </trkpt>
      <trkpt lat="45.16353" lon="5.67305">
        <ele>534</ele>
        <time>2015-08-23T07:46:04.000Z</time>
      </trkpt>
      <trkpt lat="45.16352" lon="5.6729">
        <ele>534</ele>
        <time>2015-08-23T07:46:06.000Z</time>
      </trkpt>
      <trkpt lat="45.16352" lon="5.6729">
        <ele>534</ele>
        <time>2015-08-23T07:46:08.000Z</time>
      </trkpt>
      <trkpt lat="45.16352" lon="5.6729">
        <ele>534</ele>
        <time>2015-08-23T07:46:10.000Z</time>
      </trkpt>
      <trkpt lat="45.16345" lon="5.67253">
        <ele>541</ele>
        <time>2015-08-23T07:46:38.000Z</time>
      </trkpt>
      <trkpt lat="45.16341" lon="5.67234">
        <ele>544</ele>
        <time>2015-08-23T07:46:40.000Z</time>
      </trkpt>
      <trkpt lat="45.16339" lon="5.67222">
        <ele>543</ele>
        <time>2015-08-23T07:46:42.000Z</time>
      </trkpt>
      <trkpt lat="45.16338" lon="5.67215">
        <ele>543</ele>
        <time>2015-08-23T07:46:44.000Z</time>
      </trkpt>
      <trkpt lat="45.16338" lon="5.67215">
        <ele>543</ele>
        <time>2015-08-23T07:46:46.000Z</time>
      </trkpt>
      <trkpt lat="45.16337" lon="5.67208">
        <ele>545</ele>
        <time>2015-08-23T07:46:48.000Z</time>
      </trkpt>
      <trkpt lat="45.16336" lon="5.67202">
        <ele>548</ele>
        <time>2015-08-23T07:46:52.000Z</time>
      </trkpt>
      <trkpt lat="45.16336" lon="5.67195">
        <ele>546</ele>
        <time>2015-08-23T07:46:56.000Z</time>
      </trkpt>
      <trkpt lat="45.16337" lon="5.67187">
        <ele>547</ele>
        <time>2015-08-23T07:47:00.000Z</time>
      </trkpt>
      <trkpt lat="45.16338" lon="5.6718">
        <ele>546</ele>
        <time>2015-08-23T07:47:04.000Z</time>
      </trkpt>
      <trkpt lat="45.16339" lon="5.67174">
        <ele>545</ele>
        <time>2015-08-23T07:47:08.000Z</time>
      </trkpt>
      <trkpt lat="45.16339" lon="5.67174">
        <ele>545</ele>
        <time>2015-08-23T07:47:12.000Z</time>
      </trkpt>
      <trkpt lat="45.16339" lon="5.67174">
        <ele>545</ele>
        <time>2015-08-23T07:47:14.000Z</time>
      </trkpt>
      <trkpt lat="45.16339" lon="5.67174">
        <ele>545</ele>
        <time>2015-08-23T07:47:16.000Z</time>
      </trkpt>
      <trkpt lat="45.16342" lon="5.67166">
        <ele>549</ele>
        <time>2015-08-23T07:47:18.000Z</time>
      </trkpt>
      <trkpt lat="45.16345" lon="5.6716">
        <ele>479</ele>
        <time>2015-08-23T07:47:22.000Z</time>
      </trkpt>
      <trkpt lat="45.16348" lon="5.67154">
        <ele>535</ele>
        <time>2015-08-23T07:47:26.000Z</time>
      </trkpt>
      <trkpt lat="45.16353" lon="5.67151">
        <ele>546</ele>
        <time>2015-08-23T07:47:30.000Z</time>
      </trkpt>
      <trkpt lat="45.16357" lon="5.67149">
        <ele>550</ele>
        <time>2015-08-23T07:47:34.000Z</time>
      </trkpt>
      <trkpt lat="45.16362" lon="5.67146">
        <ele>551</ele>
        <time>2015-08-23T07:47:38.000Z</time>
      </trkpt>
      <trkpt lat="45.16362" lon="5.67146">
        <ele>551</ele>
        <time>2015-08-23T07:47:42.000Z</time>
      </trkpt>
      <trkpt lat="45.16362" lon="5.67146">
        <ele>551</ele>
        <time>2015-08-23T07:47:44.000Z</time>
      </trkpt>
      <trkpt lat="45.16362" lon="5.67146">
        <ele>551</ele>
        <time>2015-08-23T07:47:46.000Z</time>
      </trkpt>
      <trkpt lat="45.16362" lon="5.67146">
        <ele>551</ele>
        <time>2015-08-23T07:47:48.000Z</time>
      </trkpt>
      <trkpt lat="45.16362" lon="5.67146">
        <ele>551</ele>
        <time>2015-08-23T07:47:50.000Z</time>
      </trkpt>
      <trkpt lat="45.16362" lon="5.67146">
        <ele>551</ele>
        <time>2015-08-23T07:47:54.000Z</time>
      </trkpt>
      <trkpt lat="45.16362" lon="5.67146">
        <ele>551</ele>
        <time>2015-08-23T07:47:56.000Z</time>
      </trkpt>
      <trkpt lat="45.16363" lon="5.67137">
        <ele>554</ele>
        <time>2015-08-23T07:48:04.000Z</time>
      </trkpt>
      <trkpt lat="45.16359" lon="5.67132">
        <ele>553</ele>
        <time>2015-08-23T07:48:08.000Z</time>
      </trkpt>
      <trkpt lat="45.16354" lon="5.6713">
        <ele>554</ele>
        <time>2015-08-23T07:48:12.000Z</time>
      </trkpt>
      <trkpt lat="45.16354" lon="5.6713">
        <ele>554</ele>
        <time>2015-08-23T07:48:14.000Z</time>
      </trkpt>
      <trkpt lat="45.16348" lon="5.67131">
        <ele>555</ele>
        <time>2015-08-23T07:48:16.000Z</time>
      </trkpt>
      <trkpt lat="45.16344" lon="5.67134">
        <ele>555</ele>
        <time>2015-08-23T07:48:18.000Z</time>
      </trkpt>
      <trkpt lat="45.1634" lon="5.67136">
        <ele>555</ele>
        <time>2015-08-23T07:48:20.000Z</time>
      </trkpt>
      <trkpt lat="45.1634" lon="5.67136">
        <ele>555</ele>
        <time>2015-08-23T07:48:24.000Z</time>
      </trkpt>
      <trkpt lat="45.1634" lon="5.67136">
        <ele>555</ele>
        <time>2015-08-23T07:48:26.000Z</time>
      </trkpt>
      <trkpt lat="45.1634" lon="5.67136">
        <ele>555</ele>
        <time>2015-08-23T07:48:28.000Z</time>
      </trkpt>
      <trkpt lat="45.16328" lon="5.67157">
        <ele>557</ele>
        <time>2015-08-23T07:48:36.000Z</time>
      </trkpt>
      <trkpt lat="45.16321" lon="5.67171">
        <ele>556</ele>
        <time>2015-08-23T07:48:38.000Z</time>
      </trkpt>
      <trkpt lat="45.16317" lon="5.67181">
        <ele>556</ele>
        <time>2015-08-23T07:48:40.000Z</time>
      </trkpt>
      <trkpt lat="45.16313" lon="5.67191">
        <ele>556</ele>
        <time>2015-08-23T07:48:42.000Z</time>
      </trkpt>
      <trkpt lat="45.16311" lon="5.67199">
        <ele>555</ele>
        <time>2015-08-23T07:48:44.000Z</time>
      </trkpt>
      <trkpt lat="45.16306" lon="5.67215">
        <ele>554</ele>
        <time>2015-08-23T07:48:46.000Z</time>
      </trkpt>
      <trkpt lat="45.163" lon="5.67229">
        <ele>555</ele>
        <time>2015-08-23T07:48:50.000Z</time>
      </trkpt>
      <trkpt lat="45.16294" lon="5.67243">
        <ele>555</ele>
        <time>2015-08-23T07:48:54.000Z</time>
      </trkpt>
      <trkpt lat="45.16288" lon="5.67256">
        <ele>554</ele>
        <time>2015-08-23T07:48:58.000Z</time>
      </trkpt>
      <trkpt lat="45.16282" lon="5.6727">
        <ele>553</ele>
        <time>2015-08-23T07:49:02.000Z</time>
      </trkpt>
      <trkpt lat="45.16276" lon="5.67283">
        <ele>553</ele>
        <time>2015-08-23T07:49:06.000Z</time>
      </trkpt>
      <trkpt lat="45.16269" lon="5.67295">
        <ele>551</ele>
        <time>2015-08-23T07:49:10.000Z</time>
      </trkpt>
      <trkpt lat="45.1626" lon="5.67304">
        <ele>549</ele>
        <time>2015-08-23T07:49:14.000Z</time>
      </trkpt>
      <trkpt lat="45.16249" lon="5.6731">
        <ele>548</ele>
        <time>2015-08-23T07:49:18.000Z</time>
      </trkpt>
      <trkpt lat="45.16239" lon="5.67314">
        <ele>548</ele>
        <time>2015-08-23T07:49:22.000Z</time>
      </trkpt>
      <trkpt lat="45.16228" lon="5.67313">
        <ele>549</ele>
        <time>2015-08-23T07:49:26.000Z</time>
      </trkpt>
      <trkpt lat="45.16218" lon="5.67309">
        <ele>549</ele>
        <time>2015-08-23T07:49:30.000Z</time>
      </trkpt>
      <trkpt lat="45.16209" lon="5.67302">
        <ele>549</ele>
        <time>2015-08-23T07:49:34.000Z</time>
      </trkpt>
      <trkpt lat="45.16202" lon="5.67291">
        <ele>549</ele>
        <time>2015-08-23T07:49:38.000Z</time>
      </trkpt>
      <trkpt lat="45.16202" lon="5.67291">
        <ele>549</ele>
        <time>2015-08-23T07:49:42.000Z</time>
      </trkpt>
      <trkpt lat="45.16202" lon="5.67291">
        <ele>549</ele>
        <time>2015-08-23T07:49:44.000Z</time>
      </trkpt>
      <trkpt lat="45.16202" lon="5.67291">
        <ele>549</ele>
        <time>2015-08-23T07:49:46.000Z</time>
      </trkpt>
      <trkpt lat="45.16202" lon="5.67291">
        <ele>549</ele>
        <time>2015-08-23T07:49:48.000Z</time>
      </trkpt>
      <trkpt lat="45.16202" lon="5.67291">
        <ele>549</ele>
        <time>2015-08-23T07:49:50.000Z</time>
      </trkpt>
      <trkpt lat="45.16188" lon="5.67231">
        <ele>561</ele>
        <time>2015-08-23T07:50:00.000Z</time>
      </trkpt>
      <trkpt lat="45.16187" lon="5.67216">
        <ele>560</ele>
        <time>2015-08-23T07:50:04.000Z</time>
      </trkpt>
      <trkpt lat="45.16186" lon="5.67201">
        <ele>559</ele>
        <time>2015-08-23T07:50:08.000Z</time>
      </trkpt>
      <trkpt lat="45.16184" lon="5.67185">
        <ele>560</ele>
        <time>2015-08-23T07:50:12.000Z</time>
      </trkpt>
      <trkpt lat="45.16179" lon="5.67173">
        <ele>560</ele>
        <time>2015-08-23T07:50:16.000Z</time>
      </trkpt>
      <trkpt lat="45.16179" lon="5.67173">
        <ele>560</ele>
        <time>2015-08-23T07:50:18.000Z</time>
      </trkpt>
      <trkpt lat="45.16175" lon="5.67156">
        <ele>558</ele>
        <time>2015-08-23T07:50:20.000Z</time>
      </trkpt>
      <trkpt lat="45.16172" lon="5.67143">
        <ele>556</ele>
        <time>2015-08-23T07:50:24.000Z</time>
      </trkpt>
      <trkpt lat="45.16172" lon="5.67143">
        <ele>556</ele>
        <time>2015-08-23T07:50:26.000Z</time>
      </trkpt>
      <trkpt lat="45.1617" lon="5.67136">
        <ele>553</ele>
        <time>2015-08-23T07:50:28.000Z</time>
      </trkpt>
      <trkpt lat="45.1617" lon="5.67136">
        <ele>553</ele>
        <time>2015-08-23T07:50:30.000Z</time>
      </trkpt>
      <trkpt lat="45.1617" lon="5.67136">
        <ele>553</ele>
        <time>2015-08-23T07:50:32.000Z</time>
      </trkpt>
      <trkpt lat="45.1617" lon="5.67136">
        <ele>553</ele>
        <time>2015-08-23T07:50:34.000Z</time>
      </trkpt>
      <trkpt lat="45.1617" lon="5.67136">
        <ele>553</ele>
        <time>2015-08-23T07:50:36.000Z</time>
      </trkpt>
      <trkpt lat="45.1617" lon="5.67136">
        <ele>553</ele>
        <time>2015-08-23T07:50:38.000Z</time>
      </trkpt>
      <trkpt lat="45.1617" lon="5.67136">
        <ele>553</ele>
        <time>2015-08-23T07:50:40.000Z</time>
      </trkpt>
      <trkpt lat="45.1617" lon="5.67136">
        <ele>553</ele>
        <time>2015-08-23T07:50:42.000Z</time>
      </trkpt>
      <trkpt lat="45.1617" lon="5.67128">
        <ele>550</ele>
        <time>2015-08-23T07:50:58.000Z</time>
      </trkpt>
      <trkpt lat="45.16175" lon="5.67133">
        <ele>550</ele>
        <time>2015-08-23T07:51:06.000Z</time>
      </trkpt>
      <trkpt lat="45.16179" lon="5.67139">
        <ele>550</ele>
        <time>2015-08-23T07:51:08.000Z</time>
      </trkpt>
      <trkpt lat="45.16182" lon="5.67144">
        <ele>549</ele>
        <time>2015-08-23T07:51:10.000Z</time>
      </trkpt>
      <trkpt lat="45.16184" lon="5.67152">
        <ele>550</ele>
        <time>2015-08-23T07:51:14.000Z</time>
      </trkpt>
      <trkpt lat="45.16184" lon="5.67152">
        <ele>550</ele>
        <time>2015-08-23T07:51:16.000Z</time>
      </trkpt>
      <trkpt lat="45.16188" lon="5.67174">
        <ele>545</ele>
        <time>2015-08-23T07:51:26.000Z</time>
      </trkpt>
      <trkpt lat="45.16191" lon="5.67189">
        <ele>544</ele>
        <time>2015-08-23T07:51:28.000Z</time>
      </trkpt>
      <trkpt lat="45.16192" lon="5.67199">
        <ele>544</ele>
        <time>2015-08-23T07:51:30.000Z</time>
      </trkpt>
      <trkpt lat="45.16192" lon="5.67208">
        <ele>546</ele>
        <time>2015-08-23T07:51:32.000Z</time>
      </trkpt>
      <trkpt lat="45.16193" lon="5.67216">
        <ele>544</ele>
        <time>2015-08-23T07:51:34.000Z</time>
      </trkpt>
      <trkpt lat="45.16195" lon="5.67231">
        <ele>542</ele>
        <time>2015-08-23T07:51:36.000Z</time>
      </trkpt>
      <trkpt lat="45.16196" lon="5.67243">
        <ele>541</ele>
        <time>2015-08-23T07:51:40.000Z</time>
      </trkpt>
      <trkpt lat="45.16199" lon="5.67256">
        <ele>541</ele>
        <time>2015-08-23T07:51:44.000Z</time>
      </trkpt>
      <trkpt lat="45.16199" lon="5.67269">
        <ele>544</ele>
        <time>2015-08-23T07:51:48.000Z</time>
      </trkpt>
      <trkpt lat="45.16203" lon="5.67286">
        <ele>545</ele>
        <time>2015-08-23T07:51:54.000Z</time>
      </trkpt>
      <trkpt lat="45.16209" lon="5.67302">
        <ele>550</ele>
        <time>2015-08-23T07:52:00.000Z</time>
      </trkpt>
      <trkpt lat="45.1622" lon="5.67313">
        <ele>552</ele>
        <time>2015-08-23T07:52:06.000Z</time>
      </trkpt>
      <trkpt lat="45.16229" lon="5.67317">
        <ele>552</ele>
        <time>2015-08-23T07:52:10.000Z</time>
      </trkpt>
      <trkpt lat="45.16238" lon="5.67318">
        <ele>551</ele>
        <time>2015-08-23T07:52:14.000Z</time>
      </trkpt>
      <trkpt lat="45.16251" lon="5.67315">
        <ele>550</ele>
        <time>2015-08-23T07:52:20.000Z</time>
      </trkpt>
      <trkpt lat="45.16259" lon="5.6731">
        <ele>550</ele>
        <time>2015-08-23T07:52:24.000Z</time>
      </trkpt>
      <trkpt lat="45.16267" lon="5.67303">
        <ele>551</ele>
        <time>2015-08-23T07:52:28.000Z</time>
      </trkpt>
      <trkpt lat="45.16267" lon="5.67303">
        <ele>551</ele>
        <time>2015-08-23T07:52:33.000Z</time>
      </trkpt>
      <trkpt lat="45.16267" lon="5.67303">
        <ele>551</ele>
        <time>2015-08-23T07:52:34.000Z</time>
      </trkpt>
      <trkpt lat="45.16267" lon="5.67303">
        <ele>551</ele>
        <time>2015-08-23T07:52:36.000Z</time>
      </trkpt>
      <trkpt lat="45.16267" lon="5.67303">
        <ele>551</ele>
        <time>2015-08-23T07:52:38.000Z</time>
      </trkpt>
      <trkpt lat="45.16288" lon="5.6726">
        <ele>556</ele>
        <time>2015-08-23T07:52:47.000Z</time>
      </trkpt>
      <trkpt lat="45.16294" lon="5.67245">
        <ele>557</ele>
        <time>2015-08-23T07:52:53.000Z</time>
      </trkpt>
      <trkpt lat="45.16299" lon="5.67234">
        <ele>559</ele>
        <time>2015-08-23T07:52:57.000Z</time>
      </trkpt>
      <trkpt lat="45.16304" lon="5.67223">
        <ele>561</ele>
        <time>2015-08-23T07:53:01.000Z</time>
      </trkpt>
      <trkpt lat="45.16309" lon="5.67207">
        <ele>562</ele>
        <time>2015-08-23T07:53:07.000Z</time>
      </trkpt>
      <trkpt lat="45.16311" lon="5.67198">
        <ele>565</ele>
        <time>2015-08-23T07:53:13.000Z</time>
      </trkpt>
      <trkpt lat="45.16311" lon="5.67198">
        <ele>565</ele>
        <time>2015-08-23T07:53:15.000Z</time>
      </trkpt>
      <trkpt lat="45.16311" lon="5.67198">
        <ele>565</ele>
        <time>2015-08-23T07:53:17.000Z</time>
      </trkpt>
      <trkpt lat="45.16311" lon="5.67198">
        <ele>565</ele>
        <time>2015-08-23T07:53:19.000Z</time>
      </trkpt>
      <trkpt lat="45.16311" lon="5.67198">
        <ele>565</ele>
        <time>2015-08-23T07:53:21.000Z</time>
      </trkpt>
      <trkpt lat="45.16319" lon="5.67176">
        <ele>566</ele>
        <time>2015-08-23T07:53:31.000Z</time>
      </trkpt>
      <trkpt lat="45.16325" lon="5.67163">
        <ele>572</ele>
        <time>2015-08-23T07:53:33.000Z</time>
      </trkpt>
      <trkpt lat="45.1633" lon="5.67155">
        <ele>569</ele>
        <time>2015-08-23T07:53:35.000Z</time>
      </trkpt>
      <trkpt lat="45.16334" lon="5.67149">
        <ele>566</ele>
        <time>2015-08-23T07:53:37.000Z</time>
      </trkpt>
      <trkpt lat="45.16339" lon="5.67144">
        <ele>565</ele>
        <time>2015-08-23T07:53:39.000Z</time>
      </trkpt>
      <trkpt lat="45.16348" lon="5.67135">
        <ele>566</ele>
        <time>2015-08-23T07:53:41.000Z</time>
      </trkpt>
      <trkpt lat="45.16355" lon="5.67129">
        <ele>564</ele>
        <time>2015-08-23T07:53:45.000Z</time>
      </trkpt>
      <trkpt lat="45.16355" lon="5.67129">
        <ele>564</ele>
        <time>2015-08-23T07:53:47.000Z</time>
      </trkpt>
      <trkpt lat="45.16355" lon="5.67129">
        <ele>564</ele>
        <time>2015-08-23T07:53:49.000Z</time>
      </trkpt>
      <trkpt lat="45.16355" lon="5.67129">
        <ele>564</ele>
        <time>2015-08-23T07:53:51.000Z</time>
      </trkpt>
      <trkpt lat="45.16355" lon="5.67129">
        <ele>564</ele>
        <time>2015-08-23T07:53:53.000Z</time>
      </trkpt>
      <trkpt lat="45.16355" lon="5.67129">
        <ele>564</ele>
        <time>2015-08-23T07:53:55.000Z</time>
      </trkpt>
      <trkpt lat="45.16355" lon="5.67129">
        <ele>564</ele>
        <time>2015-08-23T07:53:57.000Z</time>
      </trkpt>
      <trkpt lat="45.16355" lon="5.67129">
        <ele>564</ele>
        <time>2015-08-23T07:53:59.000Z</time>
      </trkpt>
      <trkpt lat="45.16384" lon="5.67105">
        <ele>565</ele>
        <time>2015-08-23T07:54:09.000Z</time>
      </trkpt>
      <trkpt lat="45.16391" lon="5.67093">
        <ele>567</ele>
        <time>2015-08-23T07:54:19.000Z</time>
      </trkpt>
      <trkpt lat="45.16397" lon="5.67081">
        <ele>572</ele>
        <time>2015-08-23T07:54:29.000Z</time>
      </trkpt>
      <trkpt lat="45.16402" lon="5.67071">
        <ele>574</ele>
        <time>2015-08-23T07:54:37.000Z</time>
      </trkpt>
      <trkpt lat="45.16401" lon="5.67056">
        <ele>575</ele>
        <time>2015-08-23T07:54:47.000Z</time>
      </trkpt>
      <trkpt lat="45.16399" lon="5.67049">
        <ele>577</ele>
        <time>2015-08-23T07:54:55.000Z</time>
      </trkpt>
      <trkpt lat="45.16397" lon="5.67043">
        <ele>578</ele>
        <time>2015-08-23T07:54:59.000Z</time>
      </trkpt>
      <trkpt lat="45.16394" lon="5.67037">
        <ele>576</ele>
        <time>2015-08-23T07:55:05.000Z</time>
      </trkpt>
      <trkpt lat="45.16389" lon="5.67034">
        <ele>576</ele>
        <time>2015-08-23T07:55:09.000Z</time>
      </trkpt>
      <trkpt lat="45.16383" lon="5.67033">
        <ele>576</ele>
        <time>2015-08-23T07:55:13.000Z</time>
      </trkpt>
      <trkpt lat="45.16377" lon="5.67032">
        <ele>576</ele>
        <time>2015-08-23T07:55:15.000Z</time>
      </trkpt>
      <trkpt lat="45.16373" lon="5.67032">
        <ele>575</ele>
        <time>2015-08-23T07:55:17.000Z</time>
      </trkpt>
      <trkpt lat="45.16368" lon="5.67032">
        <ele>575</ele>
        <time>2015-08-23T07:55:19.000Z</time>
      </trkpt>
      <trkpt lat="45.16362" lon="5.67033">
        <ele>574</ele>
        <time>2015-08-23T07:55:23.000Z</time>
      </trkpt>
      <trkpt lat="45.16356" lon="5.67034">
        <ele>575</ele>
        <time>2015-08-23T07:55:25.000Z</time>
      </trkpt>
      <trkpt lat="45.16352" lon="5.67036">
        <ele>575</ele>
        <time>2015-08-23T07:55:27.000Z</time>
      </trkpt>
      <trkpt lat="45.16345" lon="5.67038">
        <ele>576</ele>
        <time>2015-08-23T07:55:31.000Z</time>
      </trkpt>
      <trkpt lat="45.1634" lon="5.6704">
        <ele>576</ele>
        <time>2015-08-23T07:55:33.000Z</time>
      </trkpt>
      <trkpt lat="45.16336" lon="5.67042">
        <ele>577</ele>
        <time>2015-08-23T07:55:35.000Z</time>
      </trkpt>
      <trkpt lat="45.1633" lon="5.67044">
        <ele>579</ele>
        <time>2015-08-23T07:55:39.000Z</time>
      </trkpt>
      <trkpt lat="45.16326" lon="5.67046">
        <ele>580</ele>
        <time>2015-08-23T07:55:41.000Z</time>
      </trkpt>
      <trkpt lat="45.1632" lon="5.67049">
        <ele>584</ele>
        <time>2015-08-23T07:55:45.000Z</time>
      </trkpt>
      <trkpt lat="45.16316" lon="5.67052">
        <ele>585</ele>
        <time>2015-08-23T07:55:47.000Z</time>
      </trkpt>
      <trkpt lat="45.16316" lon="5.67052">
        <ele>585</ele>
        <time>2015-08-23T07:55:49.000Z</time>
      </trkpt>
      <trkpt lat="45.16316" lon="5.67052">
        <ele>585</ele>
        <time>2015-08-23T07:55:51.000Z</time>
      </trkpt>
      <trkpt lat="45.16316" lon="5.67052">
        <ele>585</ele>
        <time>2015-08-23T07:55:53.000Z</time>
      </trkpt>
      <trkpt lat="45.16316" lon="5.67052">
        <ele>585</ele>
        <time>2015-08-23T07:55:55.000Z</time>
      </trkpt>
      <trkpt lat="45.16298" lon="5.67058">
        <ele>588</ele>
        <time>2015-08-23T07:56:05.000Z</time>
      </trkpt>
      <trkpt lat="45.16287" lon="5.67062">
        <ele>589</ele>
        <time>2015-08-23T07:56:07.000Z</time>
      </trkpt>
      <trkpt lat="45.1628" lon="5.67062">
        <ele>589</ele>
        <time>2015-08-23T07:56:09.000Z</time>
      </trkpt>
      <trkpt lat="45.16274" lon="5.67062">
        <ele>589</ele>
        <time>2015-08-23T07:56:11.000Z</time>
      </trkpt>
      <trkpt lat="45.16269" lon="5.67061">
        <ele>588</ele>
        <time>2015-08-23T07:56:13.000Z</time>
      </trkpt>
      <trkpt lat="45.16269" lon="5.67061">
        <ele>588</ele>
        <time>2015-08-23T07:56:17.000Z</time>
      </trkpt>
      <trkpt lat="45.16269" lon="5.67061">
        <ele>588</ele>
        <time>2015-08-23T07:56:19.000Z</time>
      </trkpt>
      <trkpt lat="45.16254" lon="5.67058">
        <ele>587</ele>
        <time>2015-08-23T07:56:25.000Z</time>
      </trkpt>
      <trkpt lat="45.16233" lon="5.67066">
        <ele>590</ele>
        <time>2015-08-23T07:56:57.000Z</time>
      </trkpt>
      <trkpt lat="45.16226" lon="5.67058">
        <ele>591</ele>
        <time>2015-08-23T07:57:03.000Z</time>
      </trkpt>
      <trkpt lat="45.16215" lon="5.67047">
        <ele>588</ele>
        <time>2015-08-23T07:57:09.000Z</time>
      </trkpt>
      <trkpt lat="45.16215" lon="5.67047">
        <ele>588</ele>
        <time>2015-08-23T07:57:13.000Z</time>
      </trkpt>
      <trkpt lat="45.16215" lon="5.67047">
        <ele>588</ele>
        <time>2015-08-23T07:57:15.000Z</time>
      </trkpt>
      <trkpt lat="45.16208" lon="5.67037">
        <ele>583</ele>
        <time>2015-08-23T07:57:23.000Z</time>
      </trkpt>
      <trkpt lat="45.16204" lon="5.67033">
        <ele>581</ele>
        <time>2015-08-23T07:57:25.000Z</time>
      </trkpt>
      <trkpt lat="45.16204" lon="5.67033">
        <ele>581</ele>
        <time>2015-08-23T07:57:27.000Z</time>
      </trkpt>
      <trkpt lat="45.16196" lon="5.67029">
        <ele>573</ele>
        <time>2015-08-23T07:57:33.000Z</time>
      </trkpt>
      <trkpt lat="45.1619" lon="5.67027">
        <ele>575</ele>
        <time>2015-08-23T07:57:35.000Z</time>
      </trkpt>
      <trkpt lat="45.16185" lon="5.67026">
        <ele>577</ele>
        <time>2015-08-23T07:57:37.000Z</time>
      </trkpt>
      <trkpt lat="45.16179" lon="5.67028">
        <ele>579</ele>
        <time>2015-08-23T07:57:41.000Z</time>
      </trkpt>
      <trkpt lat="45.16174" lon="5.67029">
        <ele>577</ele>
        <time>2015-08-23T07:57:43.000Z</time>
      </trkpt>
      <trkpt lat="45.16168" lon="5.67031">
        <ele>576</ele>
        <time>2015-08-23T07:57:45.000Z</time>
      </trkpt>
      <trkpt lat="45.16162" lon="5.67033">
        <ele>576</ele>
        <time>2015-08-23T07:57:47.000Z</time>
      </trkpt>
      <trkpt lat="45.16157" lon="5.67035">
        <ele>575</ele>
        <time>2015-08-23T07:57:49.000Z</time>
      </trkpt>
      <trkpt lat="45.16148" lon="5.67039">
        <ele>575</ele>
        <time>2015-08-23T07:57:51.000Z</time>
      </trkpt>
      <trkpt lat="45.16148" lon="5.67039">
        <ele>575</ele>
        <time>2015-08-23T07:57:53.000Z</time>
      </trkpt>
      <trkpt lat="45.16148" lon="5.67039">
        <ele>575</ele>
        <time>2015-08-23T07:57:55.000Z</time>
      </trkpt>
      <trkpt lat="45.16148" lon="5.67039">
        <ele>575</ele>
        <time>2015-08-23T07:57:57.000Z</time>
      </trkpt>
      <trkpt lat="45.16148" lon="5.67039">
        <ele>575</ele>
        <time>2015-08-23T07:57:59.000Z</time>
      </trkpt>
      <trkpt lat="45.16122" lon="5.67048">
        <ele>569</ele>
        <time>2015-08-23T07:58:03.000Z</time>
      </trkpt>
      <trkpt lat="45.16109" lon="5.67054">
        <ele>568</ele>
        <time>2015-08-23T07:58:07.000Z</time>
      </trkpt>
      <trkpt lat="45.16098" lon="5.6706">
        <ele>566</ele>
        <time>2015-08-23T07:58:11.000Z</time>
      </trkpt>
      <trkpt lat="45.16098" lon="5.6706">
        <ele>566</ele>
        <time>2015-08-23T07:58:13.000Z</time>
      </trkpt>
      <trkpt lat="45.16098" lon="5.6706">
        <ele>566</ele>
        <time>2015-08-23T07:58:15.000Z</time>
      </trkpt>
      <trkpt lat="45.16098" lon="5.6706">
        <ele>566</ele>
        <time>2015-08-23T07:58:17.000Z</time>
      </trkpt>
      <trkpt lat="45.16098" lon="5.6706">
        <ele>566</ele>
        <time>2015-08-23T07:58:19.000Z</time>
      </trkpt>
      <trkpt lat="45.16098" lon="5.6706">
        <ele>566</ele>
        <time>2015-08-23T07:58:21.000Z</time>
      </trkpt>
      <trkpt lat="45.16065" lon="5.67074">
        <ele>562</ele>
        <time>2015-08-23T07:58:27.000Z</time>
      </trkpt>
      <trkpt lat="45.16056" lon="5.67076">
        <ele>561</ele>
        <time>2015-08-23T07:58:31.000Z</time>
      </trkpt>
      <trkpt lat="45.16056" lon="5.67076">
        <ele>561</ele>
        <time>2015-08-23T07:58:35.000Z</time>
      </trkpt>
      <trkpt lat="45.16056" lon="5.67076">
        <ele>561</ele>
        <time>2015-08-23T07:58:37.000Z</time>
      </trkpt>
      <trkpt lat="45.16056" lon="5.67076">
        <ele>561</ele>
        <time>2015-08-23T07:58:39.000Z</time>
      </trkpt>
      <trkpt lat="45.16035" lon="5.67083">
        <ele>558</ele>
        <time>2015-08-23T07:58:43.000Z</time>
      </trkpt>
      <trkpt lat="45.16022" lon="5.67083">
        <ele>557</ele>
        <time>2015-08-23T07:58:49.000Z</time>
      </trkpt>
      <trkpt lat="45.16022" lon="5.67083">
        <ele>557</ele>
        <time>2015-08-23T07:58:51.000Z</time>
      </trkpt>
      <trkpt lat="45.16022" lon="5.67083">
        <ele>557</ele>
        <time>2015-08-23T07:58:53.000Z</time>
      </trkpt>
      <trkpt lat="45.15999" lon="5.67086">
        <ele>552</ele>
        <time>2015-08-23T07:58:59.000Z</time>
      </trkpt>
      <trkpt lat="45.15999" lon="5.67086">
        <ele>552</ele>
        <time>2015-08-23T07:59:03.000Z</time>
      </trkpt>
      <trkpt lat="45.15999" lon="5.67086">
        <ele>552</ele>
        <time>2015-08-23T07:59:05.000Z</time>
      </trkpt>
      <trkpt lat="45.15999" lon="5.67086">
        <ele>552</ele>
        <time>2015-08-23T07:59:07.000Z</time>
      </trkpt>
      <trkpt lat="45.15999" lon="5.67086">
        <ele>552</ele>
        <time>2015-08-23T07:59:09.000Z</time>
      </trkpt>
      <trkpt lat="45.16003" lon="5.67083">
        <ele>549</ele>
        <time>2015-08-23T07:59:59.000Z</time>
      </trkpt>
      <trkpt lat="45.16008" lon="5.67081">
        <ele>551</ele>
        <time>2015-08-23T08:00:03.000Z</time>
      </trkpt>
      <trkpt lat="45.16013" lon="5.6708">
        <ele>553</ele>
        <time>2015-08-23T08:00:07.000Z</time>
      </trkpt>
      <trkpt lat="45.16017" lon="5.67077">
        <ele>549</ele>
        <time>2015-08-23T08:00:11.000Z</time>
      </trkpt>
      <trkpt lat="45.16022" lon="5.67076">
        <ele>554</ele>
        <time>2015-08-23T08:00:15.000Z</time>
      </trkpt>
      <trkpt lat="45.16027" lon="5.67075">
        <ele>553</ele>
        <time>2015-08-23T08:00:19.000Z</time>
      </trkpt>
      <trkpt lat="45.16032" lon="5.67074">
        <ele>553</ele>
        <time>2015-08-23T08:00:23.000Z</time>
      </trkpt>
      <trkpt lat="45.16037" lon="5.67071">
        <ele>549</ele>
        <time>2015-08-23T08:00:27.000Z</time>
      </trkpt>
      <trkpt lat="45.16042" lon="5.67068">
        <ele>547</ele>
        <time>2015-08-23T08:00:29.000Z</time>
      </trkpt>
      <trkpt lat="45.16046" lon="5.67063">
        <ele>549</ele>
        <time>2015-08-23T08:00:33.000Z</time>
      </trkpt>
      <trkpt lat="45.16051" lon="5.67059">
        <ele>548</ele>
        <time>2015-08-23T08:00:37.000Z</time>
      </trkpt>
      <trkpt lat="45.16051" lon="5.67059">
        <ele>548</ele>
        <time>2015-08-23T08:00:39.000Z</time>
      </trkpt>
      <trkpt lat="45.1606" lon="5.67055">
        <ele>555</ele>
        <time>2015-08-23T08:00:49.000Z</time>
      </trkpt>
      <trkpt lat="45.16066" lon="5.67053">
        <ele>556</ele>
        <time>2015-08-23T08:00:52.000Z</time>
      </trkpt>
      <trkpt lat="45.16066" lon="5.67053">
        <ele>556</ele>
        <time>2015-08-23T08:00:55.000Z</time>
      </trkpt>
      <trkpt lat="45.16066" lon="5.67053">
        <ele>556</ele>
        <time>2015-08-23T08:00:57.000Z</time>
      </trkpt>
      <trkpt lat="45.16066" lon="5.67053">
        <ele>556</ele>
        <time>2015-08-23T08:00:59.000Z</time>
      </trkpt>
      <trkpt lat="45.16076" lon="5.67049">
        <ele>554</ele>
        <time>2015-08-23T08:01:03.000Z</time>
      </trkpt>
      <trkpt lat="45.16082" lon="5.67046">
        <ele>553</ele>
        <time>2015-08-23T08:01:05.000Z</time>
      </trkpt>
      <trkpt lat="45.16087" lon="5.67043">
        <ele>553</ele>
        <time>2015-08-23T08:01:07.000Z</time>
      </trkpt>
      <trkpt lat="45.16092" lon="5.67039">
        <ele>554</ele>
        <time>2015-08-23T08:01:11.000Z</time>
      </trkpt>
      <trkpt lat="45.16097" lon="5.67036">
        <ele>550</ele>
        <time>2015-08-23T08:01:15.000Z</time>
      </trkpt>
      <trkpt lat="45.16102" lon="5.67035">
        <ele>551</ele>
        <time>2015-08-23T08:01:19.000Z</time>
      </trkpt>
      <trkpt lat="45.16107" lon="5.67035">
        <ele>553</ele>
        <time>2015-08-23T08:01:23.000Z</time>
      </trkpt>
      <trkpt lat="45.16111" lon="5.67034">
        <ele>553</ele>
        <time>2015-08-23T08:01:27.000Z</time>
      </trkpt>
      <trkpt lat="45.16116" lon="5.67033">
        <ele>556</ele>
        <time>2015-08-23T08:01:31.000Z</time>
      </trkpt>
      <trkpt lat="45.16122" lon="5.67031">
        <ele>558</ele>
        <time>2015-08-23T08:01:35.000Z</time>
      </trkpt>
      <trkpt lat="45.16126" lon="5.67029">
        <ele>530</ele>
        <time>2015-08-23T08:01:37.000Z</time>
      </trkpt>
      <trkpt lat="45.16131" lon="5.67026">
        <ele>542</ele>
        <time>2015-08-23T08:01:41.000Z</time>
      </trkpt>
      <trkpt lat="45.16135" lon="5.67024">
        <ele>551</ele>
        <time>2015-08-23T08:01:45.000Z</time>
      </trkpt>
      <trkpt lat="45.1614" lon="5.6702">
        <ele>554</ele>
        <time>2015-08-23T08:01:49.000Z</time>
      </trkpt>
      <trkpt lat="45.16145" lon="5.67018">
        <ele>559</ele>
        <time>2015-08-23T08:01:53.000Z</time>
      </trkpt>
      <trkpt lat="45.1615" lon="5.67015">
        <ele>561</ele>
        <time>2015-08-23T08:01:57.000Z</time>
      </trkpt>
      <trkpt lat="45.16155" lon="5.67012">
        <ele>564</ele>
        <time>2015-08-23T08:02:01.000Z</time>
      </trkpt>
      <trkpt lat="45.16159" lon="5.67011">
        <ele>565</ele>
        <time>2015-08-23T08:02:05.000Z</time>
      </trkpt>
      <trkpt lat="45.16164" lon="5.67009">
        <ele>566</ele>
        <time>2015-08-23T08:02:11.000Z</time>
      </trkpt>
      <trkpt lat="45.16169" lon="5.67007">
        <ele>568</ele>
        <time>2015-08-23T08:02:15.000Z</time>
      </trkpt>
      <trkpt lat="45.16174" lon="5.67009">
        <ele>572</ele>
        <time>2015-08-23T08:02:21.000Z</time>
      </trkpt>
      <trkpt lat="45.16179" lon="5.67011">
        <ele>572</ele>
        <time>2015-08-23T08:02:25.000Z</time>
      </trkpt>
      <trkpt lat="45.16184" lon="5.67011">
        <ele>572</ele>
        <time>2015-08-23T08:02:29.000Z</time>
      </trkpt>
      <trkpt lat="45.16184" lon="5.67011">
        <ele>572</ele>
        <time>2015-08-23T08:02:31.000Z</time>
      </trkpt>
      <trkpt lat="45.16184" lon="5.67011">
        <ele>572</ele>
        <time>2015-08-23T08:02:33.000Z</time>
      </trkpt>
      <trkpt lat="45.16184" lon="5.67011">
        <ele>572</ele>
        <time>2015-08-23T08:02:35.000Z</time>
      </trkpt>
      <trkpt lat="45.16184" lon="5.67011">
        <ele>572</ele>
        <time>2015-08-23T08:02:37.000Z</time>
      </trkpt>
      <trkpt lat="45.16196" lon="5.67015">
        <ele>575</ele>
        <time>2015-08-23T08:02:47.000Z</time>
      </trkpt>
      <trkpt lat="45.16202" lon="5.67017">
        <ele>573</ele>
        <time>2015-08-23T08:02:49.000Z</time>
      </trkpt>
      <trkpt lat="45.16207" lon="5.67019">
        <ele>580</ele>
        <time>2015-08-23T08:02:54.000Z</time>
      </trkpt>
      <trkpt lat="45.16207" lon="5.67019">
        <ele>580</ele>
        <time>2015-08-23T08:03:00.000Z</time>
      </trkpt>
      <trkpt lat="45.16207" lon="5.67019">
        <ele>580</ele>
        <time>2015-08-23T08:03:02.000Z</time>
      </trkpt>
      <trkpt lat="45.16207" lon="5.67019">
        <ele>580</ele>
        <time>2015-08-23T08:03:04.000Z</time>
      </trkpt>
      <trkpt lat="45.16207" lon="5.67019">
        <ele>580</ele>
        <time>2015-08-23T08:03:06.000Z</time>
      </trkpt>
      <trkpt lat="45.16207" lon="5.67019">
        <ele>580</ele>
        <time>2015-08-23T08:03:08.000Z</time>
      </trkpt>
      <trkpt lat="45.16207" lon="5.67019">
        <ele>580</ele>
        <time>2015-08-23T08:03:10.000Z</time>
      </trkpt>
      <trkpt lat="45.16216" lon="5.67034">
        <ele>581</ele>
        <time>2015-08-23T08:03:18.000Z</time>
      </trkpt>
      <trkpt lat="45.16222" lon="5.67043">
        <ele>579</ele>
        <time>2015-08-23T08:03:20.000Z</time>
      </trkpt>
      <trkpt lat="45.16225" lon="5.67049">
        <ele>579</ele>
        <time>2015-08-23T08:03:22.000Z</time>
      </trkpt>
      <trkpt lat="45.16229" lon="5.67054">
        <ele>578</ele>
        <time>2015-08-23T08:03:26.000Z</time>
      </trkpt>
      <trkpt lat="45.16234" lon="5.67059">
        <ele>577</ele>
        <time>2015-08-23T08:03:30.000Z</time>
      </trkpt>
      <trkpt lat="45.16238" lon="5.67062">
        <ele>578</ele>
        <time>2015-08-23T08:03:34.000Z</time>
      </trkpt>
      <trkpt lat="45.16243" lon="5.67063">
        <ele>575</ele>
        <time>2015-08-23T08:03:38.000Z</time>
      </trkpt>
      <trkpt lat="45.16248" lon="5.67066">
        <ele>584</ele>
        <time>2015-08-23T08:03:42.000Z</time>
      </trkpt>
      <trkpt lat="45.16253" lon="5.67066">
        <ele>587</ele>
        <time>2015-08-23T08:03:46.000Z</time>
      </trkpt>
      <trkpt lat="45.16256" lon="5.67063">
        <ele>590</ele>
        <time>2015-08-23T08:03:52.000Z</time>
      </trkpt>
      <trkpt lat="45.16257" lon="5.67056">
        <ele>590</ele>
        <time>2015-08-23T08:03:58.000Z</time>
      </trkpt>
      <trkpt lat="45.16254" lon="5.6705">
        <ele>591</ele>
        <time>2015-08-23T08:04:02.000Z</time>
      </trkpt>
      <trkpt lat="45.16251" lon="5.67045">
        <ele>593</ele>
        <time>2015-08-23T08:04:06.000Z</time>
      </trkpt>
      <trkpt lat="45.16248" lon="5.67039">
        <ele>593</ele>
        <time>2015-08-23T08:04:10.000Z</time>
      </trkpt>
      <trkpt lat="45.16244" lon="5.67034">
        <ele>594</ele>
        <time>2015-08-23T08:04:14.000Z</time>
      </trkpt>
      <trkpt lat="45.16241" lon="5.67027">
        <ele>596</ele>
        <time>2015-08-23T08:04:18.000Z</time>
      </trkpt>
      <trkpt lat="45.16238" lon="5.67021">
        <ele>597</ele>
        <time>2015-08-23T08:04:22.000Z</time>
      </trkpt>
      <trkpt lat="45.16236" lon="5.67014">
        <ele>598</ele>
        <time>2015-08-23T08:04:26.000Z</time>
      </trkpt>
      <trkpt lat="45.16234" lon="5.67007">
        <ele>598</ele>
        <time>2015-08-23T08:04:30.000Z</time>
      </trkpt>
      <trkpt lat="45.1623" lon="5.66999">
        <ele>598</ele>
        <time>2015-08-23T08:04:34.000Z</time>
      </trkpt>
      <trkpt lat="45.16227" lon="5.66993">
        <ele>597</ele>
        <time>2015-08-23T08:04:36.000Z</time>
      </trkpt>
      <trkpt lat="45.16225" lon="5.66987">
        <ele>598</ele>
        <time>2015-08-23T08:04:38.000Z</time>
      </trkpt>
      <trkpt lat="45.16222" lon="5.6698">
        <ele>600</ele>
        <time>2015-08-23T08:04:42.000Z</time>
      </trkpt>
      <trkpt lat="45.16219" lon="5.66974">
        <ele>600</ele>
        <time>2015-08-23T08:04:44.000Z</time>
      </trkpt>
      <trkpt lat="45.16217" lon="5.66966">
        <ele>601</ele>
        <time>2015-08-23T08:04:48.000Z</time>
      </trkpt>
      <trkpt lat="45.16214" lon="5.66959">
        <ele>601</ele>
        <time>2015-08-23T08:04:50.000Z</time>
      </trkpt>
      <trkpt lat="45.16209" lon="5.66953">
        <ele>600</ele>
        <time>2015-08-23T08:04:54.000Z</time>
      </trkpt>
      <trkpt lat="45.16205" lon="5.66948">
        <ele>600</ele>
        <time>2015-08-23T08:04:56.000Z</time>
      </trkpt>
      <trkpt lat="45.16201" lon="5.66945">
        <ele>602</ele>
        <time>2015-08-23T08:04:58.000Z</time>
      </trkpt>
      <trkpt lat="45.16196" lon="5.66941">
        <ele>604</ele>
        <time>2015-08-23T08:05:02.000Z</time>
      </trkpt>
      <trkpt lat="45.16196" lon="5.66941">
        <ele>604</ele>
        <time>2015-08-23T08:05:04.000Z</time>
      </trkpt>
      <trkpt lat="45.16196" lon="5.66941">
        <ele>604</ele>
        <time>2015-08-23T08:05:06.000Z</time>
      </trkpt>
      <trkpt lat="45.16196" lon="5.66941">
        <ele>604</ele>
        <time>2015-08-23T08:05:12.000Z</time>
      </trkpt>
      <trkpt lat="45.16196" lon="5.66941">
        <ele>604</ele>
        <time>2015-08-23T08:05:14.000Z</time>
      </trkpt>
      <trkpt lat="45.16196" lon="5.66941">
        <ele>604</ele>
        <time>2015-08-23T08:05:16.000Z</time>
      </trkpt>
      <trkpt lat="45.16175" lon="5.66925">
        <ele>609</ele>
        <time>2015-08-23T08:05:26.000Z</time>
      </trkpt>
      <trkpt lat="45.16163" lon="5.66916">
        <ele>611</ele>
        <time>2015-08-23T08:05:28.000Z</time>
      </trkpt>
      <trkpt lat="45.16156" lon="5.6691">
        <ele>609</ele>
        <time>2015-08-23T08:05:30.000Z</time>
      </trkpt>
      <trkpt lat="45.1615" lon="5.66905">
        <ele>611</ele>
        <time>2015-08-23T08:05:32.000Z</time>
      </trkpt>
      <trkpt lat="45.16146" lon="5.669">
        <ele>611</ele>
        <time>2015-08-23T08:05:34.000Z</time>
      </trkpt>
      <trkpt lat="45.16137" lon="5.66888">
        <ele>612</ele>
        <time>2015-08-23T08:05:38.000Z</time>
      </trkpt>
      <trkpt lat="45.16137" lon="5.66888">
        <ele>612</ele>
        <time>2015-08-23T08:05:40.000Z</time>
      </trkpt>
      <trkpt lat="45.16137" lon="5.66888">
        <ele>612</ele>
        <time>2015-08-23T08:05:42.000Z</time>
      </trkpt>
      <trkpt lat="45.16137" lon="5.66888">
        <ele>612</ele>
        <time>2015-08-23T08:05:44.000Z</time>
      </trkpt>
      <trkpt lat="45.16137" lon="5.66888">
        <ele>612</ele>
        <time>2015-08-23T08:05:46.000Z</time>
      </trkpt>
      <trkpt lat="45.16119" lon="5.66867">
        <ele>613</ele>
        <time>2015-08-23T08:05:50.000Z</time>
      </trkpt>
      <trkpt lat="45.16119" lon="5.66867">
        <ele>613</ele>
        <time>2015-08-23T08:05:56.000Z</time>
      </trkpt>
      <trkpt lat="45.16119" lon="5.66867">
        <ele>613</ele>
        <time>2015-08-23T08:05:58.000Z</time>
      </trkpt>
      <trkpt lat="45.16097" lon="5.66839">
        <ele>615</ele>
        <time>2015-08-23T08:06:06.000Z</time>
      </trkpt>
      <trkpt lat="45.16087" lon="5.66831">
        <ele>615</ele>
        <time>2015-08-23T08:06:12.000Z</time>
      </trkpt>
      <trkpt lat="45.16079" lon="5.66823">
        <ele>616</ele>
        <time>2015-08-23T08:06:18.000Z</time>
      </trkpt>
      <trkpt lat="45.16071" lon="5.66814">
        <ele>617</ele>
        <time>2015-08-23T08:06:24.000Z</time>
      </trkpt>
      <trkpt lat="45.16071" lon="5.66814">
        <ele>617</ele>
        <time>2015-08-23T08:06:30.000Z</time>
      </trkpt>
      <trkpt lat="45.16071" lon="5.66814">
        <ele>617</ele>
        <time>2015-08-23T08:06:32.000Z</time>
      </trkpt>
      <trkpt lat="45.16071" lon="5.66814">
        <ele>617</ele>
        <time>2015-08-23T08:06:34.000Z</time>
      </trkpt>
      <trkpt lat="45.16071" lon="5.66814">
        <ele>617</ele>
        <time>2015-08-23T08:06:36.000Z</time>
      </trkpt>
      <trkpt lat="45.16071" lon="5.66814">
        <ele>617</ele>
        <time>2015-08-23T08:06:38.000Z</time>
      </trkpt>
      <trkpt lat="45.16053" lon="5.66798">
        <ele>614</ele>
        <time>2015-08-23T08:06:42.000Z</time>
      </trkpt>
      <trkpt lat="45.16049" lon="5.66793">
        <ele>618</ele>
        <time>2015-08-23T08:06:52.000Z</time>
      </trkpt>
      <trkpt lat="45.16045" lon="5.66789">
        <ele>619</ele>
        <time>2015-08-23T08:06:56.000Z</time>
      </trkpt>
      <trkpt lat="45.16041" lon="5.66784">
        <ele>620</ele>
        <time>2015-08-23T08:07:00.000Z</time>
      </trkpt>
      <trkpt lat="45.16038" lon="5.66779">
        <ele>617</ele>
        <time>2015-08-23T08:07:02.000Z</time>
      </trkpt>
      <trkpt lat="45.16034" lon="5.66771">
        <ele>617</ele>
        <time>2015-08-23T08:07:06.000Z</time>
      </trkpt>
      <trkpt lat="45.16031" lon="5.66764">
        <ele>617</ele>
        <time>2015-08-23T08:07:08.000Z</time>
      </trkpt>
      <trkpt lat="45.16029" lon="5.66758">
        <ele>617</ele>
        <time>2015-08-23T08:07:10.000Z</time>
      </trkpt>
      <trkpt lat="45.16027" lon="5.66752">
        <ele>617</ele>
        <time>2015-08-23T08:07:12.000Z</time>
      </trkpt>
      <trkpt lat="45.16027" lon="5.66752">
        <ele>617</ele>
        <time>2015-08-23T08:07:14.000Z</time>
      </trkpt>
      <trkpt lat="45.16025" lon="5.66743">
        <ele>617</ele>
        <time>2015-08-23T08:07:16.000Z</time>
      </trkpt>
      <trkpt lat="45.16023" lon="5.66735">
        <ele>618</ele>
        <time>2015-08-23T08:07:18.000Z</time>
      </trkpt>
      <trkpt lat="45.16022" lon="5.66729">
        <ele>619</ele>
        <time>2015-08-23T08:07:20.000Z</time>
      </trkpt>
      <trkpt lat="45.1602" lon="5.66723">
        <ele>619</ele>
        <time>2015-08-23T08:07:22.000Z</time>
      </trkpt>
      <trkpt lat="45.16017" lon="5.66714">
        <ele>620</ele>
        <time>2015-08-23T08:07:26.000Z</time>
      </trkpt>
      <trkpt lat="45.16014" lon="5.66707">
        <ele>620</ele>
        <time>2015-08-23T08:07:28.000Z</time>
      </trkpt>
      <trkpt lat="45.16014" lon="5.66707">
        <ele>620</ele>
        <time>2015-08-23T08:07:30.000Z</time>
      </trkpt>
      <trkpt lat="45.16014" lon="5.66707">
        <ele>620</ele>
        <time>2015-08-23T08:07:32.000Z</time>
      </trkpt>
      <trkpt lat="45.16008" lon="5.66696">
        <ele>620</ele>
        <time>2015-08-23T08:07:36.000Z</time>
      </trkpt>
      <trkpt lat="45.16003" lon="5.66688">
        <ele>621</ele>
        <time>2015-08-23T08:07:38.000Z</time>
      </trkpt>
      <trkpt lat="45.16" lon="5.66682">
        <ele>621</ele>
        <time>2015-08-23T08:07:40.000Z</time>
      </trkpt>
      <trkpt lat="45.15996" lon="5.66678">
        <ele>622</ele>
        <time>2015-08-23T08:07:42.000Z</time>
      </trkpt>
      <trkpt lat="45.15991" lon="5.66674">
        <ele>625</ele>
        <time>2015-08-23T08:07:46.000Z</time>
      </trkpt>
      <trkpt lat="45.15991" lon="5.66674">
        <ele>625</ele>
        <time>2015-08-23T08:07:48.000Z</time>
      </trkpt>
      <trkpt lat="45.15991" lon="5.66674">
        <ele>625</ele>
        <time>2015-08-23T08:07:50.000Z</time>
      </trkpt>
      <trkpt lat="45.15991" lon="5.66674">
        <ele>625</ele>
        <time>2015-08-23T08:07:52.000Z</time>
      </trkpt>
      <trkpt lat="45.15991" lon="5.66674">
        <ele>625</ele>
        <time>2015-08-23T08:07:54.000Z</time>
      </trkpt>
      <trkpt lat="45.15991" lon="5.66674">
        <ele>625</ele>
        <time>2015-08-23T08:08:00.000Z</time>
      </trkpt>
      <trkpt lat="45.15991" lon="5.66674">
        <ele>625</ele>
        <time>2015-08-23T08:08:02.000Z</time>
      </trkpt>
      <trkpt lat="45.15991" lon="5.66674">
        <ele>625</ele>
        <time>2015-08-23T08:08:04.000Z</time>
      </trkpt>
      <trkpt lat="45.15991" lon="5.66674">
        <ele>625</ele>
        <time>2015-08-23T08:08:06.000Z</time>
      </trkpt>
      <trkpt lat="45.15965" lon="5.66672">
        <ele>626</ele>
        <time>2015-08-23T08:08:16.000Z</time>
      </trkpt>
      <trkpt lat="45.1595" lon="5.6667">
        <ele>626</ele>
        <time>2015-08-23T08:08:18.000Z</time>
      </trkpt>
      <trkpt lat="45.1594" lon="5.66669">
        <ele>625</ele>
        <time>2015-08-23T08:08:20.000Z</time>
      </trkpt>
      <trkpt lat="45.15933" lon="5.66667">
        <ele>625</ele>
        <time>2015-08-23T08:08:22.000Z</time>
      </trkpt>
      <trkpt lat="45.15928" lon="5.66666">
        <ele>627</ele>
        <time>2015-08-23T08:08:24.000Z</time>
      </trkpt>
      <trkpt lat="45.15918" lon="5.66661">
        <ele>624</ele>
        <time>2015-08-23T08:08:26.000Z</time>
      </trkpt>
      <trkpt lat="45.1591" lon="5.66654">
        <ele>624</ele>
        <time>2015-08-23T08:08:30.000Z</time>
      </trkpt>
      <trkpt lat="45.1591" lon="5.66654">
        <ele>624</ele>
        <time>2015-08-23T08:08:34.000Z</time>
      </trkpt>
      <trkpt lat="45.1591" lon="5.66654">
        <ele>624</ele>
        <time>2015-08-23T08:08:36.000Z</time>
      </trkpt>
      <trkpt lat="45.15884" lon="5.66632">
        <ele>633</ele>
        <time>2015-08-23T08:08:46.000Z</time>
      </trkpt>
      <trkpt lat="45.15874" lon="5.6662">
        <ele>631</ele>
        <time>2015-08-23T08:08:52.000Z</time>
      </trkpt>
      <trkpt lat="45.15874" lon="5.6662">
        <ele>631</ele>
        <time>2015-08-23T08:08:56.000Z</time>
      </trkpt>
      <trkpt lat="45.15868" lon="5.66605">
        <ele>630</ele>
        <time>2015-08-23T08:08:58.000Z</time>
      </trkpt>
      <trkpt lat="45.1586" lon="5.66593">
        <ele>629</ele>
        <time>2015-08-23T08:09:04.000Z</time>
      </trkpt>
      <trkpt lat="45.1586" lon="5.66593">
        <ele>629</ele>
        <time>2015-08-23T08:09:08.000Z</time>
      </trkpt>
      <trkpt lat="45.1586" lon="5.66593">
        <ele>629</ele>
        <time>2015-08-23T08:09:10.000Z</time>
      </trkpt>
      <trkpt lat="45.15846" lon="5.66574">
        <ele>630</ele>
        <time>2015-08-23T08:09:14.000Z</time>
      </trkpt>
      <trkpt lat="45.15837" lon="5.66562">
        <ele>631</ele>
        <time>2015-08-23T08:09:20.000Z</time>
      </trkpt>
      <trkpt lat="45.15828" lon="5.6655">
        <ele>632</ele>
        <time>2015-08-23T08:09:26.000Z</time>
      </trkpt>
      <trkpt lat="45.15818" lon="5.66539">
        <ele>634</ele>
        <time>2015-08-23T08:09:32.000Z</time>
      </trkpt>
      <trkpt lat="45.15808" lon="5.66526">
        <ele>632</ele>
        <time>2015-08-23T08:09:38.000Z</time>
      </trkpt>
      <trkpt lat="45.15799" lon="5.66514">
        <ele>632</ele>
        <time>2015-08-23T08:09:44.000Z</time>
      </trkpt>
      <trkpt lat="45.15795" lon="5.66507">
        <ele>631</ele>
        <time>2015-08-23T08:09:50.000Z</time>
      </trkpt>
      <trkpt lat="45.15792" lon="5.66501">
        <ele>632</ele>
        <time>2015-08-23T08:09:52.000Z</time>
      </trkpt>
      <trkpt lat="45.15789" lon="5.66493">
        <ele>631</ele>
        <time>2015-08-23T08:09:56.000Z</time>
      </trkpt>
      <trkpt lat="45.15786" lon="5.66486">
        <ele>632</ele>
        <time>2015-08-23T08:09:58.000Z</time>
      </trkpt>
      <trkpt lat="45.15784" lon="5.6648">
        <ele>633</ele>
        <time>2015-08-23T08:10:00.000Z</time>
      </trkpt>
      <trkpt lat="45.15781" lon="5.66472">
        <ele>634</ele>
        <time>2015-08-23T08:10:04.000Z</time>
      </trkpt>
      <trkpt lat="45.15778" lon="5.66466">
        <ele>634</ele>
        <time>2015-08-23T08:10:06.000Z</time>
      </trkpt>
      <trkpt lat="45.15775" lon="5.66458">
        <ele>634</ele>
        <time>2015-08-23T08:10:10.000Z</time>
      </trkpt>
      <trkpt lat="45.15772" lon="5.66451">
        <ele>634</ele>
        <time>2015-08-23T08:10:12.000Z</time>
      </trkpt>
      <trkpt lat="45.15769" lon="5.66443">
        <ele>635</ele>
        <time>2015-08-23T08:10:16.000Z</time>
      </trkpt>
      <trkpt lat="45.15766" lon="5.66437">
        <ele>635</ele>
        <time>2015-08-23T08:10:18.000Z</time>
      </trkpt>
      <trkpt lat="45.15766" lon="5.66437">
        <ele>635</ele>
        <time>2015-08-23T08:10:22.000Z</time>
      </trkpt>
      <trkpt lat="45.15766" lon="5.66437">
        <ele>635</ele>
        <time>2015-08-23T08:10:24.000Z</time>
      </trkpt>
      <trkpt lat="45.15766" lon="5.66437">
        <ele>635</ele>
        <time>2015-08-23T08:10:26.000Z</time>
      </trkpt>
      <trkpt lat="45.15766" lon="5.66437">
        <ele>635</ele>
        <time>2015-08-23T08:10:28.000Z</time>
      </trkpt>
      <trkpt lat="45.15766" lon="5.66437">
        <ele>635</ele>
        <time>2015-08-23T08:10:30.000Z</time>
      </trkpt>
      <trkpt lat="45.15766" lon="5.66437">
        <ele>635</ele>
        <time>2015-08-23T08:10:32.000Z</time>
      </trkpt>
      <trkpt lat="45.15752" lon="5.66423">
        <ele>638</ele>
        <time>2015-08-23T08:10:38.000Z</time>
      </trkpt>
      <trkpt lat="45.15744" lon="5.66416">
        <ele>638</ele>
        <time>2015-08-23T08:10:40.000Z</time>
      </trkpt>
      <trkpt lat="45.15738" lon="5.66411">
        <ele>639</ele>
        <time>2015-08-23T08:10:42.000Z</time>
      </trkpt>
      <trkpt lat="45.15733" lon="5.66407">
        <ele>639</ele>
        <time>2015-08-23T08:10:46.000Z</time>
      </trkpt>
      <trkpt lat="45.15728" lon="5.66402">
        <ele>638</ele>
        <time>2015-08-23T08:10:50.000Z</time>
      </trkpt>
      <trkpt lat="45.15723" lon="5.66397">
        <ele>639</ele>
        <time>2015-08-23T08:10:54.000Z</time>
      </trkpt>
      <trkpt lat="45.15719" lon="5.66391">
        <ele>639</ele>
        <time>2015-08-23T08:10:58.000Z</time>
      </trkpt>
      <trkpt lat="45.15715" lon="5.66384">
        <ele>640</ele>
        <time>2015-08-23T08:11:02.000Z</time>
      </trkpt>
      <trkpt lat="45.15712" lon="5.66379">
        <ele>639</ele>
        <time>2015-08-23T08:11:04.000Z</time>
      </trkpt>
      <trkpt lat="45.1571" lon="5.66372">
        <ele>641</ele>
        <time>2015-08-23T08:11:08.000Z</time>
      </trkpt>
      <trkpt lat="45.15709" lon="5.66365">
        <ele>641</ele>
        <time>2015-08-23T08:11:12.000Z</time>
      </trkpt>
      <trkpt lat="45.15709" lon="5.66356">
        <ele>641</ele>
        <time>2015-08-23T08:11:16.000Z</time>
      </trkpt>
      <trkpt lat="45.15709" lon="5.6635">
        <ele>641</ele>
        <time>2015-08-23T08:11:18.000Z</time>
      </trkpt>
      <trkpt lat="45.15711" lon="5.66342">
        <ele>642</ele>
        <time>2015-08-23T08:11:22.000Z</time>
      </trkpt>
      <trkpt lat="45.15712" lon="5.66336">
        <ele>641</ele>
        <time>2015-08-23T08:11:24.000Z</time>
      </trkpt>
      <trkpt lat="45.15717" lon="5.66329">
        <ele>644</ele>
        <time>2015-08-23T08:11:28.000Z</time>
      </trkpt>
      <trkpt lat="45.15721" lon="5.66324">
        <ele>643</ele>
        <time>2015-08-23T08:11:30.000Z</time>
      </trkpt>
      <trkpt lat="45.15725" lon="5.66319">
        <ele>642</ele>
        <time>2015-08-23T08:11:32.000Z</time>
      </trkpt>
      <trkpt lat="45.15729" lon="5.66316">
        <ele>642</ele>
        <time>2015-08-23T08:11:34.000Z</time>
      </trkpt>
      <trkpt lat="45.15733" lon="5.66314">
        <ele>642</ele>
        <time>2015-08-23T08:11:36.000Z</time>
      </trkpt>
      <trkpt lat="45.15742" lon="5.6631">
        <ele>641</ele>
        <time>2015-08-23T08:11:38.000Z</time>
      </trkpt>
      <trkpt lat="45.15742" lon="5.6631">
        <ele>641</ele>
        <time>2015-08-23T08:11:40.000Z</time>
      </trkpt>
      <trkpt lat="45.15742" lon="5.6631">
        <ele>641</ele>
        <time>2015-08-23T08:11:42.000Z</time>
      </trkpt>
      <trkpt lat="45.15742" lon="5.6631">
        <ele>641</ele>
        <time>2015-08-23T08:11:46.000Z</time>
      </trkpt>
      <trkpt lat="45.15742" lon="5.6631">
        <ele>641</ele>
        <time>2015-08-23T08:11:48.000Z</time>
      </trkpt>
      <trkpt lat="45.15777" lon="5.66382">
        <ele>637</ele>
        <time>2015-08-23T08:12:05.000Z</time>
      </trkpt>
      <trkpt lat="45.1579" lon="5.6638">
        <ele>635</ele>
        <time>2015-08-23T08:12:09.000Z</time>
      </trkpt>
      <trkpt lat="45.158" lon="5.6639">
        <ele>643</ele>
        <time>2015-08-23T08:12:15.000Z</time>
      </trkpt>
      <trkpt lat="45.158" lon="5.6639">
        <ele>643</ele>
        <time>2015-08-23T08:12:19.000Z</time>
      </trkpt>
      <trkpt lat="45.158" lon="5.6639">
        <ele>643</ele>
        <time>2015-08-23T08:12:21.000Z</time>
      </trkpt>
      <trkpt lat="45.158" lon="5.6639">
        <ele>643</ele>
        <time>2015-08-23T08:12:23.000Z</time>
      </trkpt>
      <trkpt lat="45.158" lon="5.6639">
        <ele>643</ele>
        <time>2015-08-23T08:12:25.000Z</time>
      </trkpt>
      <trkpt lat="45.1583" lon="5.66423">
        <ele>649</ele>
        <time>2015-08-23T08:12:33.000Z</time>
      </trkpt>
      <trkpt lat="45.15838" lon="5.66431">
        <ele>647</ele>
        <time>2015-08-23T08:12:37.000Z</time>
      </trkpt>
      <trkpt lat="45.15847" lon="5.66437">
        <ele>645</ele>
        <time>2015-08-23T08:12:41.000Z</time>
      </trkpt>
      <trkpt lat="45.15857" lon="5.66441">
        <ele>644</ele>
        <time>2015-08-23T08:12:45.000Z</time>
      </trkpt>
      <trkpt lat="45.15867" lon="5.66441">
        <ele>644</ele>
        <time>2015-08-23T08:12:49.000Z</time>
      </trkpt>
      <trkpt lat="45.15878" lon="5.66441">
        <ele>643</ele>
        <time>2015-08-23T08:12:53.000Z</time>
      </trkpt>
      <trkpt lat="45.15888" lon="5.66441">
        <ele>641</ele>
        <time>2015-08-23T08:12:57.000Z</time>
      </trkpt>
      <trkpt lat="45.15898" lon="5.6644">
        <ele>641</ele>
        <time>2015-08-23T08:13:01.000Z</time>
      </trkpt>
      <trkpt lat="45.15898" lon="5.6644">
        <ele>641</ele>
        <time>2015-08-23T08:13:05.000Z</time>
      </trkpt>
      <trkpt lat="45.15898" lon="5.6644">
        <ele>641</ele>
        <time>2015-08-23T08:13:07.000Z</time>
      </trkpt>
      <trkpt lat="45.15898" lon="5.6644">
        <ele>641</ele>
        <time>2015-08-23T08:13:09.000Z</time>
      </trkpt>
      <trkpt lat="45.15898" lon="5.6644">
        <ele>641</ele>
        <time>2015-08-23T08:13:11.000Z</time>
      </trkpt>
      <trkpt lat="45.15898" lon="5.6644">
        <ele>641</ele>
        <time>2015-08-23T08:13:13.000Z</time>
      </trkpt>
      <trkpt lat="45.15916" lon="5.66437">
        <ele>646</ele>
        <time>2015-08-23T08:13:23.000Z</time>
      </trkpt>
      <trkpt lat="45.15926" lon="5.66435">
        <ele>646</ele>
        <time>2015-08-23T08:13:25.000Z</time>
      </trkpt>
      <trkpt lat="45.15932" lon="5.66434">
        <ele>647</ele>
        <time>2015-08-23T08:13:27.000Z</time>
      </trkpt>
      <trkpt lat="45.15937" lon="5.66433">
        <ele>647</ele>
        <time>2015-08-23T08:13:29.000Z</time>
      </trkpt>
      <trkpt lat="45.15943" lon="5.66431">
        <ele>646</ele>
        <time>2015-08-23T08:13:33.000Z</time>
      </trkpt>
      <trkpt lat="45.15948" lon="5.6643">
        <ele>646</ele>
        <time>2015-08-23T08:13:37.000Z</time>
      </trkpt>
      <trkpt lat="45.15948" lon="5.6643">
        <ele>646</ele>
        <time>2015-08-23T08:13:41.000Z</time>
      </trkpt>
      <trkpt lat="45.15948" lon="5.6643">
        <ele>646</ele>
        <time>2015-08-23T08:13:43.000Z</time>
      </trkpt>
      <trkpt lat="45.15948" lon="5.6643">
        <ele>646</ele>
        <time>2015-08-23T08:13:45.000Z</time>
      </trkpt>
      <trkpt lat="45.15948" lon="5.6643">
        <ele>646</ele>
        <time>2015-08-23T08:13:47.000Z</time>
      </trkpt>
      <trkpt lat="45.15963" lon="5.66433">
        <ele>649</ele>
        <time>2015-08-23T08:13:53.000Z</time>
      </trkpt>
      <trkpt lat="45.15972" lon="5.66435">
        <ele>649</ele>
        <time>2015-08-23T08:13:55.000Z</time>
      </trkpt>
      <trkpt lat="45.15977" lon="5.66438">
        <ele>649</ele>
        <time>2015-08-23T08:13:57.000Z</time>
      </trkpt>
      <trkpt lat="45.15977" lon="5.66438">
        <ele>649</ele>
        <time>2015-08-23T08:13:59.000Z</time>
      </trkpt>
      <trkpt lat="45.15977" lon="5.66438">
        <ele>649</ele>
        <time>2015-08-23T08:14:01.000Z</time>
      </trkpt>
      <trkpt lat="45.15977" lon="5.66438">
        <ele>649</ele>
        <time>2015-08-23T08:14:05.000Z</time>
      </trkpt>
      <trkpt lat="45.15977" lon="5.66438">
        <ele>649</ele>
        <time>2015-08-23T08:14:07.000Z</time>
      </trkpt>
      <trkpt lat="45.15988" lon="5.66446">
        <ele>653</ele>
        <time>2015-08-23T08:14:11.000Z</time>
      </trkpt>
      <trkpt lat="45.15994" lon="5.66451">
        <ele>653</ele>
        <time>2015-08-23T08:14:13.000Z</time>
      </trkpt>
      <trkpt lat="45.15999" lon="5.66454">
        <ele>651</ele>
        <time>2015-08-23T08:14:15.000Z</time>
      </trkpt>
      <trkpt lat="45.16005" lon="5.66457">
        <ele>653</ele>
        <time>2015-08-23T08:14:19.000Z</time>
      </trkpt>
      <trkpt lat="45.1601" lon="5.66462">
        <ele>654</ele>
        <time>2015-08-23T08:14:23.000Z</time>
      </trkpt>
      <trkpt lat="45.16014" lon="5.66465">
        <ele>653</ele>
        <time>2015-08-23T08:14:25.000Z</time>
      </trkpt>
      <trkpt lat="45.16019" lon="5.66471">
        <ele>653</ele>
        <time>2015-08-23T08:14:29.000Z</time>
      </trkpt>
      <trkpt lat="45.16022" lon="5.66475">
        <ele>651</ele>
        <time>2015-08-23T08:14:31.000Z</time>
      </trkpt>
      <trkpt lat="45.16027" lon="5.66481">
        <ele>650</ele>
        <time>2015-08-23T08:14:35.000Z</time>
      </trkpt>
      <trkpt lat="45.16031" lon="5.66487">
        <ele>653</ele>
        <time>2015-08-23T08:14:39.000Z</time>
      </trkpt>
      <trkpt lat="45.16034" lon="5.66492">
        <ele>652</ele>
        <time>2015-08-23T08:14:41.000Z</time>
      </trkpt>
      <trkpt lat="45.16034" lon="5.66492">
        <ele>652</ele>
        <time>2015-08-23T08:14:43.000Z</time>
      </trkpt>
      <trkpt lat="45.16034" lon="5.66492">
        <ele>652</ele>
        <time>2015-08-23T08:14:45.000Z</time>
      </trkpt>
      <trkpt lat="45.16034" lon="5.66492">
        <ele>652</ele>
        <time>2015-08-23T08:14:47.000Z</time>
      </trkpt>
      <trkpt lat="45.16041" lon="5.66501">
        <ele>655</ele>
        <time>2015-08-23T08:14:51.000Z</time>
      </trkpt>
      <trkpt lat="45.16046" lon="5.66506">
        <ele>656</ele>
        <time>2015-08-23T08:14:53.000Z</time>
      </trkpt>
      <trkpt lat="45.16046" lon="5.66506">
        <ele>656</ele>
        <time>2015-08-23T08:14:55.000Z</time>
      </trkpt>
      <trkpt lat="45.16046" lon="5.66506">
        <ele>656</ele>
        <time>2015-08-23T08:14:57.000Z</time>
      </trkpt>
      <trkpt lat="45.16046" lon="5.66506">
        <ele>656</ele>
        <time>2015-08-23T08:14:59.000Z</time>
      </trkpt>
      <trkpt lat="45.16046" lon="5.66506">
        <ele>656</ele>
        <time>2015-08-23T08:15:01.000Z</time>
      </trkpt>
      <trkpt lat="45.16059" lon="5.66515">
        <ele>658</ele>
        <time>2015-08-23T08:15:11.000Z</time>
      </trkpt>
      <trkpt lat="45.16068" lon="5.6652">
        <ele>658</ele>
        <time>2015-08-23T08:15:13.000Z</time>
      </trkpt>
      <trkpt lat="45.16073" lon="5.66523">
        <ele>658</ele>
        <time>2015-08-23T08:15:15.000Z</time>
      </trkpt>
      <trkpt lat="45.16079" lon="5.66526">
        <ele>659</ele>
        <time>2015-08-23T08:15:19.000Z</time>
      </trkpt>
      <trkpt lat="45.16084" lon="5.66527">
        <ele>659</ele>
        <time>2015-08-23T08:15:21.000Z</time>
      </trkpt>
      <trkpt lat="45.16088" lon="5.6653">
        <ele>661</ele>
        <time>2015-08-23T08:15:25.000Z</time>
      </trkpt>
      <trkpt lat="45.16093" lon="5.66531">
        <ele>663</ele>
        <time>2015-08-23T08:15:29.000Z</time>
      </trkpt>
      <trkpt lat="45.16099" lon="5.66533">
        <ele>663</ele>
        <time>2015-08-23T08:15:33.000Z</time>
      </trkpt>
      <trkpt lat="45.16105" lon="5.66535">
        <ele>662</ele>
        <time>2015-08-23T08:15:37.000Z</time>
      </trkpt>
      <trkpt lat="45.16109" lon="5.66536">
        <ele>662</ele>
        <time>2015-08-23T08:15:39.000Z</time>
      </trkpt>
      <trkpt lat="45.16114" lon="5.66537">
        <ele>666</ele>
        <time>2015-08-23T08:15:43.000Z</time>
      </trkpt>
      <trkpt lat="45.16119" lon="5.66539">
        <ele>667</ele>
        <time>2015-08-23T08:15:47.000Z</time>
      </trkpt>
      <trkpt lat="45.16124" lon="5.66542">
        <ele>667</ele>
        <time>2015-08-23T08:15:51.000Z</time>
      </trkpt>
      <trkpt lat="45.16124" lon="5.66542">
        <ele>667</ele>
        <time>2015-08-23T08:15:53.000Z</time>
      </trkpt>
      <trkpt lat="45.16124" lon="5.66542">
        <ele>667</ele>
        <time>2015-08-23T08:15:55.000Z</time>
      </trkpt>
      <trkpt lat="45.16124" lon="5.66542">
        <ele>667</ele>
        <time>2015-08-23T08:15:57.000Z</time>
      </trkpt>
      <trkpt lat="45.16124" lon="5.66542">
        <ele>667</ele>
        <time>2015-08-23T08:15:59.000Z</time>
      </trkpt>
      <trkpt lat="45.16136" lon="5.66555">
        <ele>667</ele>
        <time>2015-08-23T08:16:09.000Z</time>
      </trkpt>
      <trkpt lat="45.16144" lon="5.66563">
        <ele>669</ele>
        <time>2015-08-23T08:16:11.000Z</time>
      </trkpt>
      <trkpt lat="45.16148" lon="5.66569">
        <ele>670</ele>
        <time>2015-08-23T08:16:13.000Z</time>
      </trkpt>
      <trkpt lat="45.16152" lon="5.66575">
        <ele>671</ele>
        <time>2015-08-23T08:16:17.000Z</time>
      </trkpt>
      <trkpt lat="45.16156" lon="5.6658">
        <ele>672</ele>
        <time>2015-08-23T08:16:21.000Z</time>
      </trkpt>
      <trkpt lat="45.16161" lon="5.66585">
        <ele>671</ele>
        <time>2015-08-23T08:16:25.000Z</time>
      </trkpt>
      <trkpt lat="45.16166" lon="5.6659">
        <ele>668</ele>
        <time>2015-08-23T08:16:29.000Z</time>
      </trkpt>
      <trkpt lat="45.16169" lon="5.66595">
        <ele>669</ele>
        <time>2015-08-23T08:16:33.000Z</time>
      </trkpt>
      <trkpt lat="45.16174" lon="5.66599">
        <ele>672</ele>
        <time>2015-08-23T08:16:37.000Z</time>
      </trkpt>
      <trkpt lat="45.16179" lon="5.666">
        <ele>673</ele>
        <time>2015-08-23T08:16:41.000Z</time>
      </trkpt>
      <trkpt lat="45.16183" lon="5.66601">
        <ele>675</ele>
        <time>2015-08-23T08:16:45.000Z</time>
      </trkpt>
      <trkpt lat="45.16188" lon="5.66603">
        <ele>673</ele>
        <time>2015-08-23T08:16:49.000Z</time>
      </trkpt>
      <trkpt lat="45.16194" lon="5.66605">
        <ele>673</ele>
        <time>2015-08-23T08:16:53.000Z</time>
      </trkpt>
      <trkpt lat="45.16199" lon="5.66606">
        <ele>675</ele>
        <time>2015-08-23T08:16:57.000Z</time>
      </trkpt>
      <trkpt lat="45.16204" lon="5.66609">
        <ele>675</ele>
        <time>2015-08-23T08:17:01.000Z</time>
      </trkpt>
      <trkpt lat="45.16209" lon="5.66613">
        <ele>674</ele>
        <time>2015-08-23T08:17:05.000Z</time>
      </trkpt>
      <trkpt lat="45.16214" lon="5.66617">
        <ele>674</ele>
        <time>2015-08-23T08:17:09.000Z</time>
      </trkpt>
      <trkpt lat="45.1622" lon="5.66621">
        <ele>675</ele>
        <time>2015-08-23T08:17:13.000Z</time>
      </trkpt>
      <trkpt lat="45.16225" lon="5.66624">
        <ele>676</ele>
        <time>2015-08-23T08:17:17.000Z</time>
      </trkpt>
      <trkpt lat="45.1623" lon="5.66625">
        <ele>678</ele>
        <time>2015-08-23T08:17:21.000Z</time>
      </trkpt>
      <trkpt lat="45.1623" lon="5.66625">
        <ele>678</ele>
        <time>2015-08-23T08:17:25.000Z</time>
      </trkpt>
      <trkpt lat="45.1623" lon="5.66625">
        <ele>678</ele>
        <time>2015-08-23T08:17:27.000Z</time>
      </trkpt>
      <trkpt lat="45.1623" lon="5.66625">
        <ele>678</ele>
        <time>2015-08-23T08:17:29.000Z</time>
      </trkpt>
      <trkpt lat="45.1623" lon="5.66625">
        <ele>678</ele>
        <time>2015-08-23T08:17:31.000Z</time>
      </trkpt>
      <trkpt lat="45.16246" lon="5.66631">
        <ele>681</ele>
        <time>2015-08-23T08:17:41.000Z</time>
      </trkpt>
      <trkpt lat="45.16256" lon="5.66634">
        <ele>680</ele>
        <time>2015-08-23T08:17:43.000Z</time>
      </trkpt>
      <trkpt lat="45.16262" lon="5.66636">
        <ele>679</ele>
        <time>2015-08-23T08:17:45.000Z</time>
      </trkpt>
      <trkpt lat="45.16267" lon="5.66639">
        <ele>679</ele>
        <time>2015-08-23T08:17:47.000Z</time>
      </trkpt>
      <trkpt lat="45.16272" lon="5.66641">
        <ele>672</ele>
        <time>2015-08-23T08:17:51.000Z</time>
      </trkpt>
      <trkpt lat="45.16278" lon="5.66645">
        <ele>676</ele>
        <time>2015-08-23T08:17:55.000Z</time>
      </trkpt>
      <trkpt lat="45.16283" lon="5.66648">
        <ele>676</ele>
        <time>2015-08-23T08:17:59.000Z</time>
      </trkpt>
      <trkpt lat="45.16289" lon="5.66653">
        <ele>676</ele>
        <time>2015-08-23T08:18:03.000Z</time>
      </trkpt>
      <trkpt lat="45.16294" lon="5.66658">
        <ele>679</ele>
        <time>2015-08-23T08:18:07.000Z</time>
      </trkpt>
      <trkpt lat="45.16298" lon="5.66662">
        <ele>680</ele>
        <time>2015-08-23T08:18:09.000Z</time>
      </trkpt>
      <trkpt lat="45.16302" lon="5.66668">
        <ele>683</ele>
        <time>2015-08-23T08:18:13.000Z</time>
      </trkpt>
      <trkpt lat="45.16306" lon="5.66672">
        <ele>685</ele>
        <time>2015-08-23T08:18:15.000Z</time>
      </trkpt>
      <trkpt lat="45.16306" lon="5.66672">
        <ele>685</ele>
        <time>2015-08-23T08:18:17.000Z</time>
      </trkpt>
      <trkpt lat="45.16311" lon="5.66678">
        <ele>682</ele>
        <time>2015-08-23T08:18:19.000Z</time>
      </trkpt>
      <trkpt lat="45.16322" lon="5.66685">
        <ele>685</ele>
        <time>2015-08-23T08:18:29.000Z</time>
      </trkpt>
      <trkpt lat="45.1633" lon="5.66689">
        <ele>686</ele>
        <time>2015-08-23T08:18:31.000Z</time>
      </trkpt>
      <trkpt lat="45.16336" lon="5.66691">
        <ele>672</ele>
        <time>2015-08-23T08:18:33.000Z</time>
      </trkpt>
      <trkpt lat="45.16341" lon="5.66693">
        <ele>678</ele>
        <time>2015-08-23T08:18:35.000Z</time>
      </trkpt>
      <trkpt lat="45.16346" lon="5.66695">
        <ele>680</ele>
        <time>2015-08-23T08:18:37.000Z</time>
      </trkpt>
      <trkpt lat="45.16357" lon="5.66703">
        <ele>682</ele>
        <time>2015-08-23T08:18:41.000Z</time>
      </trkpt>
      <trkpt lat="45.16357" lon="5.66703">
        <ele>682</ele>
        <time>2015-08-23T08:18:47.000Z</time>
      </trkpt>
      <trkpt lat="45.16357" lon="5.66703">
        <ele>682</ele>
        <time>2015-08-23T08:18:49.000Z</time>
      </trkpt>
      <trkpt lat="45.16357" lon="5.66703">
        <ele>682</ele>
        <time>2015-08-23T08:18:51.000Z</time>
      </trkpt>
      <trkpt lat="45.16357" lon="5.66703">
        <ele>682</ele>
        <time>2015-08-23T08:18:53.000Z</time>
      </trkpt>
      <trkpt lat="45.16385" lon="5.66705">
        <ele>686</ele>
        <time>2015-08-23T08:18:59.000Z</time>
      </trkpt>
      <trkpt lat="45.16395" lon="5.66702">
        <ele>684</ele>
        <time>2015-08-23T08:19:05.000Z</time>
      </trkpt>
      <trkpt lat="45.16395" lon="5.66702">
        <ele>684</ele>
        <time>2015-08-23T08:19:09.000Z</time>
      </trkpt>
      <trkpt lat="45.16395" lon="5.66702">
        <ele>684</ele>
        <time>2015-08-23T08:19:11.000Z</time>
      </trkpt>
      <trkpt lat="45.16395" lon="5.66702">
        <ele>684</ele>
        <time>2015-08-23T08:19:13.000Z</time>
      </trkpt>
      <trkpt lat="45.16395" lon="5.66702">
        <ele>684</ele>
        <time>2015-08-23T08:19:15.000Z</time>
      </trkpt>
      <trkpt lat="45.16395" lon="5.66702">
        <ele>684</ele>
        <time>2015-08-23T08:19:19.000Z</time>
      </trkpt>
      <trkpt lat="45.16395" lon="5.66702">
        <ele>684</ele>
        <time>2015-08-23T08:19:21.000Z</time>
      </trkpt>
      <trkpt lat="45.16422" lon="5.66694">
        <ele>687</ele>
        <time>2015-08-23T08:19:25.000Z</time>
      </trkpt>
      <trkpt lat="45.16434" lon="5.66696">
        <ele>689</ele>
        <time>2015-08-23T08:19:33.000Z</time>
      </trkpt>
      <trkpt lat="45.16443" lon="5.66698">
        <ele>690</ele>
        <time>2015-08-23T08:19:39.000Z</time>
      </trkpt>
      <trkpt lat="45.16454" lon="5.66697">
        <ele>692</ele>
        <time>2015-08-23T08:19:45.000Z</time>
      </trkpt>
      <trkpt lat="45.16463" lon="5.66697">
        <ele>692</ele>
        <time>2015-08-23T08:19:51.000Z</time>
      </trkpt>
      <trkpt lat="45.16468" lon="5.66697">
        <ele>691</ele>
        <time>2015-08-23T08:19:57.000Z</time>
      </trkpt>
      <trkpt lat="45.16474" lon="5.66697">
        <ele>691</ele>
        <time>2015-08-23T08:20:01.000Z</time>
      </trkpt>
      <trkpt lat="45.16479" lon="5.66698">
        <ele>692</ele>
        <time>2015-08-23T08:20:05.000Z</time>
      </trkpt>
      <trkpt lat="45.16485" lon="5.66697">
        <ele>694</ele>
        <time>2015-08-23T08:20:09.000Z</time>
      </trkpt>
      <trkpt lat="45.16489" lon="5.66695">
        <ele>693</ele>
        <time>2015-08-23T08:20:11.000Z</time>
      </trkpt>
      <trkpt lat="45.16494" lon="5.66694">
        <ele>695</ele>
        <time>2015-08-23T08:20:15.000Z</time>
      </trkpt>
      <trkpt lat="45.165" lon="5.66693">
        <ele>695</ele>
        <time>2015-08-23T08:20:19.000Z</time>
      </trkpt>
      <trkpt lat="45.16506" lon="5.66692">
        <ele>695</ele>
        <time>2015-08-23T08:20:23.000Z</time>
      </trkpt>
      <trkpt lat="45.16512" lon="5.66691">
        <ele>699</ele>
        <time>2015-08-23T08:20:27.000Z</time>
      </trkpt>
      <trkpt lat="45.16517" lon="5.66691">
        <ele>699</ele>
        <time>2015-08-23T08:20:31.000Z</time>
      </trkpt>
      <trkpt lat="45.16523" lon="5.6669">
        <ele>696</ele>
        <time>2015-08-23T08:20:35.000Z</time>
      </trkpt>
      <trkpt lat="45.16528" lon="5.66689">
        <ele>697</ele>
        <time>2015-08-23T08:20:37.000Z</time>
      </trkpt>
      <trkpt lat="45.16533" lon="5.66688">
        <ele>700</ele>
        <time>2015-08-23T08:20:41.000Z</time>
      </trkpt>
      <trkpt lat="45.16538" lon="5.66688">
        <ele>700</ele>
        <time>2015-08-23T08:20:45.000Z</time>
      </trkpt>
      <trkpt lat="45.16543" lon="5.66687">
        <ele>698</ele>
        <time>2015-08-23T08:20:47.000Z</time>
      </trkpt>
      <trkpt lat="45.16548" lon="5.66685">
        <ele>697</ele>
        <time>2015-08-23T08:20:51.000Z</time>
      </trkpt>
      <trkpt lat="45.16554" lon="5.66683">
        <ele>697</ele>
        <time>2015-08-23T08:20:55.000Z</time>
      </trkpt>
      <trkpt lat="45.16558" lon="5.6668">
        <ele>696</ele>
        <time>2015-08-23T08:20:57.000Z</time>
      </trkpt>
      <trkpt lat="45.16563" lon="5.66675">
        <ele>696</ele>
        <time>2015-08-23T08:21:01.000Z</time>
      </trkpt>
      <trkpt lat="45.16567" lon="5.6667">
        <ele>698</ele>
        <time>2015-08-23T08:21:05.000Z</time>
      </trkpt>
      <trkpt lat="45.16571" lon="5.66664">
        <ele>699</ele>
        <time>2015-08-23T08:21:09.000Z</time>
      </trkpt>
      <trkpt lat="45.16574" lon="5.6666">
        <ele>698</ele>
        <time>2015-08-23T08:21:11.000Z</time>
      </trkpt>
      <trkpt lat="45.16577" lon="5.66653">
        <ele>699</ele>
        <time>2015-08-23T08:21:15.000Z</time>
      </trkpt>
      <trkpt lat="45.16579" lon="5.66646">
        <ele>702</ele>
        <time>2015-08-23T08:21:19.000Z</time>
      </trkpt>
      <trkpt lat="45.16579" lon="5.66646">
        <ele>702</ele>
        <time>2015-08-23T08:21:23.000Z</time>
      </trkpt>
      <trkpt lat="45.16579" lon="5.66646">
        <ele>702</ele>
        <time>2015-08-23T08:21:26.000Z</time>
      </trkpt>
      <trkpt lat="45.16579" lon="5.66646">
        <ele>702</ele>
        <time>2015-08-23T08:21:28.000Z</time>
      </trkpt>
      <trkpt lat="45.16583" lon="5.66629">
        <ele>684</ele>
        <time>2015-08-23T08:21:34.000Z</time>
      </trkpt>
      <trkpt lat="45.16585" lon="5.66619">
        <ele>695</ele>
        <time>2015-08-23T08:21:36.000Z</time>
      </trkpt>
      <trkpt lat="45.16587" lon="5.66612">
        <ele>701</ele>
        <time>2015-08-23T08:21:38.000Z</time>
      </trkpt>
      <trkpt lat="45.16589" lon="5.66605">
        <ele>709</ele>
        <time>2015-08-23T08:21:42.000Z</time>
      </trkpt>
      <trkpt lat="45.16591" lon="5.66599">
        <ele>711</ele>
        <time>2015-08-23T08:21:46.000Z</time>
      </trkpt>
      <trkpt lat="45.16594" lon="5.66592">
        <ele>711</ele>
        <time>2015-08-23T08:21:50.000Z</time>
      </trkpt>
      <trkpt lat="45.16597" lon="5.66587">
        <ele>710</ele>
        <time>2015-08-23T08:21:52.000Z</time>
      </trkpt>
      <trkpt lat="45.16601" lon="5.66582">
        <ele>713</ele>
        <time>2015-08-23T08:21:56.000Z</time>
      </trkpt>
      <trkpt lat="45.16604" lon="5.66577">
        <ele>711</ele>
        <time>2015-08-23T08:22:00.000Z</time>
      </trkpt>
      <trkpt lat="45.16604" lon="5.66577">
        <ele>711</ele>
        <time>2015-08-23T08:22:02.000Z</time>
      </trkpt>
      <trkpt lat="45.16604" lon="5.66577">
        <ele>711</ele>
        <time>2015-08-23T08:22:04.000Z</time>
      </trkpt>
      <trkpt lat="45.16604" lon="5.66577">
        <ele>711</ele>
        <time>2015-08-23T08:22:06.000Z</time>
      </trkpt>
      <trkpt lat="45.16604" lon="5.66577">
        <ele>711</ele>
        <time>2015-08-23T08:22:08.000Z</time>
      </trkpt>
      <trkpt lat="45.16604" lon="5.66577">
        <ele>711</ele>
        <time>2015-08-23T08:22:10.000Z</time>
      </trkpt>
      <trkpt lat="45.16604" lon="5.66577">
        <ele>711</ele>
        <time>2015-08-23T08:22:12.000Z</time>
      </trkpt>
      <trkpt lat="45.16604" lon="5.66577">
        <ele>711</ele>
        <time>2015-08-23T08:22:14.000Z</time>
      </trkpt>
      <trkpt lat="45.16616" lon="5.66569">
        <ele>716</ele>
        <time>2015-08-23T08:22:18.000Z</time>
      </trkpt>
      <trkpt lat="45.16623" lon="5.66562">
        <ele>715</ele>
        <time>2015-08-23T08:22:20.000Z</time>
      </trkpt>
      <trkpt lat="45.16629" lon="5.66558">
        <ele>714</ele>
        <time>2015-08-23T08:22:22.000Z</time>
      </trkpt>
      <trkpt lat="45.16634" lon="5.66554">
        <ele>718</ele>
        <time>2015-08-23T08:22:24.000Z</time>
      </trkpt>
      <trkpt lat="45.16639" lon="5.66551">
        <ele>716</ele>
        <time>2015-08-23T08:22:28.000Z</time>
      </trkpt>
      <trkpt lat="45.16643" lon="5.66549">
        <ele>715</ele>
        <time>2015-08-23T08:22:30.000Z</time>
      </trkpt>
      <trkpt lat="45.16643" lon="5.66549">
        <ele>715</ele>
        <time>2015-08-23T08:22:36.000Z</time>
      </trkpt>
      <trkpt lat="45.16643" lon="5.66549">
        <ele>715</ele>
        <time>2015-08-23T08:22:38.000Z</time>
      </trkpt>
      <trkpt lat="45.16654" lon="5.66545">
        <ele>716</ele>
        <time>2015-08-23T08:22:42.000Z</time>
      </trkpt>
      <trkpt lat="45.16662" lon="5.66543">
        <ele>713</ele>
        <time>2015-08-23T08:22:44.000Z</time>
      </trkpt>
      <trkpt lat="45.16668" lon="5.66542">
        <ele>715</ele>
        <time>2015-08-23T08:22:46.000Z</time>
      </trkpt>
      <trkpt lat="45.16672" lon="5.6654">
        <ele>713</ele>
        <time>2015-08-23T08:22:48.000Z</time>
      </trkpt>
      <trkpt lat="45.16672" lon="5.6654">
        <ele>713</ele>
        <time>2015-08-23T08:22:50.000Z</time>
      </trkpt>
      <trkpt lat="45.16672" lon="5.6654">
        <ele>713</ele>
        <time>2015-08-23T08:22:52.000Z</time>
      </trkpt>
      <trkpt lat="45.16672" lon="5.6654">
        <ele>713</ele>
        <time>2015-08-23T08:22:54.000Z</time>
      </trkpt>
      <trkpt lat="45.16672" lon="5.6654">
        <ele>713</ele>
        <time>2015-08-23T08:22:56.000Z</time>
      </trkpt>
      <trkpt lat="45.16672" lon="5.6654">
        <ele>713</ele>
        <time>2015-08-23T08:22:58.000Z</time>
      </trkpt>
      <trkpt lat="45.16672" lon="5.6654">
        <ele>713</ele>
        <time>2015-08-23T08:23:00.000Z</time>
      </trkpt>
      <trkpt lat="45.16688" lon="5.66536">
        <ele>718</ele>
        <time>2015-08-23T08:23:20.000Z</time>
      </trkpt>
      <trkpt lat="45.16699" lon="5.66533">
        <ele>719</ele>
        <time>2015-08-23T08:23:22.000Z</time>
      </trkpt>
      <trkpt lat="45.16707" lon="5.66532">
        <ele>722</ele>
        <time>2015-08-23T08:23:24.000Z</time>
      </trkpt>
      <trkpt lat="45.16713" lon="5.66532">
        <ele>722</ele>
        <time>2015-08-23T08:23:26.000Z</time>
      </trkpt>
      <trkpt lat="45.16719" lon="5.66532">
        <ele>720</ele>
        <time>2015-08-23T08:23:28.000Z</time>
      </trkpt>
      <trkpt lat="45.16729" lon="5.66532">
        <ele>725</ele>
        <time>2015-08-23T08:23:30.000Z</time>
      </trkpt>
      <trkpt lat="45.16729" lon="5.66532">
        <ele>725</ele>
        <time>2015-08-23T08:23:32.000Z</time>
      </trkpt>
      <trkpt lat="45.16729" lon="5.66532">
        <ele>725</ele>
        <time>2015-08-23T08:23:34.000Z</time>
      </trkpt>
      <trkpt lat="45.16746" lon="5.66537">
        <ele>728</ele>
        <time>2015-08-23T08:23:38.000Z</time>
      </trkpt>
      <trkpt lat="45.16755" lon="5.66543">
        <ele>728</ele>
        <time>2015-08-23T08:23:42.000Z</time>
      </trkpt>
      <trkpt lat="45.16764" lon="5.66548">
        <ele>726</ele>
        <time>2015-08-23T08:23:46.000Z</time>
      </trkpt>
      <trkpt lat="45.16773" lon="5.66554">
        <ele>724</ele>
        <time>2015-08-23T08:23:50.000Z</time>
      </trkpt>
      <trkpt lat="45.16781" lon="5.66562">
        <ele>722</ele>
        <time>2015-08-23T08:23:54.000Z</time>
      </trkpt>
      <trkpt lat="45.16789" lon="5.66576">
        <ele>724</ele>
        <time>2015-08-23T08:24:00.000Z</time>
      </trkpt>
      <trkpt lat="45.16799" lon="5.6659">
        <ele>722</ele>
        <time>2015-08-23T08:24:06.000Z</time>
      </trkpt>
      <trkpt lat="45.16807" lon="5.66598">
        <ele>724</ele>
        <time>2015-08-23T08:24:10.000Z</time>
      </trkpt>
      <trkpt lat="45.16816" lon="5.66601">
        <ele>723</ele>
        <time>2015-08-23T08:24:14.000Z</time>
      </trkpt>
      <trkpt lat="45.16816" lon="5.66601">
        <ele>723</ele>
        <time>2015-08-23T08:24:20.000Z</time>
      </trkpt>
      <trkpt lat="45.16816" lon="5.66601">
        <ele>723</ele>
        <time>2015-08-23T08:24:22.000Z</time>
      </trkpt>
      <trkpt lat="45.16816" lon="5.66601">
        <ele>723</ele>
        <time>2015-08-23T08:24:24.000Z</time>
      </trkpt>
      <trkpt lat="45.16816" lon="5.66601">
        <ele>723</ele>
        <time>2015-08-23T08:24:26.000Z</time>
      </trkpt>
      <trkpt lat="45.1685" lon="5.66599">
        <ele>728</ele>
        <time>2015-08-23T08:24:32.000Z</time>
      </trkpt>
      <trkpt lat="45.1685" lon="5.66599">
        <ele>728</ele>
        <time>2015-08-23T08:24:34.000Z</time>
      </trkpt>
      <trkpt lat="45.1685" lon="5.66599">
        <ele>728</ele>
        <time>2015-08-23T08:24:36.000Z</time>
      </trkpt>
      <trkpt lat="45.1685" lon="5.66599">
        <ele>728</ele>
        <time>2015-08-23T08:24:38.000Z</time>
      </trkpt>
      <trkpt lat="45.1685" lon="5.66599">
        <ele>728</ele>
        <time>2015-08-23T08:24:40.000Z</time>
      </trkpt>
      <trkpt lat="45.1685" lon="5.66599">
        <ele>728</ele>
        <time>2015-08-23T08:24:42.000Z</time>
      </trkpt>
      <trkpt lat="45.16875" lon="5.66591">
        <ele>725</ele>
        <time>2015-08-23T08:24:48.000Z</time>
      </trkpt>
      <trkpt lat="45.16885" lon="5.66588">
        <ele>725</ele>
        <time>2015-08-23T08:24:52.000Z</time>
      </trkpt>
      <trkpt lat="45.1689" lon="5.66588">
        <ele>726</ele>
        <time>2015-08-23T08:24:56.000Z</time>
      </trkpt>
      <trkpt lat="45.16895" lon="5.66589">
        <ele>727</ele>
        <time>2015-08-23T08:24:58.000Z</time>
      </trkpt>
      <trkpt lat="45.16895" lon="5.66589">
        <ele>727</ele>
        <time>2015-08-23T08:25:00.000Z</time>
      </trkpt>
      <trkpt lat="45.16901" lon="5.66592">
        <ele>730</ele>
        <time>2015-08-23T08:25:02.000Z</time>
      </trkpt>
      <trkpt lat="45.16901" lon="5.66592">
        <ele>730</ele>
        <time>2015-08-23T08:25:04.000Z</time>
      </trkpt>
      <trkpt lat="45.16901" lon="5.66592">
        <ele>730</ele>
        <time>2015-08-23T08:25:07.000Z</time>
      </trkpt>
      <trkpt lat="45.16901" lon="5.66592">
        <ele>730</ele>
        <time>2015-08-23T08:25:08.000Z</time>
      </trkpt>
      <trkpt lat="45.16901" lon="5.66592">
        <ele>730</ele>
        <time>2015-08-23T08:25:10.000Z</time>
      </trkpt>
      <trkpt lat="45.16901" lon="5.66592">
        <ele>730</ele>
        <time>2015-08-23T08:25:12.000Z</time>
      </trkpt>
      <trkpt lat="45.1692" lon="5.66594">
        <ele>729</ele>
        <time>2015-08-23T08:25:20.000Z</time>
      </trkpt>
      <trkpt lat="45.16932" lon="5.66593">
        <ele>727</ele>
        <time>2015-08-23T08:25:22.000Z</time>
      </trkpt>
      <trkpt lat="45.1694" lon="5.66592">
        <ele>728</ele>
        <time>2015-08-23T08:25:24.000Z</time>
      </trkpt>
      <trkpt lat="45.16947" lon="5.66591">
        <ele>730</ele>
        <time>2015-08-23T08:25:26.000Z</time>
      </trkpt>
      <trkpt lat="45.16952" lon="5.66589">
        <ele>730</ele>
        <time>2015-08-23T08:25:28.000Z</time>
      </trkpt>
      <trkpt lat="45.16961" lon="5.66584">
        <ele>730</ele>
        <time>2015-08-23T08:25:30.000Z</time>
      </trkpt>
      <trkpt lat="45.16961" lon="5.66584">
        <ele>730</ele>
        <time>2015-08-23T08:25:32.000Z</time>
      </trkpt>
      <trkpt lat="45.16961" lon="5.66584">
        <ele>730</ele>
        <time>2015-08-23T08:25:34.000Z</time>
      </trkpt>
      <trkpt lat="45.16961" lon="5.66584">
        <ele>730</ele>
        <time>2015-08-23T08:25:36.000Z</time>
      </trkpt>
      <trkpt lat="45.16961" lon="5.66584">
        <ele>730</ele>
        <time>2015-08-23T08:25:44.000Z</time>
      </trkpt>
      <trkpt lat="45.16961" lon="5.66584">
        <ele>730</ele>
        <time>2015-08-23T08:25:46.000Z</time>
      </trkpt>
      <trkpt lat="45.16961" lon="5.66584">
        <ele>730</ele>
        <time>2015-08-23T08:25:50.000Z</time>
      </trkpt>
      <trkpt lat="45.16991" lon="5.66567">
        <ele>742</ele>
        <time>2015-08-23T08:25:54.000Z</time>
      </trkpt>
      <trkpt lat="45.17001" lon="5.66561">
        <ele>745</ele>
        <time>2015-08-23T08:26:00.000Z</time>
      </trkpt>
      <trkpt lat="45.17001" lon="5.66561">
        <ele>745</ele>
        <time>2015-08-23T08:26:02.000Z</time>
      </trkpt>
      <trkpt lat="45.17012" lon="5.66553">
        <ele>748</ele>
        <time>2015-08-23T08:26:08.000Z</time>
      </trkpt>
      <trkpt lat="45.1702" lon="5.66546">
        <ele>742</ele>
        <time>2015-08-23T08:26:14.000Z</time>
      </trkpt>
      <trkpt lat="45.1702" lon="5.66546">
        <ele>742</ele>
        <time>2015-08-23T08:26:16.000Z</time>
      </trkpt>
      <trkpt lat="45.17028" lon="5.6654">
        <ele>745</ele>
        <time>2015-08-23T08:26:18.000Z</time>
      </trkpt>
      <trkpt lat="45.17028" lon="5.6654">
        <ele>745</ele>
        <time>2015-08-23T08:26:22.000Z</time>
      </trkpt>
      <trkpt lat="45.17028" lon="5.6654">
        <ele>745</ele>
        <time>2015-08-23T08:26:24.000Z</time>
      </trkpt>
      <trkpt lat="45.17028" lon="5.6654">
        <ele>745</ele>
        <time>2015-08-23T08:26:26.000Z</time>
      </trkpt>
      <trkpt lat="45.17028" lon="5.6654">
        <ele>745</ele>
        <time>2015-08-23T08:26:28.000Z</time>
      </trkpt>
      <trkpt lat="45.17041" lon="5.66517">
        <ele>741</ele>
        <time>2015-08-23T08:26:34.000Z</time>
      </trkpt>
      <trkpt lat="45.17049" lon="5.66505">
        <ele>741</ele>
        <time>2015-08-23T08:26:42.000Z</time>
      </trkpt>
      <trkpt lat="45.17053" lon="5.66501">
        <ele>738</ele>
        <time>2015-08-23T08:26:48.000Z</time>
      </trkpt>
      <trkpt lat="45.17057" lon="5.66497">
        <ele>741</ele>
        <time>2015-08-23T08:26:52.000Z</time>
      </trkpt>
      <trkpt lat="45.17061" lon="5.66492">
        <ele>739</ele>
        <time>2015-08-23T08:26:56.000Z</time>
      </trkpt>
      <trkpt lat="45.17061" lon="5.66492">
        <ele>739</ele>
        <time>2015-08-23T08:26:58.000Z</time>
      </trkpt>
      <trkpt lat="45.17061" lon="5.66492">
        <ele>739</ele>
        <time>2015-08-23T08:27:00.000Z</time>
      </trkpt>
      <trkpt lat="45.17061" lon="5.66492">
        <ele>739</ele>
        <time>2015-08-23T08:27:02.000Z</time>
      </trkpt>
      <trkpt lat="45.1707" lon="5.66478">
        <ele>737</ele>
        <time>2015-08-23T08:27:44.000Z</time>
      </trkpt>
      <trkpt lat="45.17078" lon="5.66468">
        <ele>736</ele>
        <time>2015-08-23T08:27:46.000Z</time>
      </trkpt>
      <trkpt lat="45.17085" lon="5.66459">
        <ele>739</ele>
        <time>2015-08-23T08:27:48.000Z</time>
      </trkpt>
      <trkpt lat="45.1709" lon="5.66452">
        <ele>740</ele>
        <time>2015-08-23T08:27:50.000Z</time>
      </trkpt>
      <trkpt lat="45.17094" lon="5.66445">
        <ele>741</ele>
        <time>2015-08-23T08:27:52.000Z</time>
      </trkpt>
      <trkpt lat="45.17094" lon="5.66445">
        <ele>741</ele>
        <time>2015-08-23T08:27:54.000Z</time>
      </trkpt>
      <trkpt lat="45.17094" lon="5.66445">
        <ele>741</ele>
        <time>2015-08-23T08:27:56.000Z</time>
      </trkpt>
      <trkpt lat="45.17094" lon="5.66445">
        <ele>741</ele>
        <time>2015-08-23T08:27:58.000Z</time>
      </trkpt>
      <trkpt lat="45.17094" lon="5.66445">
        <ele>741</ele>
        <time>2015-08-23T08:28:00.000Z</time>
      </trkpt>
      <trkpt lat="45.17094" lon="5.66445">
        <ele>741</ele>
        <time>2015-08-23T08:28:02.000Z</time>
      </trkpt>
      <trkpt lat="45.17094" lon="5.66445">
        <ele>741</ele>
        <time>2015-08-23T08:28:04.000Z</time>
      </trkpt>
      <trkpt lat="45.17094" lon="5.66445">
        <ele>741</ele>
        <time>2015-08-23T08:28:06.000Z</time>
      </trkpt>
      <trkpt lat="45.17094" lon="5.66445">
        <ele>741</ele>
        <time>2015-08-23T08:28:08.000Z</time>
      </trkpt>
      <trkpt lat="45.17094" lon="5.66445">
        <ele>741</ele>
        <time>2015-08-23T08:28:10.000Z</time>
      </trkpt>
      <trkpt lat="45.17094" lon="5.66445">
        <ele>741</ele>
        <time>2015-08-23T08:28:12.000Z</time>
      </trkpt>
      <trkpt lat="45.17139" lon="5.66349">
        <ele>747</ele>
        <time>2015-08-23T08:28:52.000Z</time>
      </trkpt>
      <trkpt lat="45.17139" lon="5.66349">
        <ele>747</ele>
        <time>2015-08-23T08:29:00.000Z</time>
      </trkpt>
      <trkpt lat="45.17139" lon="5.66349">
        <ele>747</ele>
        <time>2015-08-23T08:29:04.000Z</time>
      </trkpt>
      <trkpt lat="45.17147" lon="5.66344">
        <ele>754</ele>
        <time>2015-08-23T08:29:06.000Z</time>
      </trkpt>
      <trkpt lat="45.17153" lon="5.66339">
        <ele>754</ele>
        <time>2015-08-23T08:29:08.000Z</time>
      </trkpt>
      <trkpt lat="45.17157" lon="5.66334">
        <ele>752</ele>
        <time>2015-08-23T08:29:10.000Z</time>
      </trkpt>
      <trkpt lat="45.17157" lon="5.66334">
        <ele>752</ele>
        <time>2015-08-23T08:29:14.000Z</time>
      </trkpt>
      <trkpt lat="45.17157" lon="5.66334">
        <ele>752</ele>
        <time>2015-08-23T08:29:16.000Z</time>
      </trkpt>
      <trkpt lat="45.17157" lon="5.66334">
        <ele>752</ele>
        <time>2015-08-23T08:29:22.000Z</time>
      </trkpt>
      <trkpt lat="45.17157" lon="5.66334">
        <ele>752</ele>
        <time>2015-08-23T08:29:24.000Z</time>
      </trkpt>
      <trkpt lat="45.17157" lon="5.66334">
        <ele>752</ele>
        <time>2015-08-23T08:29:26.000Z</time>
      </trkpt>
      <trkpt lat="45.17157" lon="5.66334">
        <ele>752</ele>
        <time>2015-08-23T08:29:28.000Z</time>
      </trkpt>
      <trkpt lat="45.17175" lon="5.66325">
        <ele>753</ele>
        <time>2015-08-23T08:29:34.000Z</time>
      </trkpt>
      <trkpt lat="45.17186" lon="5.66321">
        <ele>753</ele>
        <time>2015-08-23T08:29:36.000Z</time>
      </trkpt>
      <trkpt lat="45.17193" lon="5.66317">
        <ele>754</ele>
        <time>2015-08-23T08:29:38.000Z</time>
      </trkpt>
      <trkpt lat="45.17193" lon="5.66317">
        <ele>754</ele>
        <time>2015-08-23T08:29:40.000Z</time>
      </trkpt>
      <trkpt lat="45.17202" lon="5.66314">
        <ele>762</ele>
        <time>2015-08-23T08:29:50.000Z</time>
      </trkpt>
      <trkpt lat="45.17208" lon="5.66312">
        <ele>762</ele>
        <time>2015-08-23T08:29:52.000Z</time>
      </trkpt>
      <trkpt lat="45.17213" lon="5.6631">
        <ele>762</ele>
        <time>2015-08-23T08:29:56.000Z</time>
      </trkpt>
      <trkpt lat="45.17218" lon="5.66309">
        <ele>764</ele>
        <time>2015-08-23T08:30:00.000Z</time>
      </trkpt>
      <trkpt lat="45.17221" lon="5.66304">
        <ele>766</ele>
        <time>2015-08-23T08:30:06.000Z</time>
      </trkpt>
      <trkpt lat="45.17223" lon="5.66298">
        <ele>766</ele>
        <time>2015-08-23T08:30:12.000Z</time>
      </trkpt>
      <trkpt lat="45.17225" lon="5.66291">
        <ele>654</ele>
        <time>2015-08-23T08:30:20.000Z</time>
      </trkpt>
      <trkpt lat="45.17225" lon="5.66283">
        <ele>723</ele>
        <time>2015-08-23T08:30:24.000Z</time>
      </trkpt>
      <trkpt lat="45.17226" lon="5.66277">
        <ele>749</ele>
        <time>2015-08-23T08:30:28.000Z</time>
      </trkpt>
      <trkpt lat="45.17226" lon="5.66269">
        <ele>767</ele>
        <time>2015-08-23T08:30:34.000Z</time>
      </trkpt>
      <trkpt lat="45.17226" lon="5.66269">
        <ele>767</ele>
        <time>2015-08-23T08:30:40.000Z</time>
      </trkpt>
      <trkpt lat="45.17226" lon="5.66269">
        <ele>767</ele>
        <time>2015-08-23T08:30:42.000Z</time>
      </trkpt>
      <trkpt lat="45.17226" lon="5.66269">
        <ele>767</ele>
        <time>2015-08-23T08:30:44.000Z</time>
      </trkpt>
      <trkpt lat="45.17222" lon="5.66256">
        <ele>776</ele>
        <time>2015-08-23T08:30:50.000Z</time>
      </trkpt>
      <trkpt lat="45.17221" lon="5.66248">
        <ele>776</ele>
        <time>2015-08-23T08:30:52.000Z</time>
      </trkpt>
      <trkpt lat="45.17219" lon="5.66241">
        <ele>779</ele>
        <time>2015-08-23T08:30:56.000Z</time>
      </trkpt>
      <trkpt lat="45.17218" lon="5.66234">
        <ele>751</ele>
        <time>2015-08-23T08:31:00.000Z</time>
      </trkpt>
      <trkpt lat="45.17216" lon="5.66228">
        <ele>763</ele>
        <time>2015-08-23T08:31:04.000Z</time>
      </trkpt>
      <trkpt lat="45.17216" lon="5.66228">
        <ele>763</ele>
        <time>2015-08-23T08:31:06.000Z</time>
      </trkpt>
      <trkpt lat="45.17216" lon="5.66228">
        <ele>763</ele>
        <time>2015-08-23T08:31:08.000Z</time>
      </trkpt>
      <trkpt lat="45.17211" lon="5.66209">
        <ele>781</ele>
        <time>2015-08-23T08:31:30.000Z</time>
      </trkpt>
      <trkpt lat="45.17207" lon="5.66197">
        <ele>781</ele>
        <time>2015-08-23T08:31:32.000Z</time>
      </trkpt>
      <trkpt lat="45.17205" lon="5.6619">
        <ele>782</ele>
        <time>2015-08-23T08:31:34.000Z</time>
      </trkpt>
      <trkpt lat="45.17204" lon="5.66181">
        <ele>783</ele>
        <time>2015-08-23T08:31:38.000Z</time>
      </trkpt>
      <trkpt lat="45.17202" lon="5.66175">
        <ele>782</ele>
        <time>2015-08-23T08:31:40.000Z</time>
      </trkpt>
      <trkpt lat="45.17201" lon="5.66167">
        <ele>784</ele>
        <time>2015-08-23T08:31:44.000Z</time>
      </trkpt>
      <trkpt lat="45.172" lon="5.66158">
        <ele>785</ele>
        <time>2015-08-23T08:31:48.000Z</time>
      </trkpt>
      <trkpt lat="45.172" lon="5.6615">
        <ele>785</ele>
        <time>2015-08-23T08:31:52.000Z</time>
      </trkpt>
      <trkpt lat="45.17199" lon="5.66143">
        <ele>783</ele>
        <time>2015-08-23T08:31:54.000Z</time>
      </trkpt>
      <trkpt lat="45.17199" lon="5.66136">
        <ele>784</ele>
        <time>2015-08-23T08:31:58.000Z</time>
      </trkpt>
      <trkpt lat="45.17199" lon="5.66127">
        <ele>783</ele>
        <time>2015-08-23T08:32:02.000Z</time>
      </trkpt>
      <trkpt lat="45.17199" lon="5.66121">
        <ele>782</ele>
        <time>2015-08-23T08:32:04.000Z</time>
      </trkpt>
      <trkpt lat="45.17199" lon="5.66114">
        <ele>783</ele>
        <time>2015-08-23T08:32:08.000Z</time>
      </trkpt>
      <trkpt lat="45.17199" lon="5.66114">
        <ele>783</ele>
        <time>2015-08-23T08:32:12.000Z</time>
      </trkpt>
      <trkpt lat="45.17199" lon="5.66114">
        <ele>783</ele>
        <time>2015-08-23T08:32:14.000Z</time>
      </trkpt>
      <trkpt lat="45.17199" lon="5.66114">
        <ele>783</ele>
        <time>2015-08-23T08:32:16.000Z</time>
      </trkpt>
      <trkpt lat="45.17199" lon="5.66114">
        <ele>783</ele>
        <time>2015-08-23T08:32:18.000Z</time>
      </trkpt>
      <trkpt lat="45.17199" lon="5.66114">
        <ele>783</ele>
        <time>2015-08-23T08:32:20.000Z</time>
      </trkpt>
      <trkpt lat="45.17197" lon="5.661">
        <ele>798</ele>
        <time>2015-08-23T08:32:26.000Z</time>
      </trkpt>
      <trkpt lat="45.17196" lon="5.66091">
        <ele>797</ele>
        <time>2015-08-23T08:32:28.000Z</time>
      </trkpt>
      <trkpt lat="45.17195" lon="5.66083">
        <ele>798</ele>
        <time>2015-08-23T08:32:32.000Z</time>
      </trkpt>
      <trkpt lat="45.17194" lon="5.66076">
        <ele>797</ele>
        <time>2015-08-23T08:32:38.000Z</time>
      </trkpt>
      <trkpt lat="45.17194" lon="5.66076">
        <ele>797</ele>
        <time>2015-08-23T08:32:42.000Z</time>
      </trkpt>
      <trkpt lat="45.17194" lon="5.66076">
        <ele>797</ele>
        <time>2015-08-23T08:32:44.000Z</time>
      </trkpt>
      <trkpt lat="45.17194" lon="5.66076">
        <ele>797</ele>
        <time>2015-08-23T08:32:46.000Z</time>
      </trkpt>
      <trkpt lat="45.17194" lon="5.66063">
        <ele>801</ele>
        <time>2015-08-23T08:32:50.000Z</time>
      </trkpt>
      <trkpt lat="45.17193" lon="5.66055">
        <ele>801</ele>
        <time>2015-08-23T08:32:52.000Z</time>
      </trkpt>
      <trkpt lat="45.17192" lon="5.66048">
        <ele>802</ele>
        <time>2015-08-23T08:32:58.000Z</time>
      </trkpt>
      <trkpt lat="45.17191" lon="5.66041">
        <ele>805</ele>
        <time>2015-08-23T08:33:02.000Z</time>
      </trkpt>
      <trkpt lat="45.1719" lon="5.66034">
        <ele>804</ele>
        <time>2015-08-23T08:33:06.000Z</time>
      </trkpt>
      <trkpt lat="45.17189" lon="5.66026">
        <ele>804</ele>
        <time>2015-08-23T08:33:11.000Z</time>
      </trkpt>
      <trkpt lat="45.17188" lon="5.66019">
        <ele>803</ele>
        <time>2015-08-23T08:33:15.000Z</time>
      </trkpt>
      <trkpt lat="45.17186" lon="5.66013">
        <ele>805</ele>
        <time>2015-08-23T08:33:19.000Z</time>
      </trkpt>
      <trkpt lat="45.17184" lon="5.66007">
        <ele>806</ele>
        <time>2015-08-23T08:33:23.000Z</time>
      </trkpt>
      <trkpt lat="45.17181" lon="5.66">
        <ele>807</ele>
        <time>2015-08-23T08:33:29.000Z</time>
      </trkpt>
      <trkpt lat="45.17178" lon="5.65994">
        <ele>807</ele>
        <time>2015-08-23T08:33:33.000Z</time>
      </trkpt>
      <trkpt lat="45.17178" lon="5.65994">
        <ele>807</ele>
        <time>2015-08-23T08:33:37.000Z</time>
      </trkpt>
      <trkpt lat="45.17178" lon="5.65994">
        <ele>807</ele>
        <time>2015-08-23T08:33:39.000Z</time>
      </trkpt>
      <trkpt lat="45.17178" lon="5.65994">
        <ele>807</ele>
        <time>2015-08-23T08:33:41.000Z</time>
      </trkpt>
      <trkpt lat="45.17178" lon="5.65994">
        <ele>807</ele>
        <time>2015-08-23T08:33:43.000Z</time>
      </trkpt>
      <trkpt lat="45.17168" lon="5.65974">
        <ele>816</ele>
        <time>2015-08-23T08:34:03.000Z</time>
      </trkpt>
      <trkpt lat="45.17162" lon="5.65963">
        <ele>817</ele>
        <time>2015-08-23T08:34:05.000Z</time>
      </trkpt>
      <trkpt lat="45.17159" lon="5.65956">
        <ele>816</ele>
        <time>2015-08-23T08:34:07.000Z</time>
      </trkpt>
      <trkpt lat="45.17156" lon="5.6595">
        <ele>816</ele>
        <time>2015-08-23T08:34:11.000Z</time>
      </trkpt>
      <trkpt lat="45.17155" lon="5.65944">
        <ele>738</ele>
        <time>2015-08-23T08:34:15.000Z</time>
      </trkpt>
      <trkpt lat="45.17153" lon="5.65937">
        <ele>798</ele>
        <time>2015-08-23T08:34:19.000Z</time>
      </trkpt>
      <trkpt lat="45.1715" lon="5.65931">
        <ele>810</ele>
        <time>2015-08-23T08:34:23.000Z</time>
      </trkpt>
      <trkpt lat="45.17147" lon="5.65925">
        <ele>818</ele>
        <time>2015-08-23T08:34:29.000Z</time>
      </trkpt>
      <trkpt lat="45.17144" lon="5.65919">
        <ele>820</ele>
        <time>2015-08-23T08:34:33.000Z</time>
      </trkpt>
      <trkpt lat="45.1714" lon="5.65913">
        <ele>822</ele>
        <time>2015-08-23T08:34:39.000Z</time>
      </trkpt>
      <trkpt lat="45.17137" lon="5.65908">
        <ele>823</ele>
        <time>2015-08-23T08:34:43.000Z</time>
      </trkpt>
      <trkpt lat="45.17134" lon="5.65902">
        <ele>823</ele>
        <time>2015-08-23T08:34:47.000Z</time>
      </trkpt>
      <trkpt lat="45.17131" lon="5.65896">
        <ele>826</ele>
        <time>2015-08-23T08:34:51.000Z</time>
      </trkpt>
      <trkpt lat="45.17131" lon="5.65896">
        <ele>826</ele>
        <time>2015-08-23T08:34:57.000Z</time>
      </trkpt>
      <trkpt lat="45.17131" lon="5.65896">
        <ele>826</ele>
        <time>2015-08-23T08:34:59.000Z</time>
      </trkpt>
      <trkpt lat="45.17131" lon="5.65896">
        <ele>826</ele>
        <time>2015-08-23T08:35:01.000Z</time>
      </trkpt>
      <trkpt lat="45.17131" lon="5.65896">
        <ele>826</ele>
        <time>2015-08-23T08:35:03.000Z</time>
      </trkpt>
      <trkpt lat="45.17129" lon="5.6588">
        <ele>829</ele>
        <time>2015-08-23T08:36:45.000Z</time>
      </trkpt>
      <trkpt lat="45.17129" lon="5.6588">
        <ele>829</ele>
        <time>2015-08-23T08:36:47.000Z</time>
      </trkpt>
      <trkpt lat="45.17129" lon="5.6588">
        <ele>829</ele>
        <time>2015-08-23T08:36:49.000Z</time>
      </trkpt>
      <trkpt lat="45.17129" lon="5.6588">
        <ele>829</ele>
        <time>2015-08-23T08:36:51.000Z</time>
      </trkpt>
      <trkpt lat="45.17129" lon="5.6588">
        <ele>829</ele>
        <time>2015-08-23T08:36:53.000Z</time>
      </trkpt>
      <trkpt lat="45.17129" lon="5.6588">
        <ele>829</ele>
        <time>2015-08-23T08:36:55.000Z</time>
      </trkpt>
      <trkpt lat="45.17129" lon="5.6588">
        <ele>829</ele>
        <time>2015-08-23T08:36:57.000Z</time>
      </trkpt>
      <trkpt lat="45.17129" lon="5.6588">
        <ele>829</ele>
        <time>2015-08-23T08:37:17.000Z</time>
      </trkpt>
      <trkpt lat="45.17129" lon="5.6588">
        <ele>829</ele>
        <time>2015-08-23T08:37:19.000Z</time>
      </trkpt>
      <trkpt lat="45.17129" lon="5.6588">
        <ele>829</ele>
        <time>2015-08-23T08:37:21.000Z</time>
      </trkpt>
      <trkpt lat="45.17118" lon="5.65836">
        <ele>846</ele>
        <time>2015-08-23T08:37:41.000Z</time>
      </trkpt>
      <trkpt lat="45.17113" lon="5.65813">
        <ele>846</ele>
        <time>2015-08-23T08:37:43.000Z</time>
      </trkpt>
      <trkpt lat="45.17109" lon="5.65799">
        <ele>846</ele>
        <time>2015-08-23T08:37:45.000Z</time>
      </trkpt>
      <trkpt lat="45.17107" lon="5.65791">
        <ele>846</ele>
        <time>2015-08-23T08:37:47.000Z</time>
      </trkpt>
      <trkpt lat="45.17103" lon="5.65781">
        <ele>850</ele>
        <time>2015-08-23T08:37:55.000Z</time>
      </trkpt>
      <trkpt lat="45.17101" lon="5.65774">
        <ele>852</ele>
        <time>2015-08-23T08:37:57.000Z</time>
      </trkpt>
      <trkpt lat="45.17097" lon="5.65768">
        <ele>854</ele>
        <time>2015-08-23T08:38:01.000Z</time>
      </trkpt>
      <trkpt lat="45.17095" lon="5.65762">
        <ele>853</ele>
        <time>2015-08-23T08:38:05.000Z</time>
      </trkpt>
      <trkpt lat="45.17091" lon="5.65756">
        <ele>855</ele>
        <time>2015-08-23T08:38:09.000Z</time>
      </trkpt>
      <trkpt lat="45.17088" lon="5.6575">
        <ele>854</ele>
        <time>2015-08-23T08:38:13.000Z</time>
      </trkpt>
      <trkpt lat="45.17088" lon="5.6575">
        <ele>854</ele>
        <time>2015-08-23T08:38:17.000Z</time>
      </trkpt>
      <trkpt lat="45.17088" lon="5.6575">
        <ele>854</ele>
        <time>2015-08-23T08:38:19.000Z</time>
      </trkpt>
      <trkpt lat="45.17089" lon="5.6573">
        <ele>847</ele>
        <time>2015-08-23T08:38:55.000Z</time>
      </trkpt>
      <trkpt lat="45.1709" lon="5.65716">
        <ele>848</ele>
        <time>2015-08-23T08:38:57.000Z</time>
      </trkpt>
      <trkpt lat="45.17092" lon="5.65705">
        <ele>848</ele>
        <time>2015-08-23T08:38:59.000Z</time>
      </trkpt>
      <trkpt lat="45.17093" lon="5.65698">
        <ele>848</ele>
        <time>2015-08-23T08:39:01.000Z</time>
      </trkpt>
      <trkpt lat="45.17093" lon="5.65698">
        <ele>848</ele>
        <time>2015-08-23T08:39:03.000Z</time>
      </trkpt>
      <trkpt lat="45.17093" lon="5.65698">
        <ele>848</ele>
        <time>2015-08-23T08:39:05.000Z</time>
      </trkpt>
      <trkpt lat="45.17093" lon="5.65698">
        <ele>848</ele>
        <time>2015-08-23T08:39:07.000Z</time>
      </trkpt>
      <trkpt lat="45.17097" lon="5.65681">
        <ele>844</ele>
        <time>2015-08-23T08:39:11.000Z</time>
      </trkpt>
      <trkpt lat="45.171" lon="5.65669">
        <ele>844</ele>
        <time>2015-08-23T08:39:13.000Z</time>
      </trkpt>
      <trkpt lat="45.17103" lon="5.6566">
        <ele>842</ele>
        <time>2015-08-23T08:39:15.000Z</time>
      </trkpt>
      <trkpt lat="45.17105" lon="5.65654">
        <ele>840</ele>
        <time>2015-08-23T08:39:17.000Z</time>
      </trkpt>
      <trkpt lat="45.17105" lon="5.65654">
        <ele>840</ele>
        <time>2015-08-23T08:39:19.000Z</time>
      </trkpt>
      <trkpt lat="45.17112" lon="5.65638">
        <ele>837</ele>
        <time>2015-08-23T08:39:23.000Z</time>
      </trkpt>
      <trkpt lat="45.17118" lon="5.65626">
        <ele>840</ele>
        <time>2015-08-23T08:39:25.000Z</time>
      </trkpt>
      <trkpt lat="45.17123" lon="5.65617">
        <ele>839</ele>
        <time>2015-08-23T08:39:27.000Z</time>
      </trkpt>
      <trkpt lat="45.17123" lon="5.65617">
        <ele>839</ele>
        <time>2015-08-23T08:39:29.000Z</time>
      </trkpt>
      <trkpt lat="45.17123" lon="5.65617">
        <ele>839</ele>
        <time>2015-08-23T08:39:31.000Z</time>
      </trkpt>
      <trkpt lat="45.17123" lon="5.65617">
        <ele>839</ele>
        <time>2015-08-23T08:39:33.000Z</time>
      </trkpt>
      <trkpt lat="45.17123" lon="5.65617">
        <ele>839</ele>
        <time>2015-08-23T08:39:35.000Z</time>
      </trkpt>
      <trkpt lat="45.17131" lon="5.65594">
        <ele>840</ele>
        <time>2015-08-23T08:39:41.000Z</time>
      </trkpt>
      <trkpt lat="45.17136" lon="5.65579">
        <ele>841</ele>
        <time>2015-08-23T08:39:43.000Z</time>
      </trkpt>
      <trkpt lat="45.17139" lon="5.65568">
        <ele>842</ele>
        <time>2015-08-23T08:39:45.000Z</time>
      </trkpt>
      <trkpt lat="45.17142" lon="5.65559">
        <ele>841</ele>
        <time>2015-08-23T08:39:47.000Z</time>
      </trkpt>
      <trkpt lat="45.17145" lon="5.65554">
        <ele>842</ele>
        <time>2015-08-23T08:39:49.000Z</time>
      </trkpt>
      <trkpt lat="45.17145" lon="5.65554">
        <ele>842</ele>
        <time>2015-08-23T08:39:51.000Z</time>
      </trkpt>
      <trkpt lat="45.17145" lon="5.65554">
        <ele>842</ele>
        <time>2015-08-23T08:39:53.000Z</time>
      </trkpt>
      <trkpt lat="45.17145" lon="5.65554">
        <ele>842</ele>
        <time>2015-08-23T08:39:55.000Z</time>
      </trkpt>
      <trkpt lat="45.17168" lon="5.65532">
        <ele>837</ele>
        <time>2015-08-23T08:39:59.000Z</time>
      </trkpt>
      <trkpt lat="45.17184" lon="5.65516">
        <ele>837</ele>
        <time>2015-08-23T08:40:03.000Z</time>
      </trkpt>
      <trkpt lat="45.17194" lon="5.65505">
        <ele>839</ele>
        <time>2015-08-23T08:40:05.000Z</time>
      </trkpt>
      <trkpt lat="45.17201" lon="5.65499">
        <ele>838</ele>
        <time>2015-08-23T08:40:07.000Z</time>
      </trkpt>
      <trkpt lat="45.17215" lon="5.65503">
        <ele>840</ele>
        <time>2015-08-23T08:40:11.000Z</time>
      </trkpt>
      <trkpt lat="45.17215" lon="5.65503">
        <ele>840</ele>
        <time>2015-08-23T08:40:13.000Z</time>
      </trkpt>
      <trkpt lat="45.17215" lon="5.65503">
        <ele>840</ele>
        <time>2015-08-23T08:40:15.000Z</time>
      </trkpt>
      <trkpt lat="45.17215" lon="5.65503">
        <ele>840</ele>
        <time>2015-08-23T08:40:17.000Z</time>
      </trkpt>
      <trkpt lat="45.17215" lon="5.65503">
        <ele>840</ele>
        <time>2015-08-23T08:40:19.000Z</time>
      </trkpt>
      <trkpt lat="45.17215" lon="5.65503">
        <ele>840</ele>
        <time>2015-08-23T08:40:21.000Z</time>
      </trkpt>
      <trkpt lat="45.17215" lon="5.65503">
        <ele>840</ele>
        <time>2015-08-23T08:40:23.000Z</time>
      </trkpt>
      <trkpt lat="45.17215" lon="5.65503">
        <ele>840</ele>
        <time>2015-08-23T08:40:25.000Z</time>
      </trkpt>
      <trkpt lat="45.17215" lon="5.65503">
        <ele>840</ele>
        <time>2015-08-23T08:40:27.000Z</time>
      </trkpt>
      <trkpt lat="45.17215" lon="5.65503">
        <ele>840</ele>
        <time>2015-08-23T08:40:29.000Z</time>
      </trkpt>
      <trkpt lat="45.17215" lon="5.65503">
        <ele>840</ele>
        <time>2015-08-23T08:40:31.000Z</time>
      </trkpt>
      <trkpt lat="45.17215" lon="5.65503">
        <ele>840</ele>
        <time>2015-08-23T08:40:33.000Z</time>
      </trkpt>
      <trkpt lat="45.17249" lon="5.65572">
        <ele>823</ele>
        <time>2015-08-23T08:40:43.000Z</time>
      </trkpt>
      <trkpt lat="45.17242" lon="5.65582">
        <ele>826</ele>
        <time>2015-08-23T08:40:50.000Z</time>
      </trkpt>
      <trkpt lat="45.17242" lon="5.65582">
        <ele>826</ele>
        <time>2015-08-23T08:40:51.000Z</time>
      </trkpt>
      <trkpt lat="45.17231" lon="5.65592">
        <ele>826</ele>
        <time>2015-08-23T08:40:55.000Z</time>
      </trkpt>
      <trkpt lat="45.17222" lon="5.65601">
        <ele>829</ele>
        <time>2015-08-23T08:41:01.000Z</time>
      </trkpt>
      <trkpt lat="45.17222" lon="5.65601">
        <ele>829</ele>
        <time>2015-08-23T08:41:03.000Z</time>
      </trkpt>
      <trkpt lat="45.17222" lon="5.65601">
        <ele>829</ele>
        <time>2015-08-23T08:41:05.000Z</time>
      </trkpt>
      <trkpt lat="45.17222" lon="5.65601">
        <ele>829</ele>
        <time>2015-08-23T08:41:07.000Z</time>
      </trkpt>
      <trkpt lat="45.17212" lon="5.65607">
        <ele>828</ele>
        <time>2015-08-23T08:41:13.000Z</time>
      </trkpt>
      <trkpt lat="45.17205" lon="5.65611">
        <ele>829</ele>
        <time>2015-08-23T08:41:15.000Z</time>
      </trkpt>
      <trkpt lat="45.17199" lon="5.65614">
        <ele>829</ele>
        <time>2015-08-23T08:41:18.000Z</time>
      </trkpt>
      <trkpt lat="45.17195" lon="5.65617">
        <ele>829</ele>
        <time>2015-08-23T08:41:19.000Z</time>
      </trkpt>
      <trkpt lat="45.17191" lon="5.65621">
        <ele>832</ele>
        <time>2015-08-23T08:41:23.000Z</time>
      </trkpt>
      <trkpt lat="45.17187" lon="5.65624">
        <ele>834</ele>
        <time>2015-08-23T08:41:25.000Z</time>
      </trkpt>
      <trkpt lat="45.17187" lon="5.65624">
        <ele>834</ele>
        <time>2015-08-23T08:41:29.000Z</time>
      </trkpt>
      <trkpt lat="45.17187" lon="5.65624">
        <ele>834</ele>
        <time>2015-08-23T08:41:31.000Z</time>
      </trkpt>
      <trkpt lat="45.17187" lon="5.65624">
        <ele>834</ele>
        <time>2015-08-23T08:41:33.000Z</time>
      </trkpt>
      <trkpt lat="45.17187" lon="5.65624">
        <ele>834</ele>
        <time>2015-08-23T08:41:35.000Z</time>
      </trkpt>
      <trkpt lat="45.17187" lon="5.65624">
        <ele>834</ele>
        <time>2015-08-23T08:41:37.000Z</time>
      </trkpt>
      <trkpt lat="45.17187" lon="5.65624">
        <ele>834</ele>
        <time>2015-08-23T08:41:39.000Z</time>
      </trkpt>
      <trkpt lat="45.17187" lon="5.65624">
        <ele>834</ele>
        <time>2015-08-23T08:41:43.000Z</time>
      </trkpt>
      <trkpt lat="45.17187" lon="5.65624">
        <ele>834</ele>
        <time>2015-08-23T08:41:45.000Z</time>
      </trkpt>
      <trkpt lat="45.17123" lon="5.65669">
        <ele>834</ele>
        <time>2015-08-23T08:42:46.000Z</time>
      </trkpt>
      <trkpt lat="45.17088" lon="5.65688">
        <ele>834</ele>
        <time>2015-08-23T08:42:48.000Z</time>
      </trkpt>
      <trkpt lat="45.17068" lon="5.65697">
        <ele>835</ele>
        <time>2015-08-23T08:42:50.000Z</time>
      </trkpt>
      <trkpt lat="45.17056" lon="5.65701">
        <ele>838</ele>
        <time>2015-08-23T08:42:52.000Z</time>
      </trkpt>
      <trkpt lat="45.17048" lon="5.65703">
        <ele>840</ele>
        <time>2015-08-23T08:42:54.000Z</time>
      </trkpt>
      <trkpt lat="45.17036" lon="5.65709">
        <ele>843</ele>
        <time>2015-08-23T08:42:56.000Z</time>
      </trkpt>
      <trkpt lat="45.17027" lon="5.65713">
        <ele>834</ele>
        <time>2015-08-23T08:43:02.000Z</time>
      </trkpt>
      <trkpt lat="45.1702" lon="5.65724">
        <ele>837</ele>
        <time>2015-08-23T08:43:08.000Z</time>
      </trkpt>
      <trkpt lat="45.1702" lon="5.65724">
        <ele>837</ele>
        <time>2015-08-23T08:43:10.000Z</time>
      </trkpt>
      <trkpt lat="45.17011" lon="5.65731">
        <ele>831</ele>
        <time>2015-08-23T08:43:12.000Z</time>
      </trkpt>
      <trkpt lat="45.17012" lon="5.65749">
        <ele>836</ele>
        <time>2015-08-23T08:43:18.000Z</time>
      </trkpt>
      <trkpt lat="45.17012" lon="5.65749">
        <ele>836</ele>
        <time>2015-08-23T08:43:20.000Z</time>
      </trkpt>
      <trkpt lat="45.17012" lon="5.65749">
        <ele>836</ele>
        <time>2015-08-23T08:43:22.000Z</time>
      </trkpt>
      <trkpt lat="45.17012" lon="5.65749">
        <ele>836</ele>
        <time>2015-08-23T08:43:24.000Z</time>
      </trkpt>
      <trkpt lat="45.17012" lon="5.65749">
        <ele>836</ele>
        <time>2015-08-23T08:43:26.000Z</time>
      </trkpt>
      <trkpt lat="45.1701" lon="5.6579">
        <ele>849</ele>
        <time>2015-08-23T08:43:36.000Z</time>
      </trkpt>
      <trkpt lat="45.17012" lon="5.65807">
        <ele>848</ele>
        <time>2015-08-23T08:43:42.000Z</time>
      </trkpt>
      <trkpt lat="45.17012" lon="5.65824">
        <ele>847</ele>
        <time>2015-08-23T08:43:48.000Z</time>
      </trkpt>
      <trkpt lat="45.1701" lon="5.65839">
        <ele>851</ele>
        <time>2015-08-23T08:43:54.000Z</time>
      </trkpt>
      <trkpt lat="45.17008" lon="5.65857">
        <ele>851</ele>
        <time>2015-08-23T08:44:00.000Z</time>
      </trkpt>
      <trkpt lat="45.17001" lon="5.65867">
        <ele>846</ele>
        <time>2015-08-23T08:44:04.000Z</time>
      </trkpt>
      <trkpt lat="45.17001" lon="5.65867">
        <ele>846</ele>
        <time>2015-08-23T08:44:06.000Z</time>
      </trkpt>
      <trkpt lat="45.17001" lon="5.65867">
        <ele>846</ele>
        <time>2015-08-23T08:44:08.000Z</time>
      </trkpt>
      <trkpt lat="45.17001" lon="5.65867">
        <ele>846</ele>
        <time>2015-08-23T08:44:10.000Z</time>
      </trkpt>
      <trkpt lat="45.1699" lon="5.65884">
        <ele>850</ele>
        <time>2015-08-23T08:44:16.000Z</time>
      </trkpt>
      <trkpt lat="45.16987" lon="5.6589">
        <ele>853</ele>
        <time>2015-08-23T08:44:22.000Z</time>
      </trkpt>
      <trkpt lat="45.16985" lon="5.65897">
        <ele>859</ele>
        <time>2015-08-23T08:44:26.000Z</time>
      </trkpt>
      <trkpt lat="45.16984" lon="5.65903">
        <ele>859</ele>
        <time>2015-08-23T08:44:28.000Z</time>
      </trkpt>
      <trkpt lat="45.16981" lon="5.65911">
        <ele>862</ele>
        <time>2015-08-23T08:44:32.000Z</time>
      </trkpt>
      <trkpt lat="45.16979" lon="5.65917">
        <ele>863</ele>
        <time>2015-08-23T08:44:34.000Z</time>
      </trkpt>
      <trkpt lat="45.16977" lon="5.65923">
        <ele>863</ele>
        <time>2015-08-23T08:44:36.000Z</time>
      </trkpt>
      <trkpt lat="45.16973" lon="5.6593">
        <ele>866</ele>
        <time>2015-08-23T08:44:40.000Z</time>
      </trkpt>
      <trkpt lat="45.16971" lon="5.65936">
        <ele>867</ele>
        <time>2015-08-23T08:44:42.000Z</time>
      </trkpt>
      <trkpt lat="45.16968" lon="5.65941">
        <ele>868</ele>
        <time>2015-08-23T08:44:44.000Z</time>
      </trkpt>
      <trkpt lat="45.16965" lon="5.65946">
        <ele>866</ele>
        <time>2015-08-23T08:44:46.000Z</time>
      </trkpt>
      <trkpt lat="45.16962" lon="5.65951">
        <ele>867</ele>
        <time>2015-08-23T08:44:48.000Z</time>
      </trkpt>
      <trkpt lat="45.16956" lon="5.6596">
        <ele>867</ele>
        <time>2015-08-23T08:44:50.000Z</time>
      </trkpt>
      <trkpt lat="45.16948" lon="5.65973">
        <ele>867</ele>
        <time>2015-08-23T08:44:56.000Z</time>
      </trkpt>
      <trkpt lat="45.16938" lon="5.65983">
        <ele>871</ele>
        <time>2015-08-23T08:45:02.000Z</time>
      </trkpt>
      <trkpt lat="45.16916" lon="5.65983">
        <ele>871</ele>
        <time>2015-08-23T08:45:15.000Z</time>
      </trkpt>
      <trkpt lat="45.16902" lon="5.65989">
        <ele>866</ele>
        <time>2015-08-23T08:45:19.000Z</time>
      </trkpt>
      <trkpt lat="45.16891" lon="5.65988">
        <ele>852</ele>
        <time>2015-08-23T08:45:23.000Z</time>
      </trkpt>
      <trkpt lat="45.16891" lon="5.65988">
        <ele>852</ele>
        <time>2015-08-23T08:45:25.000Z</time>
      </trkpt>
      <trkpt lat="45.16891" lon="5.65988">
        <ele>852</ele>
        <time>2015-08-23T08:45:27.000Z</time>
      </trkpt>
      <trkpt lat="45.16891" lon="5.65988">
        <ele>852</ele>
        <time>2015-08-23T08:45:29.000Z</time>
      </trkpt>
      <trkpt lat="45.16867" lon="5.65976">
        <ele>817</ele>
        <time>2015-08-23T08:45:37.000Z</time>
      </trkpt>
      <trkpt lat="45.16859" lon="5.65967">
        <ele>840</ele>
        <time>2015-08-23T08:45:41.000Z</time>
      </trkpt>
      <trkpt lat="45.16851" lon="5.65959">
        <ele>851</ele>
        <time>2015-08-23T08:45:45.000Z</time>
      </trkpt>
      <trkpt lat="45.16851" lon="5.65959">
        <ele>851</ele>
        <time>2015-08-23T08:45:47.000Z</time>
      </trkpt>
      <trkpt lat="45.16851" lon="5.65959">
        <ele>851</ele>
        <time>2015-08-23T08:45:49.000Z</time>
      </trkpt>
      <trkpt lat="45.16851" lon="5.65959">
        <ele>851</ele>
        <time>2015-08-23T08:45:51.000Z</time>
      </trkpt>
      <trkpt lat="45.16851" lon="5.65959">
        <ele>851</ele>
        <time>2015-08-23T08:45:53.000Z</time>
      </trkpt>
      <trkpt lat="45.16826" lon="5.65931">
        <ele>865</ele>
        <time>2015-08-23T08:46:00.000Z</time>
      </trkpt>
      <trkpt lat="45.1682" lon="5.65921">
        <ele>865</ele>
        <time>2015-08-23T08:46:04.000Z</time>
      </trkpt>
      <trkpt lat="45.1681" lon="5.65909">
        <ele>869</ele>
        <time>2015-08-23T08:46:10.000Z</time>
      </trkpt>
      <trkpt lat="45.16799" lon="5.65897">
        <ele>870</ele>
        <time>2015-08-23T08:46:17.000Z</time>
      </trkpt>
      <trkpt lat="45.1679" lon="5.65886">
        <ele>871</ele>
        <time>2015-08-23T08:46:20.000Z</time>
      </trkpt>
      <trkpt lat="45.16783" lon="5.65872">
        <ele>872</ele>
        <time>2015-08-23T08:46:24.000Z</time>
      </trkpt>
      <trkpt lat="45.1678" lon="5.65866">
        <ele>871</ele>
        <time>2015-08-23T08:46:28.000Z</time>
      </trkpt>
      <trkpt lat="45.16777" lon="5.6586">
        <ele>873</ele>
        <time>2015-08-23T08:46:30.000Z</time>
      </trkpt>
      <trkpt lat="45.16777" lon="5.6586">
        <ele>873</ele>
        <time>2015-08-23T08:46:32.000Z</time>
      </trkpt>
      <trkpt lat="45.16777" lon="5.6586">
        <ele>873</ele>
        <time>2015-08-23T08:46:34.000Z</time>
      </trkpt>
      <trkpt lat="45.16777" lon="5.6586">
        <ele>873</ele>
        <time>2015-08-23T08:46:37.000Z</time>
      </trkpt>
      <trkpt lat="45.16765" lon="5.65844">
        <ele>878</ele>
        <time>2015-08-23T08:46:41.000Z</time>
      </trkpt>
      <trkpt lat="45.16757" lon="5.65834">
        <ele>879</ele>
        <time>2015-08-23T08:46:43.000Z</time>
      </trkpt>
      <trkpt lat="45.16751" lon="5.65826">
        <ele>878</ele>
        <time>2015-08-23T08:46:45.000Z</time>
      </trkpt>
      <trkpt lat="45.16747" lon="5.6582">
        <ele>877</ele>
        <time>2015-08-23T08:46:47.000Z</time>
      </trkpt>
      <trkpt lat="45.16747" lon="5.6582">
        <ele>877</ele>
        <time>2015-08-23T08:46:49.000Z</time>
      </trkpt>
      <trkpt lat="45.16747" lon="5.6582">
        <ele>877</ele>
        <time>2015-08-23T08:46:51.000Z</time>
      </trkpt>
      <trkpt lat="45.16747" lon="5.6582">
        <ele>877</ele>
        <time>2015-08-23T08:46:53.000Z</time>
      </trkpt>
      <trkpt lat="45.16737" lon="5.65804">
        <ele>886</ele>
        <time>2015-08-23T08:46:57.000Z</time>
      </trkpt>
      <trkpt lat="45.1673" lon="5.65794">
        <ele>883</ele>
        <time>2015-08-23T08:46:59.000Z</time>
      </trkpt>
      <trkpt lat="45.16726" lon="5.65786">
        <ele>885</ele>
        <time>2015-08-23T08:47:01.000Z</time>
      </trkpt>
      <trkpt lat="45.16721" lon="5.65781">
        <ele>887</ele>
        <time>2015-08-23T08:47:03.000Z</time>
      </trkpt>
      <trkpt lat="45.16717" lon="5.65777">
        <ele>887</ele>
        <time>2015-08-23T08:47:05.000Z</time>
      </trkpt>
      <trkpt lat="45.16709" lon="5.6577">
        <ele>890</ele>
        <time>2015-08-23T08:47:07.000Z</time>
      </trkpt>
      <trkpt lat="45.16696" lon="5.65762">
        <ele>892</ele>
        <time>2015-08-23T08:47:13.000Z</time>
      </trkpt>
      <trkpt lat="45.16696" lon="5.65762">
        <ele>892</ele>
        <time>2015-08-23T08:47:15.000Z</time>
      </trkpt>
      <trkpt lat="45.16696" lon="5.65762">
        <ele>892</ele>
        <time>2015-08-23T08:47:17.000Z</time>
      </trkpt>
      <trkpt lat="45.16696" lon="5.65762">
        <ele>892</ele>
        <time>2015-08-23T08:47:19.000Z</time>
      </trkpt>
      <trkpt lat="45.16696" lon="5.65762">
        <ele>892</ele>
        <time>2015-08-23T08:47:21.000Z</time>
      </trkpt>
      <trkpt lat="45.16681" lon="5.65728">
        <ele>891</ele>
        <time>2015-08-23T08:47:25.000Z</time>
      </trkpt>
      <trkpt lat="45.16673" lon="5.65716">
        <ele>896</ele>
        <time>2015-08-23T08:47:29.000Z</time>
      </trkpt>
      <trkpt lat="45.16665" lon="5.6571">
        <ele>896</ele>
        <time>2015-08-23T08:47:33.000Z</time>
      </trkpt>
      <trkpt lat="45.16665" lon="5.6571">
        <ele>896</ele>
        <time>2015-08-23T08:47:35.000Z</time>
      </trkpt>
      <trkpt lat="45.16665" lon="5.6571">
        <ele>896</ele>
        <time>2015-08-23T08:47:37.000Z</time>
      </trkpt>
      <trkpt lat="45.16665" lon="5.6571">
        <ele>896</ele>
        <time>2015-08-23T08:47:39.000Z</time>
      </trkpt>
      <trkpt lat="45.16665" lon="5.6571">
        <ele>896</ele>
        <time>2015-08-23T08:47:41.000Z</time>
      </trkpt>
      <trkpt lat="45.16665" lon="5.6571">
        <ele>896</ele>
        <time>2015-08-23T08:47:43.000Z</time>
      </trkpt>
      <trkpt lat="45.16635" lon="5.65689">
        <ele>898</ele>
        <time>2015-08-23T08:47:49.000Z</time>
      </trkpt>
      <trkpt lat="45.16624" lon="5.65687">
        <ele>898</ele>
        <time>2015-08-23T08:47:53.000Z</time>
      </trkpt>
      <trkpt lat="45.16614" lon="5.65685">
        <ele>897</ele>
        <time>2015-08-23T08:47:57.000Z</time>
      </trkpt>
      <trkpt lat="45.16614" lon="5.65685">
        <ele>897</ele>
        <time>2015-08-23T08:47:59.000Z</time>
      </trkpt>
      <trkpt lat="45.16589" lon="5.65694">
        <ele>904</ele>
        <time>2015-08-23T08:48:09.000Z</time>
      </trkpt>
      <trkpt lat="45.16589" lon="5.65694">
        <ele>904</ele>
        <time>2015-08-23T08:48:11.000Z</time>
      </trkpt>
      <trkpt lat="45.16589" lon="5.65694">
        <ele>904</ele>
        <time>2015-08-23T08:48:13.000Z</time>
      </trkpt>
      <trkpt lat="45.16589" lon="5.65694">
        <ele>904</ele>
        <time>2015-08-23T08:48:15.000Z</time>
      </trkpt>
      <trkpt lat="45.16589" lon="5.65694">
        <ele>904</ele>
        <time>2015-08-23T08:48:17.000Z</time>
      </trkpt>
      <trkpt lat="45.1657" lon="5.65702">
        <ele>816</ele>
        <time>2015-08-23T08:48:27.000Z</time>
      </trkpt>
      <trkpt lat="45.1657" lon="5.65702">
        <ele>816</ele>
        <time>2015-08-23T08:48:29.000Z</time>
      </trkpt>
      <trkpt lat="45.1657" lon="5.65702">
        <ele>816</ele>
        <time>2015-08-23T08:48:31.000Z</time>
      </trkpt>
      <trkpt lat="45.1657" lon="5.65702">
        <ele>816</ele>
        <time>2015-08-23T08:48:33.000Z</time>
      </trkpt>
      <trkpt lat="45.16547" lon="5.6571">
        <ele>892</ele>
        <time>2015-08-23T08:48:39.000Z</time>
      </trkpt>
      <trkpt lat="45.16533" lon="5.65715">
        <ele>894</ele>
        <time>2015-08-23T08:48:41.000Z</time>
      </trkpt>
      <trkpt lat="45.16523" lon="5.65718">
        <ele>897</ele>
        <time>2015-08-23T08:48:43.000Z</time>
      </trkpt>
      <trkpt lat="45.16515" lon="5.65721">
        <ele>683</ele>
        <time>2015-08-23T08:48:45.000Z</time>
      </trkpt>
      <trkpt lat="45.16509" lon="5.65724">
        <ele>772</ele>
        <time>2015-08-23T08:48:47.000Z</time>
      </trkpt>
      <trkpt lat="45.16497" lon="5.6573">
        <ele>814</ele>
        <time>2015-08-23T08:48:49.000Z</time>
      </trkpt>
      <trkpt lat="45.16488" lon="5.65731">
        <ele>870</ele>
        <time>2015-08-23T08:48:53.000Z</time>
      </trkpt>
      <trkpt lat="45.16479" lon="5.65734">
        <ele>888</ele>
        <time>2015-08-23T08:48:57.000Z</time>
      </trkpt>
      <trkpt lat="45.16469" lon="5.65736">
        <ele>903</ele>
        <time>2015-08-23T08:49:01.000Z</time>
      </trkpt>
      <trkpt lat="45.16459" lon="5.65738">
        <ele>911</ele>
        <time>2015-08-23T08:49:05.000Z</time>
      </trkpt>
      <trkpt lat="45.16447" lon="5.65738">
        <ele>905</ele>
        <time>2015-08-23T08:49:09.000Z</time>
      </trkpt>
      <trkpt lat="45.16432" lon="5.65739">
        <ele>905</ele>
        <time>2015-08-23T08:49:13.000Z</time>
      </trkpt>
      <trkpt lat="45.16421" lon="5.65743">
        <ele>910</ele>
        <time>2015-08-23T08:49:17.000Z</time>
      </trkpt>
      <trkpt lat="45.16421" lon="5.65743">
        <ele>910</ele>
        <time>2015-08-23T08:49:19.000Z</time>
      </trkpt>
      <trkpt lat="45.16421" lon="5.65743">
        <ele>910</ele>
        <time>2015-08-23T08:49:21.000Z</time>
      </trkpt>
      <trkpt lat="45.16421" lon="5.65743">
        <ele>910</ele>
        <time>2015-08-23T08:49:23.000Z</time>
      </trkpt>
      <trkpt lat="45.16421" lon="5.65743">
        <ele>910</ele>
        <time>2015-08-23T08:49:25.000Z</time>
      </trkpt>
      <trkpt lat="45.16421" lon="5.65743">
        <ele>910</ele>
        <time>2015-08-23T08:49:27.000Z</time>
      </trkpt>
      <trkpt lat="45.16421" lon="5.65743">
        <ele>910</ele>
        <time>2015-08-23T08:49:29.000Z</time>
      </trkpt>
      <trkpt lat="45.16414" lon="5.65729">
        <ele>902</ele>
        <time>2015-08-23T08:49:41.000Z</time>
      </trkpt>
      <trkpt lat="45.16426" lon="5.65726">
        <ele>900</ele>
        <time>2015-08-23T08:49:47.000Z</time>
      </trkpt>
      <trkpt lat="45.16435" lon="5.65726">
        <ele>904</ele>
        <time>2015-08-23T08:49:51.000Z</time>
      </trkpt>
      <trkpt lat="45.16446" lon="5.65732">
        <ele>902</ele>
        <time>2015-08-23T08:49:57.000Z</time>
      </trkpt>
      <trkpt lat="45.16459" lon="5.65729">
        <ele>903</ele>
        <time>2015-08-23T08:50:01.000Z</time>
      </trkpt>
      <trkpt lat="45.16467" lon="5.65723">
        <ele>902</ele>
        <time>2015-08-23T08:50:03.000Z</time>
      </trkpt>
      <trkpt lat="45.16467" lon="5.65723">
        <ele>902</ele>
        <time>2015-08-23T08:50:06.000Z</time>
      </trkpt>
      <trkpt lat="45.16467" lon="5.65723">
        <ele>902</ele>
        <time>2015-08-23T08:50:08.000Z</time>
      </trkpt>
      <trkpt lat="45.16464" lon="5.65728">
        <ele>855</ele>
        <time>2015-08-23T08:50:42.000Z</time>
      </trkpt>
      <trkpt lat="45.16464" lon="5.65728">
        <ele>855</ele>
        <time>2015-08-23T08:50:44.000Z</time>
      </trkpt>
      <trkpt lat="45.16464" lon="5.65728">
        <ele>855</ele>
        <time>2015-08-23T08:50:46.000Z</time>
      </trkpt>
      <trkpt lat="45.16464" lon="5.65728">
        <ele>855</ele>
        <time>2015-08-23T08:50:48.000Z</time>
      </trkpt>
      <trkpt lat="45.16453" lon="5.65735">
        <ele>906</ele>
        <time>2015-08-23T08:50:54.000Z</time>
      </trkpt>
      <trkpt lat="45.16446" lon="5.65739">
        <ele>910</ele>
        <time>2015-08-23T08:50:56.000Z</time>
      </trkpt>
      <trkpt lat="45.16441" lon="5.65741">
        <ele>914</ele>
        <time>2015-08-23T08:50:58.000Z</time>
      </trkpt>
      <trkpt lat="45.16436" lon="5.65742">
        <ele>914</ele>
        <time>2015-08-23T08:51:00.000Z</time>
      </trkpt>
      <trkpt lat="45.16436" lon="5.65742">
        <ele>914</ele>
        <time>2015-08-23T08:51:02.000Z</time>
      </trkpt>
      <trkpt lat="45.16436" lon="5.65742">
        <ele>914</ele>
        <time>2015-08-23T08:51:04.000Z</time>
      </trkpt>
      <trkpt lat="45.16436" lon="5.65742">
        <ele>914</ele>
        <time>2015-08-23T08:51:06.000Z</time>
      </trkpt>
      <trkpt lat="45.16423" lon="5.65742">
        <ele>916</ele>
        <time>2015-08-23T08:51:14.000Z</time>
      </trkpt>
      <trkpt lat="45.16423" lon="5.65742">
        <ele>916</ele>
        <time>2015-08-23T08:51:16.000Z</time>
      </trkpt>
      <trkpt lat="45.16423" lon="5.65742">
        <ele>916</ele>
        <time>2015-08-23T08:51:18.000Z</time>
      </trkpt>
      <trkpt lat="45.16409" lon="5.65738">
        <ele>903</ele>
        <time>2015-08-23T08:51:22.000Z</time>
      </trkpt>
      <trkpt lat="45.16401" lon="5.65734">
        <ele>903</ele>
        <time>2015-08-23T08:51:24.000Z</time>
      </trkpt>
      <trkpt lat="45.16401" lon="5.65734">
        <ele>903</ele>
        <time>2015-08-23T08:51:26.000Z</time>
      </trkpt>
      <trkpt lat="45.16401" lon="5.65734">
        <ele>903</ele>
        <time>2015-08-23T08:51:28.000Z</time>
      </trkpt>
      <trkpt lat="45.16401" lon="5.65734">
        <ele>903</ele>
        <time>2015-08-23T08:51:30.000Z</time>
      </trkpt>
      <trkpt lat="45.16397" lon="5.65723">
        <ele>898</ele>
        <time>2015-08-23T08:51:40.000Z</time>
      </trkpt>
      <trkpt lat="45.16397" lon="5.65715">
        <ele>900</ele>
        <time>2015-08-23T08:51:44.000Z</time>
      </trkpt>
      <trkpt lat="45.16397" lon="5.65708">
        <ele>905</ele>
        <time>2015-08-23T08:51:50.000Z</time>
      </trkpt>
      <trkpt lat="45.16397" lon="5.65708">
        <ele>905</ele>
        <time>2015-08-23T08:51:52.000Z</time>
      </trkpt>
      <trkpt lat="45.16397" lon="5.65708">
        <ele>905</ele>
        <time>2015-08-23T08:51:54.000Z</time>
      </trkpt>
      <trkpt lat="45.16397" lon="5.65708">
        <ele>905</ele>
        <time>2015-08-23T08:51:56.000Z</time>
      </trkpt>
      <trkpt lat="45.16397" lon="5.65708">
        <ele>905</ele>
        <time>2015-08-23T08:51:58.000Z</time>
      </trkpt>
      <trkpt lat="45.16409" lon="5.65695">
        <ele>907</ele>
        <time>2015-08-23T08:52:10.000Z</time>
      </trkpt>
      <trkpt lat="45.16415" lon="5.65687">
        <ele>907</ele>
        <time>2015-08-23T08:52:12.000Z</time>
      </trkpt>
      <trkpt lat="45.1642" lon="5.65681">
        <ele>909</ele>
        <time>2015-08-23T08:52:14.000Z</time>
      </trkpt>
      <trkpt lat="45.16423" lon="5.65677">
        <ele>909</ele>
        <time>2015-08-23T08:52:16.000Z</time>
      </trkpt>
      <trkpt lat="45.16427" lon="5.65672">
        <ele>908</ele>
        <time>2015-08-23T08:52:20.000Z</time>
      </trkpt>
      <trkpt lat="45.1643" lon="5.65667">
        <ele>908</ele>
        <time>2015-08-23T08:52:24.000Z</time>
      </trkpt>
      <trkpt lat="45.16433" lon="5.65662">
        <ele>908</ele>
        <time>2015-08-23T08:52:28.000Z</time>
      </trkpt>
      <trkpt lat="45.16436" lon="5.65657">
        <ele>909</ele>
        <time>2015-08-23T08:52:32.000Z</time>
      </trkpt>
      <trkpt lat="45.1644" lon="5.65653">
        <ele>909</ele>
        <time>2015-08-23T08:52:36.000Z</time>
      </trkpt>
      <trkpt lat="45.16445" lon="5.65647">
        <ele>908</ele>
        <time>2015-08-23T08:52:40.000Z</time>
      </trkpt>
      <trkpt lat="45.16449" lon="5.65643">
        <ele>909</ele>
        <time>2015-08-23T08:52:44.000Z</time>
      </trkpt>
      <trkpt lat="45.16454" lon="5.6564">
        <ele>909</ele>
        <time>2015-08-23T08:52:48.000Z</time>
      </trkpt>
      <trkpt lat="45.1646" lon="5.65638">
        <ele>907</ele>
        <time>2015-08-23T08:52:52.000Z</time>
      </trkpt>
      <trkpt lat="45.16465" lon="5.65637">
        <ele>908</ele>
        <time>2015-08-23T08:52:56.000Z</time>
      </trkpt>
      <trkpt lat="45.1647" lon="5.65636">
        <ele>911</ele>
        <time>2015-08-23T08:53:00.000Z</time>
      </trkpt>
      <trkpt lat="45.16475" lon="5.65636">
        <ele>910</ele>
        <time>2015-08-23T08:53:02.000Z</time>
      </trkpt>
      <trkpt lat="45.16481" lon="5.65635">
        <ele>912</ele>
        <time>2015-08-23T08:53:06.000Z</time>
      </trkpt>
      <trkpt lat="45.16486" lon="5.65633">
        <ele>915</ele>
        <time>2015-08-23T08:53:08.000Z</time>
      </trkpt>
      <trkpt lat="45.16491" lon="5.65631">
        <ele>915</ele>
        <time>2015-08-23T08:53:12.000Z</time>
      </trkpt>
      <trkpt lat="45.16497" lon="5.65629">
        <ele>915</ele>
        <time>2015-08-23T08:53:16.000Z</time>
      </trkpt>
      <trkpt lat="45.16502" lon="5.65626">
        <ele>916</ele>
        <time>2015-08-23T08:53:20.000Z</time>
      </trkpt>
      <trkpt lat="45.16507" lon="5.65624">
        <ele>917</ele>
        <time>2015-08-23T08:53:24.000Z</time>
      </trkpt>
      <trkpt lat="45.16512" lon="5.65621">
        <ele>917</ele>
        <time>2015-08-23T08:53:28.000Z</time>
      </trkpt>
      <trkpt lat="45.16517" lon="5.65618">
        <ele>918</ele>
        <time>2015-08-23T08:53:32.000Z</time>
      </trkpt>
      <trkpt lat="45.16517" lon="5.65618">
        <ele>918</ele>
        <time>2015-08-23T08:53:34.000Z</time>
      </trkpt>
      <trkpt lat="45.16517" lon="5.65618">
        <ele>918</ele>
        <time>2015-08-23T08:53:36.000Z</time>
      </trkpt>
      <trkpt lat="45.16517" lon="5.65618">
        <ele>918</ele>
        <time>2015-08-23T08:53:38.000Z</time>
      </trkpt>
      <trkpt lat="45.16517" lon="5.65618">
        <ele>918</ele>
        <time>2015-08-23T08:53:40.000Z</time>
      </trkpt>
      <trkpt lat="45.16517" lon="5.65618">
        <ele>918</ele>
        <time>2015-08-23T08:53:42.000Z</time>
      </trkpt>
      <trkpt lat="45.16529" lon="5.65609">
        <ele>917</ele>
        <time>2015-08-23T08:53:46.000Z</time>
      </trkpt>
      <trkpt lat="45.16536" lon="5.65602">
        <ele>917</ele>
        <time>2015-08-23T08:53:48.000Z</time>
      </trkpt>
      <trkpt lat="45.16542" lon="5.65595">
        <ele>916</ele>
        <time>2015-08-23T08:53:50.000Z</time>
      </trkpt>
      <trkpt lat="45.16545" lon="5.65591">
        <ele>920</ele>
        <time>2015-08-23T08:53:52.000Z</time>
      </trkpt>
      <trkpt lat="45.16545" lon="5.65591">
        <ele>920</ele>
        <time>2015-08-23T08:53:54.000Z</time>
      </trkpt>
      <trkpt lat="45.16545" lon="5.65591">
        <ele>920</ele>
        <time>2015-08-23T08:53:56.000Z</time>
      </trkpt>
      <trkpt lat="45.16545" lon="5.65591">
        <ele>920</ele>
        <time>2015-08-23T08:53:58.000Z</time>
      </trkpt>
      <trkpt lat="45.16545" lon="5.65591">
        <ele>920</ele>
        <time>2015-08-23T08:54:06.000Z</time>
      </trkpt>
      <trkpt lat="45.1656" lon="5.65578">
        <ele>924</ele>
        <time>2015-08-23T08:54:10.000Z</time>
      </trkpt>
      <trkpt lat="45.16569" lon="5.65569">
        <ele>922</ele>
        <time>2015-08-23T08:54:12.000Z</time>
      </trkpt>
      <trkpt lat="45.16575" lon="5.65564">
        <ele>924</ele>
        <time>2015-08-23T08:54:14.000Z</time>
      </trkpt>
      <trkpt lat="45.16579" lon="5.65559">
        <ele>924</ele>
        <time>2015-08-23T08:54:16.000Z</time>
      </trkpt>
      <trkpt lat="45.16579" lon="5.65559">
        <ele>924</ele>
        <time>2015-08-23T08:54:18.000Z</time>
      </trkpt>
      <trkpt lat="45.16579" lon="5.65559">
        <ele>924</ele>
        <time>2015-08-23T08:54:20.000Z</time>
      </trkpt>
      <trkpt lat="45.16587" lon="5.65548">
        <ele>925</ele>
        <time>2015-08-23T08:54:28.000Z</time>
      </trkpt>
      <trkpt lat="45.16592" lon="5.65539">
        <ele>928</ele>
        <time>2015-08-23T08:54:32.000Z</time>
      </trkpt>
      <trkpt lat="45.16596" lon="5.65532">
        <ele>927</ele>
        <time>2015-08-23T08:54:34.000Z</time>
      </trkpt>
      <trkpt lat="45.16599" lon="5.65528">
        <ele>924</ele>
        <time>2015-08-23T08:54:36.000Z</time>
      </trkpt>
      <trkpt lat="45.16599" lon="5.65528">
        <ele>924</ele>
        <time>2015-08-23T08:54:38.000Z</time>
      </trkpt>
      <trkpt lat="45.16606" lon="5.65516">
        <ele>922</ele>
        <time>2015-08-23T08:54:48.000Z</time>
      </trkpt>
      <trkpt lat="45.1661" lon="5.65509">
        <ele>925</ele>
        <time>2015-08-23T08:54:50.000Z</time>
      </trkpt>
      <trkpt lat="45.16613" lon="5.65504">
        <ele>924</ele>
        <time>2015-08-23T08:54:52.000Z</time>
      </trkpt>
      <trkpt lat="45.16616" lon="5.65499">
        <ele>925</ele>
        <time>2015-08-23T08:54:56.000Z</time>
      </trkpt>
      <trkpt lat="45.16621" lon="5.65495">
        <ele>927</ele>
        <time>2015-08-23T08:55:00.000Z</time>
      </trkpt>
      <trkpt lat="45.16625" lon="5.65491">
        <ele>926</ele>
        <time>2015-08-23T08:55:04.000Z</time>
      </trkpt>
      <trkpt lat="45.1663" lon="5.65487">
        <ele>927</ele>
        <time>2015-08-23T08:55:08.000Z</time>
      </trkpt>
      <trkpt lat="45.1663" lon="5.65487">
        <ele>927</ele>
        <time>2015-08-23T08:55:10.000Z</time>
      </trkpt>
      <trkpt lat="45.1663" lon="5.65487">
        <ele>927</ele>
        <time>2015-08-23T08:55:12.000Z</time>
      </trkpt>
      <trkpt lat="45.16636" lon="5.65482">
        <ele>924</ele>
        <time>2015-08-23T08:55:14.000Z</time>
      </trkpt>
      <trkpt lat="45.1664" lon="5.65479">
        <ele>926</ele>
        <time>2015-08-23T08:55:16.000Z</time>
      </trkpt>
      <trkpt lat="45.16645" lon="5.65474">
        <ele>926</ele>
        <time>2015-08-23T08:55:20.000Z</time>
      </trkpt>
      <trkpt lat="45.16649" lon="5.65471">
        <ele>926</ele>
        <time>2015-08-23T08:55:22.000Z</time>
      </trkpt>
      <trkpt lat="45.16654" lon="5.65467">
        <ele>929</ele>
        <time>2015-08-23T08:55:26.000Z</time>
      </trkpt>
      <trkpt lat="45.16654" lon="5.65467">
        <ele>929</ele>
        <time>2015-08-23T08:55:28.000Z</time>
      </trkpt>
      <trkpt lat="45.16654" lon="5.65467">
        <ele>929</ele>
        <time>2015-08-23T08:55:30.000Z</time>
      </trkpt>
      <trkpt lat="45.16654" lon="5.65467">
        <ele>929</ele>
        <time>2015-08-23T08:55:32.000Z</time>
      </trkpt>
      <trkpt lat="45.16661" lon="5.65458">
        <ele>931</ele>
        <time>2015-08-23T08:56:10.000Z</time>
      </trkpt>
      <trkpt lat="45.16666" lon="5.65452">
        <ele>931</ele>
        <time>2015-08-23T08:56:12.000Z</time>
      </trkpt>
      <trkpt lat="45.1667" lon="5.65448">
        <ele>932</ele>
        <time>2015-08-23T08:56:14.000Z</time>
      </trkpt>
      <trkpt lat="45.16674" lon="5.65443">
        <ele>932</ele>
        <time>2015-08-23T08:56:18.000Z</time>
      </trkpt>
      <trkpt lat="45.16677" lon="5.65439">
        <ele>931</ele>
        <time>2015-08-23T08:56:20.000Z</time>
      </trkpt>
      <trkpt lat="45.16681" lon="5.65435">
        <ele>934</ele>
        <time>2015-08-23T08:56:24.000Z</time>
      </trkpt>
      <trkpt lat="45.16681" lon="5.65435">
        <ele>934</ele>
        <time>2015-08-23T08:56:30.000Z</time>
      </trkpt>
      <trkpt lat="45.16681" lon="5.65435">
        <ele>934</ele>
        <time>2015-08-23T08:56:32.000Z</time>
      </trkpt>
      <trkpt lat="45.16681" lon="5.65435">
        <ele>934</ele>
        <time>2015-08-23T08:56:34.000Z</time>
      </trkpt>
      <trkpt lat="45.16689" lon="5.65425">
        <ele>931</ele>
        <time>2015-08-23T08:56:44.000Z</time>
      </trkpt>
      <trkpt lat="45.16695" lon="5.6542">
        <ele>932</ele>
        <time>2015-08-23T08:56:46.000Z</time>
      </trkpt>
      <trkpt lat="45.16699" lon="5.65416">
        <ele>933</ele>
        <time>2015-08-23T08:56:48.000Z</time>
      </trkpt>
      <trkpt lat="45.16699" lon="5.65416">
        <ele>933</ele>
        <time>2015-08-23T08:56:50.000Z</time>
      </trkpt>
      <trkpt lat="45.16699" lon="5.65416">
        <ele>933</ele>
        <time>2015-08-23T08:56:52.000Z</time>
      </trkpt>
      <trkpt lat="45.16699" lon="5.65416">
        <ele>933</ele>
        <time>2015-08-23T08:57:02.000Z</time>
      </trkpt>
      <trkpt lat="45.16699" lon="5.65416">
        <ele>933</ele>
        <time>2015-08-23T08:57:04.000Z</time>
      </trkpt>
      <trkpt lat="45.16699" lon="5.65416">
        <ele>933</ele>
        <time>2015-08-23T08:57:06.000Z</time>
      </trkpt>
      <trkpt lat="45.16699" lon="5.65416">
        <ele>933</ele>
        <time>2015-08-23T08:57:08.000Z</time>
      </trkpt>
      <trkpt lat="45.16702" lon="5.65396">
        <ele>711</ele>
        <time>2015-08-23T08:57:36.000Z</time>
      </trkpt>
      <trkpt lat="45.16702" lon="5.65385">
        <ele>801</ele>
        <time>2015-08-23T08:57:38.000Z</time>
      </trkpt>
      <trkpt lat="45.16702" lon="5.65379">
        <ele>879</ele>
        <time>2015-08-23T08:57:40.000Z</time>
      </trkpt>
      <trkpt lat="45.167" lon="5.65372">
        <ele>923</ele>
        <time>2015-08-23T08:57:46.000Z</time>
      </trkpt>
      <trkpt lat="45.167" lon="5.65372">
        <ele>923</ele>
        <time>2015-08-23T08:57:52.000Z</time>
      </trkpt>
      <trkpt lat="45.167" lon="5.65372">
        <ele>923</ele>
        <time>2015-08-23T08:57:54.000Z</time>
      </trkpt>
      <trkpt lat="45.167" lon="5.65372">
        <ele>923</ele>
        <time>2015-08-23T08:57:56.000Z</time>
      </trkpt>
      <trkpt lat="45.167" lon="5.65372">
        <ele>923</ele>
        <time>2015-08-23T08:57:58.000Z</time>
      </trkpt>
      <trkpt lat="45.167" lon="5.65372">
        <ele>923</ele>
        <time>2015-08-23T08:58:22.000Z</time>
      </trkpt>
      <trkpt lat="45.167" lon="5.65372">
        <ele>923</ele>
        <time>2015-08-23T08:58:24.000Z</time>
      </trkpt>
      <trkpt lat="45.16689" lon="5.65367">
        <ele>990</ele>
        <time>2015-08-23T08:59:08.000Z</time>
      </trkpt>
      <trkpt lat="45.16682" lon="5.65366">
        <ele>989</ele>
        <time>2015-08-23T08:59:10.000Z</time>
      </trkpt>
      <trkpt lat="45.16677" lon="5.65367">
        <ele>988</ele>
        <time>2015-08-23T08:59:12.000Z</time>
      </trkpt>
      <trkpt lat="45.16672" lon="5.65368">
        <ele>985</ele>
        <time>2015-08-23T08:59:16.000Z</time>
      </trkpt>
      <trkpt lat="45.16672" lon="5.65368">
        <ele>985</ele>
        <time>2015-08-23T08:59:18.000Z</time>
      </trkpt>
      <trkpt lat="45.16672" lon="5.65368">
        <ele>985</ele>
        <time>2015-08-23T08:59:24.000Z</time>
      </trkpt>
      <trkpt lat="45.16658" lon="5.65359">
        <ele>975</ele>
        <time>2015-08-23T08:59:42.000Z</time>
      </trkpt>
      <trkpt lat="45.1665" lon="5.65353">
        <ele>975</ele>
        <time>2015-08-23T08:59:44.000Z</time>
      </trkpt>
      <trkpt lat="45.16645" lon="5.65349">
        <ele>975</ele>
        <time>2015-08-23T08:59:46.000Z</time>
      </trkpt>
      <trkpt lat="45.1664" lon="5.65343">
        <ele>974</ele>
        <time>2015-08-23T08:59:50.000Z</time>
      </trkpt>
      <trkpt lat="45.16637" lon="5.65338">
        <ele>975</ele>
        <time>2015-08-23T08:59:52.000Z</time>
      </trkpt>
      <trkpt lat="45.16633" lon="5.65331">
        <ele>977</ele>
        <time>2015-08-23T08:59:56.000Z</time>
      </trkpt>
      <trkpt lat="45.16631" lon="5.65326">
        <ele>976</ele>
        <time>2015-08-23T08:59:58.000Z</time>
      </trkpt>
      <trkpt lat="45.1663" lon="5.65318">
        <ele>982</ele>
        <time>2015-08-23T09:00:02.000Z</time>
      </trkpt>
      <trkpt lat="45.1663" lon="5.65318">
        <ele>982</ele>
        <time>2015-08-23T09:00:04.000Z</time>
      </trkpt>
      <trkpt lat="45.1663" lon="5.65318">
        <ele>982</ele>
        <time>2015-08-23T09:00:06.000Z</time>
      </trkpt>
      <trkpt lat="45.1663" lon="5.65318">
        <ele>982</ele>
        <time>2015-08-23T09:00:08.000Z</time>
      </trkpt>
      <trkpt lat="45.1663" lon="5.65318">
        <ele>982</ele>
        <time>2015-08-23T09:00:10.000Z</time>
      </trkpt>
      <trkpt lat="45.16626" lon="5.65302">
        <ele>980</ele>
        <time>2015-08-23T09:00:18.000Z</time>
      </trkpt>
      <trkpt lat="45.16623" lon="5.65292">
        <ele>980</ele>
        <time>2015-08-23T09:00:20.000Z</time>
      </trkpt>
      <trkpt lat="45.1662" lon="5.65285">
        <ele>978</ele>
        <time>2015-08-23T09:00:22.000Z</time>
      </trkpt>
      <trkpt lat="45.16619" lon="5.65277">
        <ele>975</ele>
        <time>2015-08-23T09:00:26.000Z</time>
      </trkpt>
      <trkpt lat="45.16617" lon="5.6527">
        <ele>974</ele>
        <time>2015-08-23T09:00:28.000Z</time>
      </trkpt>
      <trkpt lat="45.16617" lon="5.6527">
        <ele>974</ele>
        <time>2015-08-23T09:00:32.000Z</time>
      </trkpt>
      <trkpt lat="45.16617" lon="5.6527">
        <ele>974</ele>
        <time>2015-08-23T09:00:34.000Z</time>
      </trkpt>
      <trkpt lat="45.16617" lon="5.6527">
        <ele>974</ele>
        <time>2015-08-23T09:00:36.000Z</time>
      </trkpt>
      <trkpt lat="45.16617" lon="5.6527">
        <ele>974</ele>
        <time>2015-08-23T09:00:38.000Z</time>
      </trkpt>
      <trkpt lat="45.16608" lon="5.65257">
        <ele>992</ele>
        <time>2015-08-23T09:00:48.000Z</time>
      </trkpt>
      <trkpt lat="45.16604" lon="5.65249">
        <ele>992</ele>
        <time>2015-08-23T09:00:50.000Z</time>
      </trkpt>
      <trkpt lat="45.166" lon="5.65243">
        <ele>992</ele>
        <time>2015-08-23T09:00:54.000Z</time>
      </trkpt>
      <trkpt lat="45.16596" lon="5.65238">
        <ele>996</ele>
        <time>2015-08-23T09:01:00.000Z</time>
      </trkpt>
      <trkpt lat="45.16596" lon="5.65238">
        <ele>996</ele>
        <time>2015-08-23T09:01:06.000Z</time>
      </trkpt>
      <trkpt lat="45.16596" lon="5.65238">
        <ele>996</ele>
        <time>2015-08-23T09:01:08.000Z</time>
      </trkpt>
      <trkpt lat="45.16596" lon="5.65238">
        <ele>996</ele>
        <time>2015-08-23T09:01:10.000Z</time>
      </trkpt>
      <trkpt lat="45.16592" lon="5.65227">
        <ele>1002</ele>
        <time>2015-08-23T09:01:14.000Z</time>
      </trkpt>
      <trkpt lat="45.16587" lon="5.65219">
        <ele>1002</ele>
        <time>2015-08-23T09:01:16.000Z</time>
      </trkpt>
      <trkpt lat="45.16584" lon="5.65215">
        <ele>1000</ele>
        <time>2015-08-23T09:01:18.000Z</time>
      </trkpt>
      <trkpt lat="45.1658" lon="5.65209">
        <ele>1002</ele>
        <time>2015-08-23T09:01:22.000Z</time>
      </trkpt>
      <trkpt lat="45.1658" lon="5.65209">
        <ele>1002</ele>
        <time>2015-08-23T09:01:24.000Z</time>
      </trkpt>
      <trkpt lat="45.1658" lon="5.65209">
        <ele>1002</ele>
        <time>2015-08-23T09:01:26.000Z</time>
      </trkpt>
      <trkpt lat="45.1658" lon="5.65209">
        <ele>1002</ele>
        <time>2015-08-23T09:01:28.000Z</time>
      </trkpt>
      <trkpt lat="45.1658" lon="5.65209">
        <ele>1002</ele>
        <time>2015-08-23T09:01:30.000Z</time>
      </trkpt>
      <trkpt lat="45.1658" lon="5.65209">
        <ele>1002</ele>
        <time>2015-08-23T09:01:38.000Z</time>
      </trkpt>
      <trkpt lat="45.1658" lon="5.65209">
        <ele>1002</ele>
        <time>2015-08-23T09:01:40.000Z</time>
      </trkpt>
      <trkpt lat="45.1658" lon="5.65209">
        <ele>1002</ele>
        <time>2015-08-23T09:01:42.000Z</time>
      </trkpt>
      <trkpt lat="45.16565" lon="5.65189">
        <ele>1002</ele>
        <time>2015-08-23T09:02:14.000Z</time>
      </trkpt>
      <trkpt lat="45.16556" lon="5.65179">
        <ele>1003</ele>
        <time>2015-08-23T09:02:16.000Z</time>
      </trkpt>
      <trkpt lat="45.16551" lon="5.65173">
        <ele>1001</ele>
        <time>2015-08-23T09:02:18.000Z</time>
      </trkpt>
      <trkpt lat="45.16551" lon="5.65173">
        <ele>1001</ele>
        <time>2015-08-23T09:02:20.000Z</time>
      </trkpt>
      <trkpt lat="45.16551" lon="5.65173">
        <ele>1001</ele>
        <time>2015-08-23T09:02:22.000Z</time>
      </trkpt>
      <trkpt lat="45.16544" lon="5.65164">
        <ele>1004</ele>
        <time>2015-08-23T09:02:28.000Z</time>
      </trkpt>
      <trkpt lat="45.16539" lon="5.6516">
        <ele>1006</ele>
        <time>2015-08-23T09:02:30.000Z</time>
      </trkpt>
      <trkpt lat="45.16539" lon="5.6516">
        <ele>1006</ele>
        <time>2015-08-23T09:02:34.000Z</time>
      </trkpt>
      <trkpt lat="45.16539" lon="5.6516">
        <ele>1006</ele>
        <time>2015-08-23T09:02:36.000Z</time>
      </trkpt>
      <trkpt lat="45.16539" lon="5.6516">
        <ele>1006</ele>
        <time>2015-08-23T09:02:38.000Z</time>
      </trkpt>
      <trkpt lat="45.16539" lon="5.6516">
        <ele>1006</ele>
        <time>2015-08-23T09:02:40.000Z</time>
      </trkpt>
      <trkpt lat="45.16528" lon="5.65162">
        <ele>1009</ele>
        <time>2015-08-23T09:02:46.000Z</time>
      </trkpt>
      <trkpt lat="45.16521" lon="5.65162">
        <ele>1006</ele>
        <time>2015-08-23T09:02:48.000Z</time>
      </trkpt>
      <trkpt lat="45.16521" lon="5.65162">
        <ele>1006</ele>
        <time>2015-08-23T09:02:50.000Z</time>
      </trkpt>
      <trkpt lat="45.16521" lon="5.65162">
        <ele>1006</ele>
        <time>2015-08-23T09:02:52.000Z</time>
      </trkpt>
      <trkpt lat="45.16521" lon="5.65162">
        <ele>1006</ele>
        <time>2015-08-23T09:03:00.000Z</time>
      </trkpt>
      <trkpt lat="45.16516" lon="5.65152">
        <ele>1009</ele>
        <time>2015-08-23T09:03:18.000Z</time>
      </trkpt>
      <trkpt lat="45.16512" lon="5.65145">
        <ele>1010</ele>
        <time>2015-08-23T09:03:20.000Z</time>
      </trkpt>
      <trkpt lat="45.16508" lon="5.65141">
        <ele>1010</ele>
        <time>2015-08-23T09:03:22.000Z</time>
      </trkpt>
      <trkpt lat="45.16504" lon="5.65136">
        <ele>1013</ele>
        <time>2015-08-23T09:03:26.000Z</time>
      </trkpt>
      <trkpt lat="45.165" lon="5.65131">
        <ele>1013</ele>
        <time>2015-08-23T09:03:28.000Z</time>
      </trkpt>
      <trkpt lat="45.16496" lon="5.65127">
        <ele>1017</ele>
        <time>2015-08-23T09:03:32.000Z</time>
      </trkpt>
      <trkpt lat="45.16491" lon="5.65123">
        <ele>809</ele>
        <time>2015-08-23T09:03:36.000Z</time>
      </trkpt>
      <trkpt lat="45.16486" lon="5.65119">
        <ele>935</ele>
        <time>2015-08-23T09:03:40.000Z</time>
      </trkpt>
      <trkpt lat="45.16481" lon="5.65116">
        <ele>987</ele>
        <time>2015-08-23T09:03:44.000Z</time>
      </trkpt>
      <trkpt lat="45.16477" lon="5.65111">
        <ele>995</ele>
        <time>2015-08-23T09:03:48.000Z</time>
      </trkpt>
      <trkpt lat="45.16474" lon="5.65104">
        <ele>1006</ele>
        <time>2015-08-23T09:03:52.000Z</time>
      </trkpt>
      <trkpt lat="45.16472" lon="5.65097">
        <ele>1013</ele>
        <time>2015-08-23T09:03:56.000Z</time>
      </trkpt>
      <trkpt lat="45.16471" lon="5.65089">
        <ele>1009</ele>
        <time>2015-08-23T09:04:00.000Z</time>
      </trkpt>
      <trkpt lat="45.16471" lon="5.65082">
        <ele>1007</ele>
        <time>2015-08-23T09:04:02.000Z</time>
      </trkpt>
      <trkpt lat="45.16471" lon="5.65075">
        <ele>1009</ele>
        <time>2015-08-23T09:04:06.000Z</time>
      </trkpt>
      <trkpt lat="45.16473" lon="5.65068">
        <ele>1012</ele>
        <time>2015-08-23T09:04:10.000Z</time>
      </trkpt>
      <trkpt lat="45.16473" lon="5.65068">
        <ele>1012</ele>
        <time>2015-08-23T09:04:14.000Z</time>
      </trkpt>
      <trkpt lat="45.16473" lon="5.65068">
        <ele>1012</ele>
        <time>2015-08-23T09:04:16.000Z</time>
      </trkpt>
      <trkpt lat="45.16473" lon="5.65068">
        <ele>1012</ele>
        <time>2015-08-23T09:04:18.000Z</time>
      </trkpt>
      <trkpt lat="45.16473" lon="5.65068">
        <ele>1012</ele>
        <time>2015-08-23T09:04:20.000Z</time>
      </trkpt>
      <trkpt lat="45.16473" lon="5.65049">
        <ele>1019</ele>
        <time>2015-08-23T09:04:28.000Z</time>
      </trkpt>
      <trkpt lat="45.16473" lon="5.65037">
        <ele>1018</ele>
        <time>2015-08-23T09:04:30.000Z</time>
      </trkpt>
      <trkpt lat="45.16472" lon="5.6503">
        <ele>1018</ele>
        <time>2015-08-23T09:04:32.000Z</time>
      </trkpt>
      <trkpt lat="45.16471" lon="5.65022">
        <ele>1017</ele>
        <time>2015-08-23T09:04:36.000Z</time>
      </trkpt>
      <trkpt lat="45.16471" lon="5.65022">
        <ele>1017</ele>
        <time>2015-08-23T09:04:38.000Z</time>
      </trkpt>
      <trkpt lat="45.16471" lon="5.65022">
        <ele>1017</ele>
        <time>2015-08-23T09:04:40.000Z</time>
      </trkpt>
      <trkpt lat="45.16471" lon="5.65022">
        <ele>1017</ele>
        <time>2015-08-23T09:04:48.000Z</time>
      </trkpt>
      <trkpt lat="45.16471" lon="5.65022">
        <ele>1017</ele>
        <time>2015-08-23T09:04:50.000Z</time>
      </trkpt>
      <trkpt lat="45.16471" lon="5.65022">
        <ele>1017</ele>
        <time>2015-08-23T09:04:52.000Z</time>
      </trkpt>
      <trkpt lat="45.16471" lon="5.65022">
        <ele>1017</ele>
        <time>2015-08-23T09:04:54.000Z</time>
      </trkpt>
      <trkpt lat="45.16471" lon="5.65022">
        <ele>1017</ele>
        <time>2015-08-23T09:04:56.000Z</time>
      </trkpt>
      <trkpt lat="45.16471" lon="5.65022">
        <ele>1017</ele>
        <time>2015-08-23T09:04:58.000Z</time>
      </trkpt>
      <trkpt lat="45.1647" lon="5.64987">
        <ele>1024</ele>
        <time>2015-08-23T09:05:18.000Z</time>
      </trkpt>
      <trkpt lat="45.16469" lon="5.64967">
        <ele>1025</ele>
        <time>2015-08-23T09:05:20.000Z</time>
      </trkpt>
      <trkpt lat="45.16468" lon="5.64955">
        <ele>1030</ele>
        <time>2015-08-23T09:05:22.000Z</time>
      </trkpt>
      <trkpt lat="45.16468" lon="5.64948">
        <ele>1029</ele>
        <time>2015-08-23T09:05:24.000Z</time>
      </trkpt>
      <trkpt lat="45.16468" lon="5.64941">
        <ele>1034</ele>
        <time>2015-08-23T09:05:28.000Z</time>
      </trkpt>
      <trkpt lat="45.16467" lon="5.64934">
        <ele>1036</ele>
        <time>2015-08-23T09:05:34.000Z</time>
      </trkpt>
      <trkpt lat="45.16465" lon="5.64927">
        <ele>1041</ele>
        <time>2015-08-23T09:05:40.000Z</time>
      </trkpt>
      <trkpt lat="45.16465" lon="5.64921">
        <ele>1045</ele>
        <time>2015-08-23T09:05:44.000Z</time>
      </trkpt>
      <trkpt lat="45.16463" lon="5.64913">
        <ele>1042</ele>
        <time>2015-08-23T09:05:48.000Z</time>
      </trkpt>
      <trkpt lat="45.16463" lon="5.64913">
        <ele>1042</ele>
        <time>2015-08-23T09:05:52.000Z</time>
      </trkpt>
      <trkpt lat="45.16463" lon="5.64913">
        <ele>1042</ele>
        <time>2015-08-23T09:05:54.000Z</time>
      </trkpt>
      <trkpt lat="45.16463" lon="5.64913">
        <ele>1042</ele>
        <time>2015-08-23T09:05:56.000Z</time>
      </trkpt>
      <trkpt lat="45.16462" lon="5.64896">
        <ele>1050</ele>
        <time>2015-08-23T09:06:04.000Z</time>
      </trkpt>
      <trkpt lat="45.16461" lon="5.64886">
        <ele>1052</ele>
        <time>2015-08-23T09:06:06.000Z</time>
      </trkpt>
      <trkpt lat="45.1646" lon="5.64878">
        <ele>1056</ele>
        <time>2015-08-23T09:06:10.000Z</time>
      </trkpt>
      <trkpt lat="45.1646" lon="5.64871">
        <ele>1055</ele>
        <time>2015-08-23T09:06:14.000Z</time>
      </trkpt>
      <trkpt lat="45.16463" lon="5.64863">
        <ele>1054</ele>
        <time>2015-08-23T09:06:18.000Z</time>
      </trkpt>
      <trkpt lat="45.16464" lon="5.64857">
        <ele>1054</ele>
        <time>2015-08-23T09:06:20.000Z</time>
      </trkpt>
      <trkpt lat="45.16465" lon="5.64851">
        <ele>1055</ele>
        <time>2015-08-23T09:06:24.000Z</time>
      </trkpt>
      <trkpt lat="45.16465" lon="5.64851">
        <ele>1055</ele>
        <time>2015-08-23T09:06:26.000Z</time>
      </trkpt>
      <trkpt lat="45.16465" lon="5.64851">
        <ele>1055</ele>
        <time>2015-08-23T09:06:34.000Z</time>
      </trkpt>
      <trkpt lat="45.16465" lon="5.64851">
        <ele>1055</ele>
        <time>2015-08-23T09:06:36.000Z</time>
      </trkpt>
      <trkpt lat="45.16465" lon="5.64851">
        <ele>1055</ele>
        <time>2015-08-23T09:06:38.000Z</time>
      </trkpt>
      <trkpt lat="45.16465" lon="5.64851">
        <ele>1055</ele>
        <time>2015-08-23T09:06:40.000Z</time>
      </trkpt>
      <trkpt lat="45.16475" lon="5.64828">
        <ele>1052</ele>
        <time>2015-08-23T09:07:08.000Z</time>
      </trkpt>
      <trkpt lat="45.16475" lon="5.64828">
        <ele>1052</ele>
        <time>2015-08-23T09:07:10.000Z</time>
      </trkpt>
      <trkpt lat="45.16475" lon="5.64828">
        <ele>1052</ele>
        <time>2015-08-23T09:07:12.000Z</time>
      </trkpt>
      <trkpt lat="45.16488" lon="5.64812">
        <ele>1058</ele>
        <time>2015-08-23T09:07:18.000Z</time>
      </trkpt>
      <trkpt lat="45.16496" lon="5.64803">
        <ele>1057</ele>
        <time>2015-08-23T09:07:20.000Z</time>
      </trkpt>
      <trkpt lat="45.16496" lon="5.64803">
        <ele>1057</ele>
        <time>2015-08-23T09:07:22.000Z</time>
      </trkpt>
      <trkpt lat="45.16496" lon="5.64803">
        <ele>1057</ele>
        <time>2015-08-23T09:07:24.000Z</time>
      </trkpt>
      <trkpt lat="45.16496" lon="5.64803">
        <ele>1057</ele>
        <time>2015-08-23T09:07:26.000Z</time>
      </trkpt>
      <trkpt lat="45.16496" lon="5.64803">
        <ele>1057</ele>
        <time>2015-08-23T09:07:54.000Z</time>
      </trkpt>
      <trkpt lat="45.16496" lon="5.64803">
        <ele>1057</ele>
        <time>2015-08-23T09:07:56.000Z</time>
      </trkpt>
      <trkpt lat="45.16528" lon="5.64775">
        <ele>1067</ele>
        <time>2015-08-23T09:08:19.000Z</time>
      </trkpt>
      <trkpt lat="45.16528" lon="5.64775">
        <ele>1067</ele>
        <time>2015-08-23T09:08:21.000Z</time>
      </trkpt>
      <trkpt lat="45.16528" lon="5.64775">
        <ele>1067</ele>
        <time>2015-08-23T09:08:23.000Z</time>
      </trkpt>
      <trkpt lat="45.16552" lon="5.64725">
        <ele>1076</ele>
        <time>2015-08-23T09:09:01.000Z</time>
      </trkpt>
      <trkpt lat="45.16563" lon="5.64699">
        <ele>1078</ele>
        <time>2015-08-23T09:09:03.000Z</time>
      </trkpt>
      <trkpt lat="45.16569" lon="5.64685">
        <ele>1079</ele>
        <time>2015-08-23T09:09:05.000Z</time>
      </trkpt>
      <trkpt lat="45.16571" lon="5.64675">
        <ele>1080</ele>
        <time>2015-08-23T09:09:07.000Z</time>
      </trkpt>
      <trkpt lat="45.16573" lon="5.64668">
        <ele>1078</ele>
        <time>2015-08-23T09:09:09.000Z</time>
      </trkpt>
      <trkpt lat="45.16576" lon="5.64656">
        <ele>1074</ele>
        <time>2015-08-23T09:09:11.000Z</time>
      </trkpt>
      <trkpt lat="45.16576" lon="5.64656">
        <ele>1074</ele>
        <time>2015-08-23T09:09:15.000Z</time>
      </trkpt>
      <trkpt lat="45.16576" lon="5.64656">
        <ele>1074</ele>
        <time>2015-08-23T09:09:17.000Z</time>
      </trkpt>
      <trkpt lat="45.16576" lon="5.64656">
        <ele>1074</ele>
        <time>2015-08-23T09:09:19.000Z</time>
      </trkpt>
      <trkpt lat="45.16569" lon="5.64632">
        <ele>1083</ele>
        <time>2015-08-23T09:09:29.000Z</time>
      </trkpt>
      <trkpt lat="45.1656" lon="5.64621">
        <ele>1092</ele>
        <time>2015-08-23T09:09:37.000Z</time>
      </trkpt>
      <trkpt lat="45.16555" lon="5.64606">
        <ele>1096</ele>
        <time>2015-08-23T09:09:47.000Z</time>
      </trkpt>
      <trkpt lat="45.16557" lon="5.64593">
        <ele>1093</ele>
        <time>2015-08-23T09:09:53.000Z</time>
      </trkpt>
      <trkpt lat="45.16562" lon="5.6458">
        <ele>1091</ele>
        <time>2015-08-23T09:10:02.000Z</time>
      </trkpt>
      <trkpt lat="45.16562" lon="5.6458">
        <ele>1091</ele>
        <time>2015-08-23T09:10:03.000Z</time>
      </trkpt>
      <trkpt lat="45.16562" lon="5.6458">
        <ele>1091</ele>
        <time>2015-08-23T09:10:05.000Z</time>
      </trkpt>
      <trkpt lat="45.16576" lon="5.64557">
        <ele>1089</ele>
        <time>2015-08-23T09:10:19.000Z</time>
      </trkpt>
      <trkpt lat="45.16576" lon="5.64557">
        <ele>1089</ele>
        <time>2015-08-23T09:10:23.000Z</time>
      </trkpt>
      <trkpt lat="45.16576" lon="5.64557">
        <ele>1089</ele>
        <time>2015-08-23T09:10:25.000Z</time>
      </trkpt>
      <trkpt lat="45.16576" lon="5.64557">
        <ele>1089</ele>
        <time>2015-08-23T09:10:27.000Z</time>
      </trkpt>
      <trkpt lat="45.16584" lon="5.64544">
        <ele>1088</ele>
        <time>2015-08-23T09:10:33.000Z</time>
      </trkpt>
      <trkpt lat="45.16589" lon="5.64535">
        <ele>1089</ele>
        <time>2015-08-23T09:10:35.000Z</time>
      </trkpt>
      <trkpt lat="45.16592" lon="5.64529">
        <ele>1091</ele>
        <time>2015-08-23T09:10:37.000Z</time>
      </trkpt>
      <trkpt lat="45.16592" lon="5.64529">
        <ele>1091</ele>
        <time>2015-08-23T09:10:39.000Z</time>
      </trkpt>
      <trkpt lat="45.16592" lon="5.64529">
        <ele>1091</ele>
        <time>2015-08-23T09:10:41.000Z</time>
      </trkpt>
      <trkpt lat="45.16592" lon="5.64529">
        <ele>1091</ele>
        <time>2015-08-23T09:10:43.000Z</time>
      </trkpt>
      <trkpt lat="45.16592" lon="5.64529">
        <ele>1091</ele>
        <time>2015-08-23T09:10:45.000Z</time>
      </trkpt>
      <trkpt lat="45.16592" lon="5.64529">
        <ele>1091</ele>
        <time>2015-08-23T09:10:47.000Z</time>
      </trkpt>
      <trkpt lat="45.16592" lon="5.64529">
        <ele>1091</ele>
        <time>2015-08-23T09:10:49.000Z</time>
      </trkpt>
      <trkpt lat="45.16598" lon="5.6451">
        <ele>1091</ele>
        <time>2015-08-23T09:10:55.000Z</time>
      </trkpt>
      <trkpt lat="45.16601" lon="5.64499">
        <ele>1094</ele>
        <time>2015-08-23T09:10:57.000Z</time>
      </trkpt>
      <trkpt lat="45.16604" lon="5.64489">
        <ele>1091</ele>
        <time>2015-08-23T09:10:59.000Z</time>
      </trkpt>
      <trkpt lat="45.16607" lon="5.64479">
        <ele>1091</ele>
        <time>2015-08-23T09:11:01.000Z</time>
      </trkpt>
      <trkpt lat="45.16609" lon="5.6447">
        <ele>1089</ele>
        <time>2015-08-23T09:11:03.000Z</time>
      </trkpt>
      <trkpt lat="45.16612" lon="5.64452">
        <ele>1091</ele>
        <time>2015-08-23T09:11:05.000Z</time>
      </trkpt>
      <trkpt lat="45.16612" lon="5.64436">
        <ele>1089</ele>
        <time>2015-08-23T09:11:09.000Z</time>
      </trkpt>
      <trkpt lat="45.16611" lon="5.64421">
        <ele>1091</ele>
        <time>2015-08-23T09:11:13.000Z</time>
      </trkpt>
      <trkpt lat="45.16611" lon="5.64421">
        <ele>1091</ele>
        <time>2015-08-23T09:11:15.000Z</time>
      </trkpt>
      <trkpt lat="45.16611" lon="5.64421">
        <ele>1091</ele>
        <time>2015-08-23T09:11:17.000Z</time>
      </trkpt>
      <trkpt lat="45.16611" lon="5.64421">
        <ele>1091</ele>
        <time>2015-08-23T09:11:19.000Z</time>
      </trkpt>
      <trkpt lat="45.16611" lon="5.64421">
        <ele>1091</ele>
        <time>2015-08-23T09:11:21.000Z</time>
      </trkpt>
      <trkpt lat="45.16611" lon="5.64421">
        <ele>1091</ele>
        <time>2015-08-23T09:11:21.000Z</time>
      </trkpt>
      <trkpt lat="45.16611" lon="5.64421">
        <ele>1091</ele>
        <time>2015-08-23T09:11:23.000Z</time>
      </trkpt>
      <trkpt lat="45.16611" lon="5.64421">
        <ele>1091</ele>
        <time>2015-08-23T09:11:25.000Z</time>
      </trkpt>
      <trkpt lat="45.16611" lon="5.64421">
        <ele>1091</ele>
        <time>2015-08-23T09:11:27.000Z</time>
      </trkpt>
      <trkpt lat="45.16611" lon="5.64421">
        <ele>1091</ele>
        <time>2015-08-23T09:11:29.000Z</time>
      </trkpt>
      <trkpt lat="45.16611" lon="5.64421">
        <ele>1091</ele>
        <time>2015-08-23T09:11:37.000Z</time>
      </trkpt>
      <trkpt lat="45.16611" lon="5.64421">
        <ele>1091</ele>
        <time>2015-08-23T09:11:39.000Z</time>
      </trkpt>
      <trkpt lat="45.16619" lon="5.64325">
        <ele>1098</ele>
        <time>2015-08-23T09:12:08.000Z</time>
      </trkpt>
      <trkpt lat="45.16618" lon="5.64318">
        <ele>1093</ele>
        <time>2015-08-23T09:12:15.000Z</time>
      </trkpt>
      <trkpt lat="45.16617" lon="5.64311">
        <ele>1094</ele>
        <time>2015-08-23T09:12:19.000Z</time>
      </trkpt>
      <trkpt lat="45.16616" lon="5.64304">
        <ele>1095</ele>
        <time>2015-08-23T09:12:23.000Z</time>
      </trkpt>
      <trkpt lat="45.16617" lon="5.64297">
        <ele>1093</ele>
        <time>2015-08-23T09:12:29.000Z</time>
      </trkpt>
      <trkpt lat="45.16617" lon="5.6429">
        <ele>1093</ele>
        <time>2015-08-23T09:12:32.000Z</time>
      </trkpt>
      <trkpt lat="45.16618" lon="5.64283">
        <ele>1093</ele>
        <time>2015-08-23T09:12:36.000Z</time>
      </trkpt>
      <trkpt lat="45.16621" lon="5.64276">
        <ele>1092</ele>
        <time>2015-08-23T09:12:40.000Z</time>
      </trkpt>
      <trkpt lat="45.16623" lon="5.64269">
        <ele>1090</ele>
        <time>2015-08-23T09:12:44.000Z</time>
      </trkpt>
      <trkpt lat="45.16623" lon="5.64269">
        <ele>1090</ele>
        <time>2015-08-23T09:12:48.000Z</time>
      </trkpt>
      <trkpt lat="45.16623" lon="5.64269">
        <ele>1090</ele>
        <time>2015-08-23T09:12:50.000Z</time>
      </trkpt>
      <trkpt lat="45.16631" lon="5.64253">
        <ele>1093</ele>
        <time>2015-08-23T09:13:22.000Z</time>
      </trkpt>
      <trkpt lat="45.16636" lon="5.64243">
        <ele>1093</ele>
        <time>2015-08-23T09:13:24.000Z</time>
      </trkpt>
      <trkpt lat="45.1664" lon="5.64236">
        <ele>1095</ele>
        <time>2015-08-23T09:13:26.000Z</time>
      </trkpt>
      <trkpt lat="45.16644" lon="5.64231">
        <ele>1096</ele>
        <time>2015-08-23T09:13:28.000Z</time>
      </trkpt>
      <trkpt lat="45.16648" lon="5.64225">
        <ele>1096</ele>
        <time>2015-08-23T09:13:33.000Z</time>
      </trkpt>
      <trkpt lat="45.16652" lon="5.6422">
        <ele>1098</ele>
        <time>2015-08-23T09:13:34.000Z</time>
      </trkpt>
      <trkpt lat="45.16656" lon="5.64216">
        <ele>1100</ele>
        <time>2015-08-23T09:13:36.000Z</time>
      </trkpt>
      <trkpt lat="45.1666" lon="5.64211">
        <ele>1096</ele>
        <time>2015-08-23T09:13:40.000Z</time>
      </trkpt>
      <trkpt lat="45.16664" lon="5.64207">
        <ele>1093</ele>
        <time>2015-08-23T09:13:42.000Z</time>
      </trkpt>
      <trkpt lat="45.16668" lon="5.64201">
        <ele>1093</ele>
        <time>2015-08-23T09:13:46.000Z</time>
      </trkpt>
      <trkpt lat="45.1667" lon="5.64196">
        <ele>1095</ele>
        <time>2015-08-23T09:13:48.000Z</time>
      </trkpt>
      <trkpt lat="45.16674" lon="5.64191">
        <ele>1100</ele>
        <time>2015-08-23T09:13:52.000Z</time>
      </trkpt>
      <trkpt lat="45.16677" lon="5.64186">
        <ele>1097</ele>
        <time>2015-08-23T09:13:56.000Z</time>
      </trkpt>
      <trkpt lat="45.16681" lon="5.6418">
        <ele>1093</ele>
        <time>2015-08-23T09:14:00.000Z</time>
      </trkpt>
      <trkpt lat="45.16686" lon="5.64175">
        <ele>1094</ele>
        <time>2015-08-23T09:14:04.000Z</time>
      </trkpt>
      <trkpt lat="45.1669" lon="5.64171">
        <ele>1096</ele>
        <time>2015-08-23T09:14:06.000Z</time>
      </trkpt>
      <trkpt lat="45.16695" lon="5.64166">
        <ele>1101</ele>
        <time>2015-08-23T09:14:10.000Z</time>
      </trkpt>
      <trkpt lat="45.167" lon="5.64162">
        <ele>1101</ele>
        <time>2015-08-23T09:14:14.000Z</time>
      </trkpt>
      <trkpt lat="45.16704" lon="5.64157">
        <ele>1102</ele>
        <time>2015-08-23T09:14:18.000Z</time>
      </trkpt>
      <trkpt lat="45.1671" lon="5.64154">
        <ele>1007</ele>
        <time>2015-08-23T09:14:23.000Z</time>
      </trkpt>
      <trkpt lat="45.16714" lon="5.64152">
        <ele>1032</ele>
        <time>2015-08-23T09:14:24.000Z</time>
      </trkpt>
      <trkpt lat="45.16719" lon="5.64148">
        <ele>1066</ele>
        <time>2015-08-23T09:14:29.000Z</time>
      </trkpt>
      <trkpt lat="45.16723" lon="5.64144">
        <ele>1075</ele>
        <time>2015-08-23T09:14:32.000Z</time>
      </trkpt>
      <trkpt lat="45.16727" lon="5.64139">
        <ele>1086</ele>
        <time>2015-08-23T09:14:36.000Z</time>
      </trkpt>
      <trkpt lat="45.1673" lon="5.64134">
        <ele>1089</ele>
        <time>2015-08-23T09:14:38.000Z</time>
      </trkpt>
      <trkpt lat="45.16734" lon="5.6413">
        <ele>1095</ele>
        <time>2015-08-23T09:14:42.000Z</time>
      </trkpt>
      <trkpt lat="45.16739" lon="5.64126">
        <ele>1101</ele>
        <time>2015-08-23T09:14:46.000Z</time>
      </trkpt>
      <trkpt lat="45.16744" lon="5.64123">
        <ele>1099</ele>
        <time>2015-08-23T09:14:50.000Z</time>
      </trkpt>
      <trkpt lat="45.16749" lon="5.6412">
        <ele>1100</ele>
        <time>2015-08-23T09:14:54.000Z</time>
      </trkpt>
      <trkpt lat="45.16755" lon="5.64117">
        <ele>1098</ele>
        <time>2015-08-23T09:14:58.000Z</time>
      </trkpt>
      <trkpt lat="45.16755" lon="5.64117">
        <ele>1098</ele>
        <time>2015-08-23T09:15:00.000Z</time>
      </trkpt>
      <trkpt lat="45.16755" lon="5.64117">
        <ele>1098</ele>
        <time>2015-08-23T09:15:02.000Z</time>
      </trkpt>
      <trkpt lat="45.16755" lon="5.64117">
        <ele>1098</ele>
        <time>2015-08-23T09:15:04.000Z</time>
      </trkpt>
      <trkpt lat="45.16755" lon="5.64117">
        <ele>1098</ele>
        <time>2015-08-23T09:15:06.000Z</time>
      </trkpt>
      <trkpt lat="45.16755" lon="5.64117">
        <ele>1098</ele>
        <time>2015-08-23T09:15:08.000Z</time>
      </trkpt>
      <trkpt lat="45.16766" lon="5.64111">
        <ele>1099</ele>
        <time>2015-08-23T09:15:12.000Z</time>
      </trkpt>
      <trkpt lat="45.16772" lon="5.64107">
        <ele>1102</ele>
        <time>2015-08-23T09:15:14.000Z</time>
      </trkpt>
      <trkpt lat="45.16776" lon="5.64104">
        <ele>1103</ele>
        <time>2015-08-23T09:15:16.000Z</time>
      </trkpt>
      <trkpt lat="45.16782" lon="5.641">
        <ele>1100</ele>
        <time>2015-08-23T09:15:20.000Z</time>
      </trkpt>
      <trkpt lat="45.16787" lon="5.64098">
        <ele>1103</ele>
        <time>2015-08-23T09:15:22.000Z</time>
      </trkpt>
      <trkpt lat="45.16787" lon="5.64098">
        <ele>1103</ele>
        <time>2015-08-23T09:15:24.000Z</time>
      </trkpt>
      <trkpt lat="45.16792" lon="5.64096">
        <ele>1102</ele>
        <time>2015-08-23T09:15:26.000Z</time>
      </trkpt>
      <trkpt lat="45.16792" lon="5.64096">
        <ele>1102</ele>
        <time>2015-08-23T09:15:28.000Z</time>
      </trkpt>
      <trkpt lat="45.16792" lon="5.64096">
        <ele>1102</ele>
        <time>2015-08-23T09:15:31.000Z</time>
      </trkpt>
      <trkpt lat="45.16792" lon="5.64096">
        <ele>1102</ele>
        <time>2015-08-23T09:15:32.000Z</time>
      </trkpt>
      <trkpt lat="45.16801" lon="5.64091">
        <ele>1105</ele>
        <time>2015-08-23T09:15:38.000Z</time>
      </trkpt>
      <trkpt lat="45.16806" lon="5.64087">
        <ele>1105</ele>
        <time>2015-08-23T09:15:40.000Z</time>
      </trkpt>
      <trkpt lat="45.16806" lon="5.64087">
        <ele>1105</ele>
        <time>2015-08-23T09:15:42.000Z</time>
      </trkpt>
      <trkpt lat="45.16806" lon="5.64087">
        <ele>1105</ele>
        <time>2015-08-23T09:15:44.000Z</time>
      </trkpt>
      <trkpt lat="45.16806" lon="5.64087">
        <ele>1105</ele>
        <time>2015-08-23T09:15:47.000Z</time>
      </trkpt>
      <trkpt lat="45.16814" lon="5.64076">
        <ele>1113</ele>
        <time>2015-08-23T09:15:52.000Z</time>
      </trkpt>
      <trkpt lat="45.16818" lon="5.6407">
        <ele>1116</ele>
        <time>2015-08-23T09:15:54.000Z</time>
      </trkpt>
      <trkpt lat="45.16818" lon="5.6407">
        <ele>1116</ele>
        <time>2015-08-23T09:15:56.000Z</time>
      </trkpt>
      <trkpt lat="45.16818" lon="5.6407">
        <ele>1116</ele>
        <time>2015-08-23T09:15:58.000Z</time>
      </trkpt>
      <trkpt lat="45.16821" lon="5.64059">
        <ele>1119</ele>
        <time>2015-08-23T09:16:08.000Z</time>
      </trkpt>
      <trkpt lat="45.16823" lon="5.64052">
        <ele>1120</ele>
        <time>2015-08-23T09:16:10.000Z</time>
      </trkpt>
      <trkpt lat="45.16824" lon="5.64045">
        <ele>1121</ele>
        <time>2015-08-23T09:16:14.000Z</time>
      </trkpt>
      <trkpt lat="45.16827" lon="5.64038">
        <ele>1120</ele>
        <time>2015-08-23T09:16:18.000Z</time>
      </trkpt>
      <trkpt lat="45.16825" lon="5.64032">
        <ele>1129</ele>
        <time>2015-08-23T09:16:28.000Z</time>
      </trkpt>
      <trkpt lat="45.16822" lon="5.64026">
        <ele>1130</ele>
        <time>2015-08-23T09:16:32.000Z</time>
      </trkpt>
      <trkpt lat="45.16817" lon="5.64023">
        <ele>1132</ele>
        <time>2015-08-23T09:16:36.000Z</time>
      </trkpt>
      <trkpt lat="45.16813" lon="5.6402">
        <ele>1138</ele>
        <time>2015-08-23T09:16:40.000Z</time>
      </trkpt>
      <trkpt lat="45.16813" lon="5.6402">
        <ele>1138</ele>
        <time>2015-08-23T09:16:42.000Z</time>
      </trkpt>
      <trkpt lat="45.16813" lon="5.6402">
        <ele>1138</ele>
        <time>2015-08-23T09:16:44.000Z</time>
      </trkpt>
      <trkpt lat="45.16806" lon="5.64014">
        <ele>1149</ele>
        <time>2015-08-23T09:16:54.000Z</time>
      </trkpt>
      <trkpt lat="45.16802" lon="5.6401">
        <ele>1146</ele>
        <time>2015-08-23T09:16:56.000Z</time>
      </trkpt>
      <trkpt lat="45.16798" lon="5.64005">
        <ele>1149</ele>
        <time>2015-08-23T09:17:02.000Z</time>
      </trkpt>
      <trkpt lat="45.16793" lon="5.63999">
        <ele>1145</ele>
        <time>2015-08-23T09:17:06.000Z</time>
      </trkpt>
      <trkpt lat="45.16789" lon="5.63994">
        <ele>1146</ele>
        <time>2015-08-23T09:17:10.000Z</time>
      </trkpt>
      <trkpt lat="45.16789" lon="5.63994">
        <ele>1146</ele>
        <time>2015-08-23T09:17:14.000Z</time>
      </trkpt>
      <trkpt lat="45.16789" lon="5.63994">
        <ele>1146</ele>
        <time>2015-08-23T09:17:16.000Z</time>
      </trkpt>
      <trkpt lat="45.16776" lon="5.63978">
        <ele>1149</ele>
        <time>2015-08-23T09:19:05.000Z</time>
      </trkpt>
      <trkpt lat="45.16769" lon="5.63968">
        <ele>1146</ele>
        <time>2015-08-23T09:19:06.000Z</time>
      </trkpt>
      <trkpt lat="45.16766" lon="5.63962">
        <ele>1147</ele>
        <time>2015-08-23T09:19:08.000Z</time>
      </trkpt>
      <trkpt lat="45.16766" lon="5.63962">
        <ele>1147</ele>
        <time>2015-08-23T09:19:10.000Z</time>
      </trkpt>
      <trkpt lat="45.16761" lon="5.63954">
        <ele>1148</ele>
        <time>2015-08-23T09:19:14.000Z</time>
      </trkpt>
      <trkpt lat="45.16758" lon="5.63948">
        <ele>1148</ele>
        <time>2015-08-23T09:19:16.000Z</time>
      </trkpt>
      <trkpt lat="45.16753" lon="5.63942">
        <ele>1149</ele>
        <time>2015-08-23T09:19:20.000Z</time>
      </trkpt>
      <trkpt lat="45.1675" lon="5.63938">
        <ele>1149</ele>
        <time>2015-08-23T09:19:22.000Z</time>
      </trkpt>
      <trkpt lat="45.16745" lon="5.63933">
        <ele>1149</ele>
        <time>2015-08-23T09:19:26.000Z</time>
      </trkpt>
      <trkpt lat="45.16741" lon="5.63928">
        <ele>1151</ele>
        <time>2015-08-23T09:19:30.000Z</time>
      </trkpt>
      <trkpt lat="45.16737" lon="5.63923">
        <ele>1147</ele>
        <time>2015-08-23T09:19:34.000Z</time>
      </trkpt>
      <trkpt lat="45.16732" lon="5.63917">
        <ele>1146</ele>
        <time>2015-08-23T09:19:39.000Z</time>
      </trkpt>
      <trkpt lat="45.16727" lon="5.63912">
        <ele>1148</ele>
        <time>2015-08-23T09:19:43.000Z</time>
      </trkpt>
      <trkpt lat="45.16727" lon="5.63912">
        <ele>1148</ele>
        <time>2015-08-23T09:19:45.000Z</time>
      </trkpt>
      <trkpt lat="45.1672" lon="5.63904">
        <ele>1150</ele>
        <time>2015-08-23T09:19:55.000Z</time>
      </trkpt>
      <trkpt lat="45.16715" lon="5.63898">
        <ele>1150</ele>
        <time>2015-08-23T09:19:57.000Z</time>
      </trkpt>
      <trkpt lat="45.16711" lon="5.63893">
        <ele>1149</ele>
        <time>2015-08-23T09:20:01.000Z</time>
      </trkpt>
      <trkpt lat="45.16706" lon="5.63888">
        <ele>1150</ele>
        <time>2015-08-23T09:20:05.000Z</time>
      </trkpt>
      <trkpt lat="45.16702" lon="5.63883">
        <ele>1150</ele>
        <time>2015-08-23T09:20:09.000Z</time>
      </trkpt>
      <trkpt lat="45.16697" lon="5.63879">
        <ele>1155</ele>
        <time>2015-08-23T09:20:13.000Z</time>
      </trkpt>
      <trkpt lat="45.16693" lon="5.63875">
        <ele>1151</ele>
        <time>2015-08-23T09:20:17.000Z</time>
      </trkpt>
      <trkpt lat="45.16693" lon="5.63875">
        <ele>1151</ele>
        <time>2015-08-23T09:20:21.000Z</time>
      </trkpt>
      <trkpt lat="45.16693" lon="5.63875">
        <ele>1151</ele>
        <time>2015-08-23T09:20:23.000Z</time>
      </trkpt>
      <trkpt lat="45.16693" lon="5.63875">
        <ele>1151</ele>
        <time>2015-08-23T09:20:25.000Z</time>
      </trkpt>
      <trkpt lat="45.16693" lon="5.63875">
        <ele>1151</ele>
        <time>2015-08-23T09:20:33.000Z</time>
      </trkpt>
      <trkpt lat="45.16693" lon="5.63875">
        <ele>1151</ele>
        <time>2015-08-23T09:20:35.000Z</time>
      </trkpt>
      <trkpt lat="45.16682" lon="5.63863">
        <ele>1160</ele>
        <time>2015-08-23T09:20:43.000Z</time>
      </trkpt>
      <trkpt lat="45.16677" lon="5.63856">
        <ele>1160</ele>
        <time>2015-08-23T09:20:45.000Z</time>
      </trkpt>
      <trkpt lat="45.16674" lon="5.63849">
        <ele>1158</ele>
        <time>2015-08-23T09:20:47.000Z</time>
      </trkpt>
      <trkpt lat="45.16673" lon="5.63841">
        <ele>1158</ele>
        <time>2015-08-23T09:20:51.000Z</time>
      </trkpt>
      <trkpt lat="45.16672" lon="5.63833">
        <ele>1156</ele>
        <time>2015-08-23T09:20:55.000Z</time>
      </trkpt>
      <trkpt lat="45.16671" lon="5.63826">
        <ele>1158</ele>
        <time>2015-08-23T09:20:57.000Z</time>
      </trkpt>
      <trkpt lat="45.1667" lon="5.63819">
        <ele>1161</ele>
        <time>2015-08-23T09:21:01.000Z</time>
      </trkpt>
      <trkpt lat="45.16669" lon="5.63812">
        <ele>1162</ele>
        <time>2015-08-23T09:21:05.000Z</time>
      </trkpt>
      <trkpt lat="45.16669" lon="5.63812">
        <ele>1162</ele>
        <time>2015-08-23T09:21:07.000Z</time>
      </trkpt>
      <trkpt lat="45.1667" lon="5.63803">
        <ele>1165</ele>
        <time>2015-08-23T09:21:11.000Z</time>
      </trkpt>
      <trkpt lat="45.16671" lon="5.63795">
        <ele>1165</ele>
        <time>2015-08-23T09:21:15.000Z</time>
      </trkpt>
      <trkpt lat="45.16673" lon="5.63787">
        <ele>1168</ele>
        <time>2015-08-23T09:21:19.000Z</time>
      </trkpt>
      <trkpt lat="45.16674" lon="5.63779">
        <ele>1170</ele>
        <time>2015-08-23T09:21:23.000Z</time>
      </trkpt>
      <trkpt lat="45.16677" lon="5.63772">
        <ele>1170</ele>
        <time>2015-08-23T09:21:27.000Z</time>
      </trkpt>
      <trkpt lat="45.16677" lon="5.63772">
        <ele>1170</ele>
        <time>2015-08-23T09:21:29.000Z</time>
      </trkpt>
      <trkpt lat="45.16677" lon="5.63772">
        <ele>1170</ele>
        <time>2015-08-23T09:21:31.000Z</time>
      </trkpt>
      <trkpt lat="45.16677" lon="5.63772">
        <ele>1170</ele>
        <time>2015-08-23T09:21:33.000Z</time>
      </trkpt>
      <trkpt lat="45.16677" lon="5.63772">
        <ele>1170</ele>
        <time>2015-08-23T09:21:35.000Z</time>
      </trkpt>
      <trkpt lat="45.16677" lon="5.63772">
        <ele>1170</ele>
        <time>2015-08-23T09:21:37.000Z</time>
      </trkpt>
      <trkpt lat="45.16677" lon="5.63772">
        <ele>1170</ele>
        <time>2015-08-23T09:21:39.000Z</time>
      </trkpt>
      <trkpt lat="45.16677" lon="5.63772">
        <ele>1170</ele>
        <time>2015-08-23T09:21:41.000Z</time>
      </trkpt>
      <trkpt lat="45.1668" lon="5.63766">
        <ele>1176</ele>
        <time>2015-08-23T09:21:43.000Z</time>
      </trkpt>
      <trkpt lat="45.16675" lon="5.63768">
        <ele>1177</ele>
        <time>2015-08-23T09:21:51.000Z</time>
      </trkpt>
      <trkpt lat="45.16671" lon="5.63771">
        <ele>1177</ele>
        <time>2015-08-23T09:21:53.000Z</time>
      </trkpt>
      <trkpt lat="45.16666" lon="5.63774">
        <ele>1176</ele>
        <time>2015-08-23T09:21:55.000Z</time>
      </trkpt>
      <trkpt lat="45.16661" lon="5.63777">
        <ele>1175</ele>
        <time>2015-08-23T09:21:57.000Z</time>
      </trkpt>
      <trkpt lat="45.16661" lon="5.63777">
        <ele>1175</ele>
        <time>2015-08-23T09:22:01.000Z</time>
      </trkpt>
      <trkpt lat="45.16661" lon="5.63777">
        <ele>1175</ele>
        <time>2015-08-23T09:22:03.000Z</time>
      </trkpt>
      <trkpt lat="45.16661" lon="5.63777">
        <ele>1175</ele>
        <time>2015-08-23T09:22:05.000Z</time>
      </trkpt>
      <trkpt lat="45.16652" lon="5.63784">
        <ele>1174</ele>
        <time>2015-08-23T09:22:15.000Z</time>
      </trkpt>
      <trkpt lat="45.16652" lon="5.63784">
        <ele>1174</ele>
        <time>2015-08-23T09:22:17.000Z</time>
      </trkpt>
      <trkpt lat="45.16652" lon="5.63784">
        <ele>1174</ele>
        <time>2015-08-23T09:22:19.000Z</time>
      </trkpt>
      <trkpt lat="45.16639" lon="5.6379">
        <ele>1170</ele>
        <time>2015-08-23T09:22:33.000Z</time>
      </trkpt>
      <trkpt lat="45.1663" lon="5.63793">
        <ele>1171</ele>
        <time>2015-08-23T09:22:35.000Z</time>
      </trkpt>
      <trkpt lat="45.16624" lon="5.63795">
        <ele>1171</ele>
        <time>2015-08-23T09:22:37.000Z</time>
      </trkpt>
      <trkpt lat="45.16618" lon="5.63797">
        <ele>1172</ele>
        <time>2015-08-23T09:22:39.000Z</time>
      </trkpt>
      <trkpt lat="45.16613" lon="5.63797">
        <ele>1171</ele>
        <time>2015-08-23T09:22:41.000Z</time>
      </trkpt>
      <trkpt lat="45.16603" lon="5.63797">
        <ele>1172</ele>
        <time>2015-08-23T09:22:43.000Z</time>
      </trkpt>
      <trkpt lat="45.16603" lon="5.63797">
        <ele>1172</ele>
        <time>2015-08-23T09:22:47.000Z</time>
      </trkpt>
      <trkpt lat="45.16603" lon="5.63797">
        <ele>1172</ele>
        <time>2015-08-23T09:22:49.000Z</time>
      </trkpt>
      <trkpt lat="45.16586" lon="5.63784">
        <ele>1170</ele>
        <time>2015-08-23T09:22:59.000Z</time>
      </trkpt>
      <trkpt lat="45.16579" lon="5.63773">
        <ele>1173</ele>
        <time>2015-08-23T09:23:09.000Z</time>
      </trkpt>
      <trkpt lat="45.16573" lon="5.6376">
        <ele>1175</ele>
        <time>2015-08-23T09:23:19.000Z</time>
      </trkpt>
      <trkpt lat="45.16568" lon="5.63745">
        <ele>1175</ele>
        <time>2015-08-23T09:23:29.000Z</time>
      </trkpt>
      <trkpt lat="45.16564" lon="5.63731">
        <ele>1167</ele>
        <time>2015-08-23T09:23:39.000Z</time>
      </trkpt>
      <trkpt lat="45.16564" lon="5.63731">
        <ele>1167</ele>
        <time>2015-08-23T09:23:47.000Z</time>
      </trkpt>
      <trkpt lat="45.16564" lon="5.63731">
        <ele>1167</ele>
        <time>2015-08-23T09:23:49.000Z</time>
      </trkpt>
      <trkpt lat="45.16564" lon="5.63731">
        <ele>1167</ele>
        <time>2015-08-23T09:23:51.000Z</time>
      </trkpt>
      <trkpt lat="45.16561" lon="5.63719">
        <ele>1175</ele>
        <time>2015-08-23T09:23:55.000Z</time>
      </trkpt>
      <trkpt lat="45.16559" lon="5.63711">
        <ele>1173</ele>
        <time>2015-08-23T09:23:57.000Z</time>
      </trkpt>
      <trkpt lat="45.16557" lon="5.63704">
        <ele>1177</ele>
        <time>2015-08-23T09:24:01.000Z</time>
      </trkpt>
      <trkpt lat="45.16556" lon="5.63696">
        <ele>1182</ele>
        <time>2015-08-23T09:24:07.000Z</time>
      </trkpt>
      <trkpt lat="45.16554" lon="5.6369">
        <ele>1182</ele>
        <time>2015-08-23T09:24:11.000Z</time>
      </trkpt>
      <trkpt lat="45.16553" lon="5.63682">
        <ele>1182</ele>
        <time>2015-08-23T09:24:17.000Z</time>
      </trkpt>
      <trkpt lat="45.16551" lon="5.63676">
        <ele>1185</ele>
        <time>2015-08-23T09:24:21.000Z</time>
      </trkpt>
      <trkpt lat="45.16549" lon="5.63668">
        <ele>1182</ele>
        <time>2015-08-23T09:24:27.000Z</time>
      </trkpt>
      <trkpt lat="45.16546" lon="5.63663">
        <ele>1182</ele>
        <time>2015-08-23T09:24:31.000Z</time>
      </trkpt>
      <trkpt lat="45.16543" lon="5.63657">
        <ele>1181</ele>
        <time>2015-08-23T09:24:35.000Z</time>
      </trkpt>
      <trkpt lat="45.16544" lon="5.63651">
        <ele>1188</ele>
        <time>2015-08-23T09:24:41.000Z</time>
      </trkpt>
      <trkpt lat="45.16547" lon="5.63645">
        <ele>1189</ele>
        <time>2015-08-23T09:24:47.000Z</time>
      </trkpt>
      <trkpt lat="45.1655" lon="5.63639">
        <ele>1188</ele>
        <time>2015-08-23T09:24:51.000Z</time>
      </trkpt>
      <trkpt lat="45.16551" lon="5.63633">
        <ele>1189</ele>
        <time>2015-08-23T09:24:55.000Z</time>
      </trkpt>
      <trkpt lat="45.16551" lon="5.63633">
        <ele>1189</ele>
        <time>2015-08-23T09:24:59.000Z</time>
      </trkpt>
      <trkpt lat="45.16551" lon="5.63633">
        <ele>1189</ele>
        <time>2015-08-23T09:25:01.000Z</time>
      </trkpt>
      <trkpt lat="45.16555" lon="5.63629">
        <ele>1191</ele>
        <time>2015-08-23T09:25:09.000Z</time>
      </trkpt>
      <trkpt lat="45.16558" lon="5.63624">
        <ele>1192</ele>
        <time>2015-08-23T09:25:13.000Z</time>
      </trkpt>
      <trkpt lat="45.16558" lon="5.63624">
        <ele>1192</ele>
        <time>2015-08-23T09:25:17.000Z</time>
      </trkpt>
      <trkpt lat="45.16558" lon="5.63624">
        <ele>1192</ele>
        <time>2015-08-23T09:25:19.000Z</time>
      </trkpt>
      <trkpt lat="45.16558" lon="5.63624">
        <ele>1192</ele>
        <time>2015-08-23T09:25:21.000Z</time>
      </trkpt>
      <trkpt lat="45.16558" lon="5.63608">
        <ele>1191</ele>
        <time>2015-08-23T09:25:31.000Z</time>
      </trkpt>
      <trkpt lat="45.16557" lon="5.63598">
        <ele>1192</ele>
        <time>2015-08-23T09:25:33.000Z</time>
      </trkpt>
      <trkpt lat="45.16556" lon="5.63592">
        <ele>1192</ele>
        <time>2015-08-23T09:25:35.000Z</time>
      </trkpt>
      <trkpt lat="45.16555" lon="5.63585">
        <ele>1192</ele>
        <time>2015-08-23T09:25:39.000Z</time>
      </trkpt>
      <trkpt lat="45.16553" lon="5.63579">
        <ele>1192</ele>
        <time>2015-08-23T09:25:43.000Z</time>
      </trkpt>
      <trkpt lat="45.16553" lon="5.63579">
        <ele>1192</ele>
        <time>2015-08-23T09:25:47.000Z</time>
      </trkpt>
      <trkpt lat="45.16553" lon="5.63579">
        <ele>1192</ele>
        <time>2015-08-23T09:25:49.000Z</time>
      </trkpt>
      <trkpt lat="45.16553" lon="5.63579">
        <ele>1192</ele>
        <time>2015-08-23T09:25:51.000Z</time>
      </trkpt>
      <trkpt lat="45.16553" lon="5.63579">
        <ele>1192</ele>
        <time>2015-08-23T09:25:53.000Z</time>
      </trkpt>
      <trkpt lat="45.16544" lon="5.63569">
        <ele>1194</ele>
        <time>2015-08-23T09:26:03.000Z</time>
      </trkpt>
      <trkpt lat="45.16539" lon="5.63564">
        <ele>1195</ele>
        <time>2015-08-23T09:26:05.000Z</time>
      </trkpt>
      <trkpt lat="45.16539" lon="5.63564">
        <ele>1195</ele>
        <time>2015-08-23T09:26:07.000Z</time>
      </trkpt>
      <trkpt lat="45.16539" lon="5.63564">
        <ele>1195</ele>
        <time>2015-08-23T09:26:09.000Z</time>
      </trkpt>
      <trkpt lat="45.16539" lon="5.63564">
        <ele>1195</ele>
        <time>2015-08-23T09:26:11.000Z</time>
      </trkpt>
      <trkpt lat="45.16539" lon="5.63564">
        <ele>1195</ele>
        <time>2015-08-23T09:26:13.000Z</time>
      </trkpt>
      <trkpt lat="45.16539" lon="5.63564">
        <ele>1195</ele>
        <time>2015-08-23T09:26:15.000Z</time>
      </trkpt>
      <trkpt lat="45.16539" lon="5.63564">
        <ele>1195</ele>
        <time>2015-08-23T09:26:25.000Z</time>
      </trkpt>
      <trkpt lat="45.1651" lon="5.63487">
        <ele>1260</ele>
        <time>2015-08-23T09:31:07.000Z</time>
      </trkpt>
      <trkpt lat="45.16496" lon="5.63448">
        <ele>1260</ele>
        <time>2015-08-23T09:31:09.000Z</time>
      </trkpt>
      <trkpt lat="45.1649" lon="5.63427">
        <ele>1261</ele>
        <time>2015-08-23T09:31:11.000Z</time>
      </trkpt>
      <trkpt lat="45.16488" lon="5.63416">
        <ele>1262</ele>
        <time>2015-08-23T09:31:13.000Z</time>
      </trkpt>
      <trkpt lat="45.16488" lon="5.63409">
        <ele>1263</ele>
        <time>2015-08-23T09:31:15.000Z</time>
      </trkpt>
      <trkpt lat="45.16489" lon="5.63396">
        <ele>1264</ele>
        <time>2015-08-23T09:31:22.000Z</time>
      </trkpt>
      <trkpt lat="45.16489" lon="5.63396">
        <ele>1264</ele>
        <time>2015-08-23T09:31:33.000Z</time>
      </trkpt>
      <trkpt lat="45.16489" lon="5.63396">
        <ele>1264</ele>
        <time>2015-08-23T09:31:35.000Z</time>
      </trkpt>
      <trkpt lat="45.16489" lon="5.63396">
        <ele>1264</ele>
        <time>2015-08-23T09:31:37.000Z</time>
      </trkpt>
      <trkpt lat="45.16489" lon="5.63396">
        <ele>1264</ele>
        <time>2015-08-23T09:31:39.000Z</time>
      </trkpt>
      <trkpt lat="45.16489" lon="5.63396">
        <ele>1264</ele>
        <time>2015-08-23T09:32:11.000Z</time>
      </trkpt>
      <trkpt lat="45.16489" lon="5.63396">
        <ele>1264</ele>
        <time>2015-08-23T09:32:13.000Z</time>
      </trkpt>
      <trkpt lat="45.16489" lon="5.63396">
        <ele>1264</ele>
        <time>2015-08-23T09:32:15.000Z</time>
      </trkpt>
      <trkpt lat="45.16489" lon="5.63396">
        <ele>1264</ele>
        <time>2015-08-23T09:32:17.000Z</time>
      </trkpt>
      <trkpt lat="45.16489" lon="5.63396">
        <ele>1264</ele>
        <time>2015-08-23T09:32:59.000Z</time>
      </trkpt>
      <trkpt lat="45.16473" lon="5.63343">
        <ele>1307</ele>
        <time>2015-08-23T09:35:17.000Z</time>
      </trkpt>
      <trkpt lat="45.16465" lon="5.63315">
        <ele>1308</ele>
        <time>2015-08-23T09:35:19.000Z</time>
      </trkpt>
      <trkpt lat="45.16463" lon="5.633">
        <ele>1308</ele>
        <time>2015-08-23T09:35:21.000Z</time>
      </trkpt>
      <trkpt lat="45.16462" lon="5.63291">
        <ele>1309</ele>
        <time>2015-08-23T09:35:24.000Z</time>
      </trkpt>
      <trkpt lat="45.16463" lon="5.63285">
        <ele>1308</ele>
        <time>2015-08-23T09:35:27.000Z</time>
      </trkpt>
      <trkpt lat="45.16467" lon="5.63279">
        <ele>1302</ele>
        <time>2015-08-23T09:35:33.000Z</time>
      </trkpt>
      <trkpt lat="45.16471" lon="5.63275">
        <ele>1301</ele>
        <time>2015-08-23T09:35:37.000Z</time>
      </trkpt>
      <trkpt lat="45.16477" lon="5.63276">
        <ele>1301</ele>
        <time>2015-08-23T09:35:41.000Z</time>
      </trkpt>
      <trkpt lat="45.16481" lon="5.63278">
        <ele>1301</ele>
        <time>2015-08-23T09:35:45.000Z</time>
      </trkpt>
      <trkpt lat="45.16481" lon="5.63278">
        <ele>1301</ele>
        <time>2015-08-23T09:35:51.000Z</time>
      </trkpt>
      <trkpt lat="45.16481" lon="5.63278">
        <ele>1301</ele>
        <time>2015-08-23T09:35:53.000Z</time>
      </trkpt>
      <trkpt lat="45.16481" lon="5.63278">
        <ele>1301</ele>
        <time>2015-08-23T09:35:55.000Z</time>
      </trkpt>
      <trkpt lat="45.16481" lon="5.63278">
        <ele>1301</ele>
        <time>2015-08-23T09:35:57.000Z</time>
      </trkpt>
      <trkpt lat="45.16481" lon="5.63278">
        <ele>1301</ele>
        <time>2015-08-23T09:35:59.000Z</time>
      </trkpt>
      <trkpt lat="45.16481" lon="5.63278">
        <ele>1301</ele>
        <time>2015-08-23T09:36:01.000Z</time>
      </trkpt>
      <trkpt lat="45.16483" lon="5.63268">
        <ele>1296</ele>
        <time>2015-08-23T09:36:05.000Z</time>
      </trkpt>
      <trkpt lat="45.16482" lon="5.6326">
        <ele>1294</ele>
        <time>2015-08-23T09:36:09.000Z</time>
      </trkpt>
      <trkpt lat="45.1648" lon="5.63252">
        <ele>1294</ele>
        <time>2015-08-23T09:36:13.000Z</time>
      </trkpt>
      <trkpt lat="45.1648" lon="5.63245">
        <ele>1296</ele>
        <time>2015-08-23T09:36:17.000Z</time>
      </trkpt>
      <trkpt lat="45.1648" lon="5.63245">
        <ele>1296</ele>
        <time>2015-08-23T09:36:19.000Z</time>
      </trkpt>
      <trkpt lat="45.16485" lon="5.63243">
        <ele>1298</ele>
        <time>2015-08-23T09:36:25.000Z</time>
      </trkpt>
      <trkpt lat="45.16491" lon="5.63243">
        <ele>1298</ele>
        <time>2015-08-23T09:36:29.000Z</time>
      </trkpt>
      <trkpt lat="45.16497" lon="5.63245">
        <ele>1300</ele>
        <time>2015-08-23T09:36:33.000Z</time>
      </trkpt>
      <trkpt lat="45.16503" lon="5.63246">
        <ele>1299</ele>
        <time>2015-08-23T09:36:37.000Z</time>
      </trkpt>
      <trkpt lat="45.16503" lon="5.63246">
        <ele>1299</ele>
        <time>2015-08-23T09:36:39.000Z</time>
      </trkpt>
      <trkpt lat="45.16503" lon="5.63246">
        <ele>1299</ele>
        <time>2015-08-23T09:36:41.000Z</time>
      </trkpt>
      <trkpt lat="45.16503" lon="5.63246">
        <ele>1299</ele>
        <time>2015-08-23T09:36:45.000Z</time>
      </trkpt>
      <trkpt lat="45.16503" lon="5.63246">
        <ele>1299</ele>
        <time>2015-08-23T09:36:47.000Z</time>
      </trkpt>
      <trkpt lat="45.16514" lon="5.63248">
        <ele>1301</ele>
        <time>2015-08-23T09:36:51.000Z</time>
      </trkpt>
      <trkpt lat="45.1652" lon="5.6325">
        <ele>1300</ele>
        <time>2015-08-23T09:36:53.000Z</time>
      </trkpt>
      <trkpt lat="45.1652" lon="5.6325">
        <ele>1300</ele>
        <time>2015-08-23T09:36:55.000Z</time>
      </trkpt>
      <trkpt lat="45.1652" lon="5.6325">
        <ele>1300</ele>
        <time>2015-08-23T09:36:57.000Z</time>
      </trkpt>
      <trkpt lat="45.1652" lon="5.6325">
        <ele>1300</ele>
        <time>2015-08-23T09:36:59.000Z</time>
      </trkpt>
      <trkpt lat="45.16531" lon="5.63253">
        <ele>1302</ele>
        <time>2015-08-23T09:37:03.000Z</time>
      </trkpt>
      <trkpt lat="45.16537" lon="5.63254">
        <ele>1302</ele>
        <time>2015-08-23T09:37:05.000Z</time>
      </trkpt>
      <trkpt lat="45.16542" lon="5.63256">
        <ele>1302</ele>
        <time>2015-08-23T09:37:07.000Z</time>
      </trkpt>
      <trkpt lat="45.16548" lon="5.63258">
        <ele>1292</ele>
        <time>2015-08-23T09:37:11.000Z</time>
      </trkpt>
      <trkpt lat="45.16552" lon="5.63261">
        <ele>1291</ele>
        <time>2015-08-23T09:37:13.000Z</time>
      </trkpt>
      <trkpt lat="45.16558" lon="5.63262">
        <ele>1292</ele>
        <time>2015-08-23T09:37:17.000Z</time>
      </trkpt>
      <trkpt lat="45.16563" lon="5.63263">
        <ele>1293</ele>
        <time>2015-08-23T09:37:19.000Z</time>
      </trkpt>
      <trkpt lat="45.16568" lon="5.63263">
        <ele>1288</ele>
        <time>2015-08-23T09:37:23.000Z</time>
      </trkpt>
      <trkpt lat="45.16573" lon="5.63265">
        <ele>1286</ele>
        <time>2015-08-23T09:37:27.000Z</time>
      </trkpt>
      <trkpt lat="45.16578" lon="5.63266">
        <ele>1285</ele>
        <time>2015-08-23T09:37:31.000Z</time>
      </trkpt>
      <trkpt lat="45.16582" lon="5.63268">
        <ele>1284</ele>
        <time>2015-08-23T09:37:35.000Z</time>
      </trkpt>
      <trkpt lat="45.16587" lon="5.63271">
        <ele>1282</ele>
        <time>2015-08-23T09:37:39.000Z</time>
      </trkpt>
      <trkpt lat="45.16592" lon="5.63275">
        <ele>1284</ele>
        <time>2015-08-23T09:37:43.000Z</time>
      </trkpt>
      <trkpt lat="45.16598" lon="5.63277">
        <ele>1283</ele>
        <time>2015-08-23T09:37:47.000Z</time>
      </trkpt>
      <trkpt lat="45.16602" lon="5.63279">
        <ele>1284</ele>
        <time>2015-08-23T09:37:50.000Z</time>
      </trkpt>
      <trkpt lat="45.16608" lon="5.6328">
        <ele>1284</ele>
        <time>2015-08-23T09:37:53.000Z</time>
      </trkpt>
      <trkpt lat="45.16613" lon="5.63282">
        <ele>1284</ele>
        <time>2015-08-23T09:37:57.000Z</time>
      </trkpt>
      <trkpt lat="45.16613" lon="5.63282">
        <ele>1284</ele>
        <time>2015-08-23T09:37:59.000Z</time>
      </trkpt>
      <trkpt lat="45.16613" lon="5.63282">
        <ele>1284</ele>
        <time>2015-08-23T09:38:05.000Z</time>
      </trkpt>
      <trkpt lat="45.16613" lon="5.63282">
        <ele>1284</ele>
        <time>2015-08-23T09:38:07.000Z</time>
      </trkpt>
      <trkpt lat="45.16613" lon="5.63282">
        <ele>1284</ele>
        <time>2015-08-23T09:38:17.000Z</time>
      </trkpt>
      <trkpt lat="45.16638" lon="5.63294">
        <ele>1286</ele>
        <time>2015-08-23T09:38:27.000Z</time>
      </trkpt>
      <trkpt lat="45.16652" lon="5.63301">
        <ele>1286</ele>
        <time>2015-08-23T09:38:29.000Z</time>
      </trkpt>
      <trkpt lat="45.16661" lon="5.63305">
        <ele>1287</ele>
        <time>2015-08-23T09:38:31.000Z</time>
      </trkpt>
      <trkpt lat="45.16667" lon="5.63307">
        <ele>1287</ele>
        <time>2015-08-23T09:38:33.000Z</time>
      </trkpt>
      <trkpt lat="45.16673" lon="5.63308">
        <ele>1287</ele>
        <time>2015-08-23T09:38:38.000Z</time>
      </trkpt>
      <trkpt lat="45.16677" lon="5.6331">
        <ele>1288</ele>
        <time>2015-08-23T09:38:39.000Z</time>
      </trkpt>
      <trkpt lat="45.16683" lon="5.63313">
        <ele>1288</ele>
        <time>2015-08-23T09:38:43.000Z</time>
      </trkpt>
      <trkpt lat="45.16687" lon="5.63314">
        <ele>1288</ele>
        <time>2015-08-23T09:38:45.000Z</time>
      </trkpt>
      <trkpt lat="45.16693" lon="5.63316">
        <ele>1288</ele>
        <time>2015-08-23T09:38:49.000Z</time>
      </trkpt>
      <trkpt lat="45.16698" lon="5.63317">
        <ele>1286</ele>
        <time>2015-08-23T09:38:51.000Z</time>
      </trkpt>
      <trkpt lat="45.16703" lon="5.63318">
        <ele>1287</ele>
        <time>2015-08-23T09:38:55.000Z</time>
      </trkpt>
      <trkpt lat="45.16708" lon="5.63319">
        <ele>1286</ele>
        <time>2015-08-23T09:38:57.000Z</time>
      </trkpt>
      <trkpt lat="45.16713" lon="5.63321">
        <ele>1288</ele>
        <time>2015-08-23T09:39:01.000Z</time>
      </trkpt>
      <trkpt lat="45.16719" lon="5.63323">
        <ele>1285</ele>
        <time>2015-08-23T09:39:05.000Z</time>
      </trkpt>
      <trkpt lat="45.16725" lon="5.63325">
        <ele>1286</ele>
        <time>2015-08-23T09:39:07.000Z</time>
      </trkpt>
      <trkpt lat="45.1673" lon="5.63328">
        <ele>1287</ele>
        <time>2015-08-23T09:39:09.000Z</time>
      </trkpt>
      <trkpt lat="45.16736" lon="5.6333">
        <ele>1285</ele>
        <time>2015-08-23T09:39:11.000Z</time>
      </trkpt>
      <trkpt lat="45.16741" lon="5.63331">
        <ele>1285</ele>
        <time>2015-08-23T09:39:13.000Z</time>
      </trkpt>
      <trkpt lat="45.16751" lon="5.63334">
        <ele>1285</ele>
        <time>2015-08-23T09:39:15.000Z</time>
      </trkpt>
      <trkpt lat="45.16761" lon="5.63337">
        <ele>1286</ele>
        <time>2015-08-23T09:39:19.000Z</time>
      </trkpt>
      <trkpt lat="45.16771" lon="5.6334">
        <ele>1291</ele>
        <time>2015-08-23T09:39:23.000Z</time>
      </trkpt>
      <trkpt lat="45.16782" lon="5.63345">
        <ele>1287</ele>
        <time>2015-08-23T09:39:27.000Z</time>
      </trkpt>
      <trkpt lat="45.16791" lon="5.63349">
        <ele>1285</ele>
        <time>2015-08-23T09:39:31.000Z</time>
      </trkpt>
      <trkpt lat="45.16805" lon="5.63352">
        <ele>1281</ele>
        <time>2015-08-23T09:39:37.000Z</time>
      </trkpt>
      <trkpt lat="45.16814" lon="5.63348">
        <ele>1279</ele>
        <time>2015-08-23T09:39:41.000Z</time>
      </trkpt>
      <trkpt lat="45.16814" lon="5.63348">
        <ele>1279</ele>
        <time>2015-08-23T09:39:45.000Z</time>
      </trkpt>
      <trkpt lat="45.16814" lon="5.63348">
        <ele>1279</ele>
        <time>2015-08-23T09:39:47.000Z</time>
      </trkpt>
      <trkpt lat="45.16814" lon="5.63348">
        <ele>1279</ele>
        <time>2015-08-23T09:39:49.000Z</time>
      </trkpt>
      <trkpt lat="45.16814" lon="5.63348">
        <ele>1279</ele>
        <time>2015-08-23T09:39:51.000Z</time>
      </trkpt>
      <trkpt lat="45.16814" lon="5.63348">
        <ele>1279</ele>
        <time>2015-08-23T09:39:53.000Z</time>
      </trkpt>
      <trkpt lat="45.16834" lon="5.63331">
        <ele>1261</ele>
        <time>2015-08-23T09:39:57.000Z</time>
      </trkpt>
      <trkpt lat="45.16838" lon="5.63314">
        <ele>1257</ele>
        <time>2015-08-23T09:40:03.000Z</time>
      </trkpt>
      <trkpt lat="45.16843" lon="5.63303">
        <ele>1254</ele>
        <time>2015-08-23T09:40:07.000Z</time>
      </trkpt>
      <trkpt lat="45.16843" lon="5.63303">
        <ele>1254</ele>
        <time>2015-08-23T09:40:13.000Z</time>
      </trkpt>
      <trkpt lat="45.16843" lon="5.63303">
        <ele>1254</ele>
        <time>2015-08-23T09:40:15.000Z</time>
      </trkpt>
      <trkpt lat="45.16843" lon="5.63303">
        <ele>1254</ele>
        <time>2015-08-23T09:40:17.000Z</time>
      </trkpt>
      <trkpt lat="45.16843" lon="5.63303">
        <ele>1254</ele>
        <time>2015-08-23T09:40:19.000Z</time>
      </trkpt>
      <trkpt lat="45.16862" lon="5.63251">
        <ele>1236</ele>
        <time>2015-08-23T09:40:29.000Z</time>
      </trkpt>
      <trkpt lat="45.16867" lon="5.63236">
        <ele>1231</ele>
        <time>2015-08-23T09:40:36.000Z</time>
      </trkpt>
      <trkpt lat="45.16869" lon="5.63227">
        <ele>1227</ele>
        <time>2015-08-23T09:40:41.000Z</time>
      </trkpt>
      <trkpt lat="45.16871" lon="5.6322">
        <ele>1226</ele>
        <time>2015-08-23T09:40:43.000Z</time>
      </trkpt>
      <trkpt lat="45.16872" lon="5.63213">
        <ele>1227</ele>
        <time>2015-08-23T09:40:45.000Z</time>
      </trkpt>
      <trkpt lat="45.16874" lon="5.63207">
        <ele>1226</ele>
        <time>2015-08-23T09:40:47.000Z</time>
      </trkpt>
      <trkpt lat="45.16875" lon="5.63201">
        <ele>1223</ele>
        <time>2015-08-23T09:40:49.000Z</time>
      </trkpt>
      <trkpt lat="45.16879" lon="5.63189">
        <ele>1224</ele>
        <time>2015-08-23T09:40:51.000Z</time>
      </trkpt>
      <trkpt lat="45.16882" lon="5.63178">
        <ele>1220</ele>
        <time>2015-08-23T09:40:55.000Z</time>
      </trkpt>
      <trkpt lat="45.16887" lon="5.63161">
        <ele>1217</ele>
        <time>2015-08-23T09:41:01.000Z</time>
      </trkpt>
      <trkpt lat="45.16891" lon="5.63149">
        <ele>1216</ele>
        <time>2015-08-23T09:41:05.000Z</time>
      </trkpt>
      <trkpt lat="45.16896" lon="5.63136">
        <ele>1213</ele>
        <time>2015-08-23T09:41:09.000Z</time>
      </trkpt>
      <trkpt lat="45.169" lon="5.63121">
        <ele>1213</ele>
        <time>2015-08-23T09:41:13.000Z</time>
      </trkpt>
      <trkpt lat="45.16905" lon="5.63108">
        <ele>1210</ele>
        <time>2015-08-23T09:41:17.000Z</time>
      </trkpt>
      <trkpt lat="45.1691" lon="5.63096">
        <ele>1208</ele>
        <time>2015-08-23T09:41:21.000Z</time>
      </trkpt>
      <trkpt lat="45.16916" lon="5.63083">
        <ele>1209</ele>
        <time>2015-08-23T09:41:25.000Z</time>
      </trkpt>
      <trkpt lat="45.1692" lon="5.63069">
        <ele>1209</ele>
        <time>2015-08-23T09:41:29.000Z</time>
      </trkpt>
      <trkpt lat="45.16926" lon="5.63054">
        <ele>1208</ele>
        <time>2015-08-23T09:41:33.000Z</time>
      </trkpt>
      <trkpt lat="45.16928" lon="5.6304">
        <ele>1210</ele>
        <time>2015-08-23T09:41:37.000Z</time>
      </trkpt>
      <trkpt lat="45.16928" lon="5.6304">
        <ele>1210</ele>
        <time>2015-08-23T09:41:39.000Z</time>
      </trkpt>
      <trkpt lat="45.16928" lon="5.6304">
        <ele>1210</ele>
        <time>2015-08-23T09:41:41.000Z</time>
      </trkpt>
      <trkpt lat="45.16928" lon="5.6304">
        <ele>1210</ele>
        <time>2015-08-23T09:41:43.000Z</time>
      </trkpt>
      <trkpt lat="45.16928" lon="5.6304">
        <ele>1210</ele>
        <time>2015-08-23T09:41:45.000Z</time>
      </trkpt>
      <trkpt lat="45.16928" lon="5.6304">
        <ele>1210</ele>
        <time>2015-08-23T09:41:47.000Z</time>
      </trkpt>
      <trkpt lat="45.16928" lon="5.6304">
        <ele>1210</ele>
        <time>2015-08-23T09:41:49.000Z</time>
      </trkpt>
      <trkpt lat="45.16945" lon="5.63026">
        <ele>1212</ele>
        <time>2015-08-23T09:42:09.000Z</time>
      </trkpt>
      <trkpt lat="45.16959" lon="5.63024">
        <ele>1211</ele>
        <time>2015-08-23T09:42:15.000Z</time>
      </trkpt>
      <trkpt lat="45.16964" lon="5.63022">
        <ele>1212</ele>
        <time>2015-08-23T09:42:19.000Z</time>
      </trkpt>
      <trkpt lat="45.1697" lon="5.63021">
        <ele>1211</ele>
        <time>2015-08-23T09:42:21.000Z</time>
      </trkpt>
      <trkpt lat="45.16976" lon="5.63019">
        <ele>1213</ele>
        <time>2015-08-23T09:42:23.000Z</time>
      </trkpt>
      <trkpt lat="45.16982" lon="5.63017">
        <ele>1214</ele>
        <time>2015-08-23T09:42:25.000Z</time>
      </trkpt>
      <trkpt lat="45.16989" lon="5.63015">
        <ele>1215</ele>
        <time>2015-08-23T09:42:29.000Z</time>
      </trkpt>
      <trkpt lat="45.17002" lon="5.63012">
        <ele>1214</ele>
        <time>2015-08-23T09:42:30.000Z</time>
      </trkpt>
      <trkpt lat="45.17014" lon="5.63009">
        <ele>1215</ele>
        <time>2015-08-23T09:42:34.000Z</time>
      </trkpt>
      <trkpt lat="45.17025" lon="5.63007">
        <ele>1214</ele>
        <time>2015-08-23T09:42:38.000Z</time>
      </trkpt>
      <trkpt lat="45.17025" lon="5.63007">
        <ele>1214</ele>
        <time>2015-08-23T09:42:41.000Z</time>
      </trkpt>
      <trkpt lat="45.17025" lon="5.63007">
        <ele>1214</ele>
        <time>2015-08-23T09:42:43.000Z</time>
      </trkpt>
      <trkpt lat="45.17025" lon="5.63007">
        <ele>1214</ele>
        <time>2015-08-23T09:42:45.000Z</time>
      </trkpt>
      <trkpt lat="45.17025" lon="5.63007">
        <ele>1214</ele>
        <time>2015-08-23T09:42:47.000Z</time>
      </trkpt>
      <trkpt lat="45.17025" lon="5.63007">
        <ele>1214</ele>
        <time>2015-08-23T09:42:49.000Z</time>
      </trkpt>
      <trkpt lat="45.17025" lon="5.63007">
        <ele>1214</ele>
        <time>2015-08-23T09:42:52.000Z</time>
      </trkpt>
      <trkpt lat="45.17025" lon="5.63007">
        <ele>1214</ele>
        <time>2015-08-23T09:42:54.000Z</time>
      </trkpt>
      <trkpt lat="45.17025" lon="5.63007">
        <ele>1214</ele>
        <time>2015-08-23T09:42:56.000Z</time>
      </trkpt>
      <trkpt lat="45.17053" lon="5.6302">
        <ele>1214</ele>
        <time>2015-08-23T09:43:04.000Z</time>
      </trkpt>
      <trkpt lat="45.17053" lon="5.6302">
        <ele>1214</ele>
        <time>2015-08-23T09:43:06.000Z</time>
      </trkpt>
      <trkpt lat="45.17053" lon="5.6302">
        <ele>1214</ele>
        <time>2015-08-23T09:43:08.000Z</time>
      </trkpt>
      <trkpt lat="45.17053" lon="5.6302">
        <ele>1214</ele>
        <time>2015-08-23T09:43:10.000Z</time>
      </trkpt>
      <trkpt lat="45.17053" lon="5.6302">
        <ele>1214</ele>
        <time>2015-08-23T09:44:04.000Z</time>
      </trkpt>
    </trkseg>
  </trk>
</gpx>